<?xml version="1.0" encoding="UTF-8" standalone="no" ?>
<gpx xmlns="http://www.topografix.com/GPX/1/1" xmlns:xsi="http://www.w3.org/2001/XMLSchema-instance" xsi:schemaLocation="http://www.topografix.com/GPX/1/1 http://www.topografix.com/GPX/1/1/gpx.xsd" version="1.1" creator="VisuGPX - https://www.visugpx.com">
  <metadata>
    <name>08/08/2020 07:56:35</name>
    <desc><![CDATA[boucle au départ du camping l'airial à Soustons puis chemins sablonneux dans la forêt de Soustons (petit écart sur la plage)]]></desc>
  </metadata>
  <trk>
    <name><![CDATA[08/08/2020 07:56:35]]></name>
    <trkseg>
      <trkpt lat="43.75143" lon="-1.35489">
        <ele>8</ele>
        <time>2020-08-08T05:56:35Z</time>
      </trkpt>
      <trkpt lat="43.75143" lon="-1.35489">
        <ele>8</ele>
        <time>2020-08-08T05:56:39Z</time>
      </trkpt>
      <trkpt lat="43.75143" lon="-1.35489">
        <ele>8</ele>
        <time>2020-08-08T05:56:40Z</time>
      </trkpt>
      <trkpt lat="43.75144" lon="-1.35494">
        <ele>8</ele>
        <time>2020-08-08T05:56:43Z</time>
      </trkpt>
      <trkpt lat="43.75147" lon="-1.35508">
        <ele>8</ele>
        <time>2020-08-08T05:56:47Z</time>
      </trkpt>
      <trkpt lat="43.75151" lon="-1.35538">
        <ele>8</ele>
        <time>2020-08-08T05:56:52Z</time>
      </trkpt>
      <trkpt lat="43.75157" lon="-1.35578">
        <ele>8</ele>
        <time>2020-08-08T05:56:59Z</time>
      </trkpt>
      <trkpt lat="43.75161" lon="-1.35613">
        <ele>8</ele>
        <time>2020-08-08T05:57:05Z</time>
      </trkpt>
      <trkpt lat="43.75166" lon="-1.35652">
        <ele>8</ele>
        <time>2020-08-08T05:57:12Z</time>
      </trkpt>
      <trkpt lat="43.7517" lon="-1.3569">
        <ele>8</ele>
        <time>2020-08-08T05:57:18Z</time>
      </trkpt>
      <trkpt lat="43.75174" lon="-1.35734">
        <ele>8.3</ele>
        <time>2020-08-08T05:57:24Z</time>
      </trkpt>
      <trkpt lat="43.75176" lon="-1.35772">
        <ele>8.1</ele>
        <time>2020-08-08T05:57:29Z</time>
      </trkpt>
      <trkpt lat="43.75176" lon="-1.35795">
        <ele>8</ele>
        <time>2020-08-08T05:57:32Z</time>
      </trkpt>
      <trkpt lat="43.75176" lon="-1.35803">
        <ele>8</ele>
        <time>2020-08-08T05:57:33Z</time>
      </trkpt>
      <trkpt lat="43.75176" lon="-1.35826">
        <ele>8</ele>
        <time>2020-08-08T05:57:36Z</time>
      </trkpt>
      <trkpt lat="43.75176" lon="-1.35833">
        <ele>8</ele>
        <time>2020-08-08T05:57:37Z</time>
      </trkpt>
      <trkpt lat="43.75175" lon="-1.35847">
        <ele>8.5</ele>
        <time>2020-08-08T05:57:39Z</time>
      </trkpt>
      <trkpt lat="43.75175" lon="-1.35867">
        <ele>9</ele>
        <time>2020-08-08T05:57:42Z</time>
      </trkpt>
      <trkpt lat="43.75174" lon="-1.35879">
        <ele>9</ele>
        <time>2020-08-08T05:57:43Z</time>
      </trkpt>
      <trkpt lat="43.75171" lon="-1.35912">
        <ele>9.3</ele>
        <time>2020-08-08T05:57:49Z</time>
      </trkpt>
      <trkpt lat="43.7517" lon="-1.35941">
        <ele>10.2</ele>
        <time>2020-08-08T05:57:53Z</time>
      </trkpt>
      <trkpt lat="43.75168" lon="-1.35969">
        <ele>0.40000000596046</ele>
        <time>2020-08-08T05:57:57Z</time>
      </trkpt>
      <trkpt lat="43.75167" lon="-1.35977">
        <ele>0.80000001192093</ele>
        <time>2020-08-08T05:57:58Z</time>
      </trkpt>
      <trkpt lat="43.75167" lon="-1.35984">
        <ele>1.2000000476837</ele>
        <time>2020-08-08T05:57:59Z</time>
      </trkpt>
      <trkpt lat="43.75166" lon="-1.35991">
        <ele>1.6000000238419</ele>
        <time>2020-08-08T05:58:00Z</time>
      </trkpt>
      <trkpt lat="43.75166" lon="-1.35999">
        <ele>2</ele>
        <time>2020-08-08T05:58:01Z</time>
      </trkpt>
      <trkpt lat="43.75165" lon="-1.36022">
        <ele>2</ele>
        <time>2020-08-08T05:58:04Z</time>
      </trkpt>
      <trkpt lat="43.75167" lon="-1.36045">
        <ele>2</ele>
        <time>2020-08-08T05:58:07Z</time>
      </trkpt>
      <trkpt lat="43.75173" lon="-1.36088">
        <ele>2</ele>
        <time>2020-08-08T05:58:14Z</time>
      </trkpt>
      <trkpt lat="43.75175" lon="-1.36103">
        <ele>2</ele>
        <time>2020-08-08T05:58:18Z</time>
      </trkpt>
      <trkpt lat="43.75174" lon="-1.36104">
        <ele>2</ele>
        <time>2020-08-08T05:58:19Z</time>
      </trkpt>
      <trkpt lat="43.75172" lon="-1.361">
        <ele>2</ele>
        <time>2020-08-08T05:58:22Z</time>
      </trkpt>
      <trkpt lat="43.75171" lon="-1.36095">
        <ele>2</ele>
        <time>2020-08-08T05:58:24Z</time>
      </trkpt>
      <trkpt lat="43.75169" lon="-1.36082">
        <ele>2</ele>
        <time>2020-08-08T05:58:27Z</time>
      </trkpt>
      <trkpt lat="43.75166" lon="-1.36051">
        <ele>2</ele>
        <time>2020-08-08T05:58:33Z</time>
      </trkpt>
      <trkpt lat="43.75164" lon="-1.36033">
        <ele>2</ele>
        <time>2020-08-08T05:58:38Z</time>
      </trkpt>
      <trkpt lat="43.75163" lon="-1.36027">
        <ele>2</ele>
        <time>2020-08-08T05:58:43Z</time>
      </trkpt>
      <trkpt lat="43.7516" lon="-1.36025">
        <ele>2</ele>
        <time>2020-08-08T05:58:46Z</time>
      </trkpt>
      <trkpt lat="43.75159" lon="-1.36022">
        <ele>2</ele>
        <time>2020-08-08T05:58:48Z</time>
      </trkpt>
      <trkpt lat="43.75157" lon="-1.36016">
        <ele>2</ele>
        <time>2020-08-08T05:58:51Z</time>
      </trkpt>
      <trkpt lat="43.75155" lon="-1.36007">
        <ele>2</ele>
        <time>2020-08-08T05:58:54Z</time>
      </trkpt>
      <trkpt lat="43.75153" lon="-1.35993">
        <ele>2</ele>
        <time>2020-08-08T05:58:59Z</time>
      </trkpt>
      <trkpt lat="43.75151" lon="-1.35977">
        <ele>2</ele>
        <time>2020-08-08T05:59:04Z</time>
      </trkpt>
      <trkpt lat="43.75145" lon="-1.35957">
        <ele>2</ele>
        <time>2020-08-08T05:59:10Z</time>
      </trkpt>
      <trkpt lat="43.75137" lon="-1.3594">
        <ele>2</ele>
        <time>2020-08-08T05:59:16Z</time>
      </trkpt>
      <trkpt lat="43.75134" lon="-1.3592">
        <ele>2</ele>
        <time>2020-08-08T05:59:22Z</time>
      </trkpt>
      <trkpt lat="43.75136" lon="-1.35894">
        <ele>2</ele>
        <time>2020-08-08T05:59:27Z</time>
      </trkpt>
      <trkpt lat="43.75136" lon="-1.35882">
        <ele>2</ele>
        <time>2020-08-08T05:59:29Z</time>
      </trkpt>
      <trkpt lat="43.75131" lon="-1.35868">
        <ele>1.6000000238419</ele>
        <time>2020-08-08T05:59:32Z</time>
      </trkpt>
      <trkpt lat="43.75128" lon="-1.35864">
        <ele>1.2000000476837</ele>
        <time>2020-08-08T05:59:33Z</time>
      </trkpt>
      <trkpt lat="43.75127" lon="-1.35861">
        <ele>0.80000001192093</ele>
        <time>2020-08-08T05:59:34Z</time>
      </trkpt>
      <trkpt lat="43.75125" lon="-1.35858">
        <ele>0.40000000596046</ele>
        <time>2020-08-08T05:59:35Z</time>
      </trkpt>
      <trkpt lat="43.75122" lon="-1.35855">
        <ele>9.9</ele>
        <time>2020-08-08T05:59:36Z</time>
      </trkpt>
      <trkpt lat="43.75105" lon="-1.35833">
        <ele>10.8</ele>
        <time>2020-08-08T05:59:42Z</time>
      </trkpt>
      <trkpt lat="43.75092" lon="-1.35812">
        <ele>11</ele>
        <time>2020-08-08T05:59:48Z</time>
      </trkpt>
      <trkpt lat="43.75083" lon="-1.35799">
        <ele>10.8</ele>
        <time>2020-08-08T05:59:53Z</time>
      </trkpt>
      <trkpt lat="43.75079" lon="-1.35791">
        <ele>11.2</ele>
        <time>2020-08-08T05:59:59Z</time>
      </trkpt>
      <trkpt lat="43.75079" lon="-1.3579">
        <ele>11.2</ele>
        <time>2020-08-08T06:00:08Z</time>
      </trkpt>
      <trkpt lat="43.75074" lon="-1.35782">
        <ele>11.1</ele>
        <time>2020-08-08T06:00:12Z</time>
      </trkpt>
      <trkpt lat="43.75074" lon="-1.3578">
        <ele>10.9</ele>
        <time>2020-08-08T06:00:13Z</time>
      </trkpt>
      <trkpt lat="43.75069" lon="-1.35764">
        <ele>10.3</ele>
        <time>2020-08-08T06:00:18Z</time>
      </trkpt>
      <trkpt lat="43.75067" lon="-1.35757">
        <ele>10</ele>
        <time>2020-08-08T06:00:20Z</time>
      </trkpt>
      <trkpt lat="43.75063" lon="-1.35747">
        <ele>9.7</ele>
        <time>2020-08-08T06:00:23Z</time>
      </trkpt>
      <trkpt lat="43.75056" lon="-1.35725">
        <ele>10</ele>
        <time>2020-08-08T06:00:29Z</time>
      </trkpt>
      <trkpt lat="43.75051" lon="-1.35702">
        <ele>9.4</ele>
        <time>2020-08-08T06:00:35Z</time>
      </trkpt>
      <trkpt lat="43.75046" lon="-1.35681">
        <ele>9.4</ele>
        <time>2020-08-08T06:00:40Z</time>
      </trkpt>
      <trkpt lat="43.7504" lon="-1.35657">
        <ele>9.4</ele>
        <time>2020-08-08T06:00:45Z</time>
      </trkpt>
      <trkpt lat="43.75033" lon="-1.35623">
        <ele>9</ele>
        <time>2020-08-08T06:00:52Z</time>
      </trkpt>
      <trkpt lat="43.75026" lon="-1.35598">
        <ele>9.1</ele>
        <time>2020-08-08T06:00:58Z</time>
      </trkpt>
      <trkpt lat="43.75017" lon="-1.35567">
        <ele>9.1</ele>
        <time>2020-08-08T06:01:05Z</time>
      </trkpt>
      <trkpt lat="43.75017" lon="-1.35562">
        <ele>-0.40000000596046</ele>
        <time>2020-08-08T06:01:06Z</time>
      </trkpt>
      <trkpt lat="43.75014" lon="-1.35557">
        <ele>-0.80000001192093</ele>
        <time>2020-08-08T06:01:07Z</time>
      </trkpt>
      <trkpt lat="43.75013" lon="-1.35554">
        <ele>-1.2000000476837</ele>
        <time>2020-08-08T06:01:08Z</time>
      </trkpt>
      <trkpt lat="43.75011" lon="-1.35552">
        <ele>-1.6000000238419</ele>
        <time>2020-08-08T06:01:09Z</time>
      </trkpt>
      <trkpt lat="43.7501" lon="-1.35551">
        <ele>-2</ele>
        <time>2020-08-08T06:01:10Z</time>
      </trkpt>
      <trkpt lat="43.75004" lon="-1.35545">
        <ele>-2</ele>
        <time>2020-08-08T06:01:13Z</time>
      </trkpt>
      <trkpt lat="43.75001" lon="-1.35543">
        <ele>-2</ele>
        <time>2020-08-08T06:01:15Z</time>
      </trkpt>
      <trkpt lat="43.74991" lon="-1.35542">
        <ele>-2</ele>
        <time>2020-08-08T06:01:22Z</time>
      </trkpt>
      <trkpt lat="43.74989" lon="-1.35543">
        <ele>-2</ele>
        <time>2020-08-08T06:01:23Z</time>
      </trkpt>
      <trkpt lat="43.74984" lon="-1.35546">
        <ele>-2</ele>
        <time>2020-08-08T06:01:28Z</time>
      </trkpt>
      <trkpt lat="43.74983" lon="-1.35548">
        <ele>-2</ele>
        <time>2020-08-08T06:01:34Z</time>
      </trkpt>
      <trkpt lat="43.74984" lon="-1.35546">
        <ele>-2</ele>
        <time>2020-08-08T06:01:39Z</time>
      </trkpt>
      <trkpt lat="43.74988" lon="-1.35533">
        <ele>-2</ele>
        <time>2020-08-08T06:01:44Z</time>
      </trkpt>
      <trkpt lat="43.74987" lon="-1.35524">
        <ele>-2</ele>
        <time>2020-08-08T06:01:47Z</time>
      </trkpt>
      <trkpt lat="43.74985" lon="-1.35512">
        <ele>-2</ele>
        <time>2020-08-08T06:01:50Z</time>
      </trkpt>
      <trkpt lat="43.74978" lon="-1.35488">
        <ele>-2</ele>
        <time>2020-08-08T06:01:56Z</time>
      </trkpt>
      <trkpt lat="43.74976" lon="-1.3548">
        <ele>-2</ele>
        <time>2020-08-08T06:02:00Z</time>
      </trkpt>
      <trkpt lat="43.74977" lon="-1.35479">
        <ele>-2</ele>
        <time>2020-08-08T06:02:01Z</time>
      </trkpt>
      <trkpt lat="43.74977" lon="-1.35478">
        <ele>-2</ele>
        <time>2020-08-08T06:02:06Z</time>
      </trkpt>
      <trkpt lat="43.74977" lon="-1.35481">
        <ele>-2</ele>
        <time>2020-08-08T06:02:09Z</time>
      </trkpt>
      <trkpt lat="43.74978" lon="-1.35486">
        <ele>-2</ele>
        <time>2020-08-08T06:02:12Z</time>
      </trkpt>
      <trkpt lat="43.7498" lon="-1.35492">
        <ele>-2</ele>
        <time>2020-08-08T06:02:14Z</time>
      </trkpt>
      <trkpt lat="43.74984" lon="-1.355">
        <ele>-2</ele>
        <time>2020-08-08T06:02:17Z</time>
      </trkpt>
      <trkpt lat="43.74988" lon="-1.35513">
        <ele>-2</ele>
        <time>2020-08-08T06:02:22Z</time>
      </trkpt>
      <trkpt lat="43.74996" lon="-1.35531">
        <ele>-2</ele>
        <time>2020-08-08T06:02:29Z</time>
      </trkpt>
      <trkpt lat="43.75005" lon="-1.35534">
        <ele>-2</ele>
        <time>2020-08-08T06:02:34Z</time>
      </trkpt>
      <trkpt lat="43.75018" lon="-1.3553">
        <ele>-2</ele>
        <time>2020-08-08T06:02:40Z</time>
      </trkpt>
      <trkpt lat="43.75027" lon="-1.35529">
        <ele>-2</ele>
        <time>2020-08-08T06:02:45Z</time>
      </trkpt>
      <trkpt lat="43.75042" lon="-1.35525">
        <ele>-2</ele>
        <time>2020-08-08T06:02:52Z</time>
      </trkpt>
      <trkpt lat="43.75047" lon="-1.35523">
        <ele>-2</ele>
        <time>2020-08-08T06:02:54Z</time>
      </trkpt>
      <trkpt lat="43.75047" lon="-1.35523">
        <ele>-2</ele>
        <time>2020-08-08T06:02:56Z</time>
      </trkpt>
      <trkpt lat="43.75049" lon="-1.35523">
        <ele>-2</ele>
        <time>2020-08-08T06:03:01Z</time>
      </trkpt>
      <trkpt lat="43.75055" lon="-1.35521">
        <ele>-2</ele>
        <time>2020-08-08T06:03:10Z</time>
      </trkpt>
      <trkpt lat="43.75058" lon="-1.3552">
        <ele>-2</ele>
        <time>2020-08-08T06:03:14Z</time>
      </trkpt>
      <trkpt lat="43.75059" lon="-1.35519">
        <ele>-2</ele>
        <time>2020-08-08T06:03:15Z</time>
      </trkpt>
      <trkpt lat="43.75066" lon="-1.35518">
        <ele>-2</ele>
        <time>2020-08-08T06:03:22Z</time>
      </trkpt>
      <trkpt lat="43.7507" lon="-1.35518">
        <ele>-2</ele>
        <time>2020-08-08T06:03:27Z</time>
      </trkpt>
      <trkpt lat="43.75075" lon="-1.35516">
        <ele>-2</ele>
        <time>2020-08-08T06:03:33Z</time>
      </trkpt>
      <trkpt lat="43.75087" lon="-1.35514">
        <ele>-2.4000000953674</ele>
        <time>2020-08-08T06:03:39Z</time>
      </trkpt>
      <trkpt lat="43.7509" lon="-1.35513">
        <ele>-2.7999999523163</ele>
        <time>2020-08-08T06:03:40Z</time>
      </trkpt>
      <trkpt lat="43.75092" lon="-1.35513">
        <ele>-3.2000000476837</ele>
        <time>2020-08-08T06:03:41Z</time>
      </trkpt>
      <trkpt lat="43.75094" lon="-1.35513">
        <ele>-3.5999999046326</ele>
        <time>2020-08-08T06:03:42Z</time>
      </trkpt>
      <trkpt lat="43.75095" lon="-1.35512">
        <ele>-4</ele>
        <time>2020-08-08T06:03:43Z</time>
      </trkpt>
      <trkpt lat="43.75096" lon="-1.35512">
        <ele>-4</ele>
        <time>2020-08-08T06:03:44Z</time>
      </trkpt>
      <trkpt lat="43.75096" lon="-1.35511">
        <ele>-4</ele>
        <time>2020-08-08T06:03:49Z</time>
      </trkpt>
      <trkpt lat="43.75096" lon="-1.35511">
        <ele>-4</ele>
        <time>2020-08-08T06:04:04Z</time>
      </trkpt>
      <trkpt lat="43.75096" lon="-1.35511">
        <ele>-4</ele>
        <time>2020-08-08T06:04:06Z</time>
      </trkpt>
      <trkpt lat="43.75096" lon="-1.35511">
        <ele>-4</ele>
        <time>2020-08-08T06:04:21Z</time>
      </trkpt>
      <trkpt lat="43.75099" lon="-1.35512">
        <ele>-4</ele>
        <time>2020-08-08T06:04:36Z</time>
      </trkpt>
      <trkpt lat="43.7511" lon="-1.35507">
        <ele>-4</ele>
        <time>2020-08-08T06:04:42Z</time>
      </trkpt>
      <trkpt lat="43.75113" lon="-1.35507">
        <ele>-4</ele>
        <time>2020-08-08T06:04:43Z</time>
      </trkpt>
      <trkpt lat="43.75122" lon="-1.35503">
        <ele>-4</ele>
        <time>2020-08-08T06:04:48Z</time>
      </trkpt>
      <trkpt lat="43.75136" lon="-1.355">
        <ele>-4</ele>
        <time>2020-08-08T06:04:54Z</time>
      </trkpt>
      <trkpt lat="43.75141" lon="-1.35502">
        <ele>-4</ele>
        <time>2020-08-08T06:04:57Z</time>
      </trkpt>
      <trkpt lat="43.75143" lon="-1.35506">
        <ele>-4</ele>
        <time>2020-08-08T06:04:59Z</time>
      </trkpt>
      <trkpt lat="43.75145" lon="-1.35512">
        <ele>-4</ele>
        <time>2020-08-08T06:05:01Z</time>
      </trkpt>
      <trkpt lat="43.75151" lon="-1.35528">
        <ele>-4</ele>
        <time>2020-08-08T06:05:06Z</time>
      </trkpt>
      <trkpt lat="43.75157" lon="-1.35559">
        <ele>-4</ele>
        <time>2020-08-08T06:05:12Z</time>
      </trkpt>
      <trkpt lat="43.75161" lon="-1.35592">
        <ele>-4</ele>
        <time>2020-08-08T06:05:18Z</time>
      </trkpt>
      <trkpt lat="43.75164" lon="-1.3562">
        <ele>-4</ele>
        <time>2020-08-08T06:05:24Z</time>
      </trkpt>
      <trkpt lat="43.75166" lon="-1.35649">
        <ele>-4</ele>
        <time>2020-08-08T06:05:31Z</time>
      </trkpt>
      <trkpt lat="43.7517" lon="-1.35675">
        <ele>-4</ele>
        <time>2020-08-08T06:05:37Z</time>
      </trkpt>
      <trkpt lat="43.75173" lon="-1.35712">
        <ele>-4</ele>
        <time>2020-08-08T06:05:44Z</time>
      </trkpt>
      <trkpt lat="43.75174" lon="-1.35724">
        <ele>-4</ele>
        <time>2020-08-08T06:05:46Z</time>
      </trkpt>
      <trkpt lat="43.75174" lon="-1.3574">
        <ele>-4</ele>
        <time>2020-08-08T06:05:49Z</time>
      </trkpt>
      <trkpt lat="43.75176" lon="-1.35777">
        <ele>-4</ele>
        <time>2020-08-08T06:05:57Z</time>
      </trkpt>
      <trkpt lat="43.75175" lon="-1.35823">
        <ele>-4</ele>
        <time>2020-08-08T06:06:06Z</time>
      </trkpt>
      <trkpt lat="43.75173" lon="-1.35858">
        <ele>-4</ele>
        <time>2020-08-08T06:06:13Z</time>
      </trkpt>
      <trkpt lat="43.75171" lon="-1.35882">
        <ele>-4</ele>
        <time>2020-08-08T06:06:19Z</time>
      </trkpt>
      <trkpt lat="43.75171" lon="-1.35899">
        <ele>-4</ele>
        <time>2020-08-08T06:06:25Z</time>
      </trkpt>
      <trkpt lat="43.7517" lon="-1.35922">
        <ele>-4</ele>
        <time>2020-08-08T06:06:31Z</time>
      </trkpt>
      <trkpt lat="43.75169" lon="-1.35951">
        <ele>-4</ele>
        <time>2020-08-08T06:06:38Z</time>
      </trkpt>
      <trkpt lat="43.75167" lon="-1.35979">
        <ele>-4</ele>
        <time>2020-08-08T06:06:43Z</time>
      </trkpt>
      <trkpt lat="43.75165" lon="-1.36015">
        <ele>-4</ele>
        <time>2020-08-08T06:06:49Z</time>
      </trkpt>
      <trkpt lat="43.75164" lon="-1.36049">
        <ele>-4</ele>
        <time>2020-08-08T06:06:56Z</time>
      </trkpt>
      <trkpt lat="43.75167" lon="-1.36068">
        <ele>-4</ele>
        <time>2020-08-08T06:07:02Z</time>
      </trkpt>
      <trkpt lat="43.7517" lon="-1.36084">
        <ele>-4</ele>
        <time>2020-08-08T06:07:09Z</time>
      </trkpt>
      <trkpt lat="43.75172" lon="-1.36089">
        <ele>-4</ele>
        <time>2020-08-08T06:07:14Z</time>
      </trkpt>
      <trkpt lat="43.75172" lon="-1.36089">
        <ele>-4</ele>
        <time>2020-08-08T06:07:27Z</time>
      </trkpt>
      <trkpt lat="43.75172" lon="-1.36089">
        <ele>-4</ele>
        <time>2020-08-08T06:07:40Z</time>
      </trkpt>
      <trkpt lat="43.75172" lon="-1.36089">
        <ele>-4</ele>
        <time>2020-08-08T06:07:57Z</time>
      </trkpt>
      <trkpt lat="43.75172" lon="-1.36094">
        <ele>-4</ele>
        <time>2020-08-08T06:07:59Z</time>
      </trkpt>
      <trkpt lat="43.75173" lon="-1.36104">
        <ele>-4</ele>
        <time>2020-08-08T06:08:02Z</time>
      </trkpt>
      <trkpt lat="43.7518" lon="-1.36136">
        <ele>-4</ele>
        <time>2020-08-08T06:08:09Z</time>
      </trkpt>
      <trkpt lat="43.75189" lon="-1.36178">
        <ele>-4</ele>
        <time>2020-08-08T06:08:17Z</time>
      </trkpt>
      <trkpt lat="43.75194" lon="-1.36198">
        <ele>-4</ele>
        <time>2020-08-08T06:08:21Z</time>
      </trkpt>
      <trkpt lat="43.75198" lon="-1.36219">
        <ele>-4</ele>
        <time>2020-08-08T06:08:25Z</time>
      </trkpt>
      <trkpt lat="43.75207" lon="-1.36267">
        <ele>-4</ele>
        <time>2020-08-08T06:08:34Z</time>
      </trkpt>
      <trkpt lat="43.75215" lon="-1.36305">
        <ele>-4</ele>
        <time>2020-08-08T06:08:41Z</time>
      </trkpt>
      <trkpt lat="43.75223" lon="-1.36339">
        <ele>-4</ele>
        <time>2020-08-08T06:08:48Z</time>
      </trkpt>
      <trkpt lat="43.75228" lon="-1.36364">
        <ele>-4</ele>
        <time>2020-08-08T06:08:54Z</time>
      </trkpt>
      <trkpt lat="43.75239" lon="-1.36405">
        <ele>-4</ele>
        <time>2020-08-08T06:09:02Z</time>
      </trkpt>
      <trkpt lat="43.7525" lon="-1.36448">
        <ele>-4</ele>
        <time>2020-08-08T06:09:10Z</time>
      </trkpt>
      <trkpt lat="43.75254" lon="-1.36458">
        <ele>-4</ele>
        <time>2020-08-08T06:09:12Z</time>
      </trkpt>
      <trkpt lat="43.75263" lon="-1.36477">
        <ele>-3.5999999046326</ele>
        <time>2020-08-08T06:09:16Z</time>
      </trkpt>
      <trkpt lat="43.75265" lon="-1.36482">
        <ele>-3.2000000476837</ele>
        <time>2020-08-08T06:09:17Z</time>
      </trkpt>
      <trkpt lat="43.75267" lon="-1.36486">
        <ele>-2.7999999523163</ele>
        <time>2020-08-08T06:09:18Z</time>
      </trkpt>
      <trkpt lat="43.7527" lon="-1.36491">
        <ele>-2.4000000953674</ele>
        <time>2020-08-08T06:09:19Z</time>
      </trkpt>
      <trkpt lat="43.75272" lon="-1.36496">
        <ele>-2</ele>
        <time>2020-08-08T06:09:20Z</time>
      </trkpt>
      <trkpt lat="43.75287" lon="-1.36523">
        <ele>-2</ele>
        <time>2020-08-08T06:09:26Z</time>
      </trkpt>
      <trkpt lat="43.75307" lon="-1.36563">
        <ele>-2</ele>
        <time>2020-08-08T06:09:34Z</time>
      </trkpt>
      <trkpt lat="43.75326" lon="-1.36601">
        <ele>-2</ele>
        <time>2020-08-08T06:09:42Z</time>
      </trkpt>
      <trkpt lat="43.75341" lon="-1.36638">
        <ele>-2</ele>
        <time>2020-08-08T06:09:50Z</time>
      </trkpt>
      <trkpt lat="43.75346" lon="-1.36656">
        <ele>-2</ele>
        <time>2020-08-08T06:09:54Z</time>
      </trkpt>
      <trkpt lat="43.75345" lon="-1.36661">
        <ele>-2</ele>
        <time>2020-08-08T06:09:55Z</time>
      </trkpt>
      <trkpt lat="43.75341" lon="-1.36674">
        <ele>-2</ele>
        <time>2020-08-08T06:09:59Z</time>
      </trkpt>
      <trkpt lat="43.75341" lon="-1.36675">
        <ele>-2</ele>
        <time>2020-08-08T06:10:00Z</time>
      </trkpt>
      <trkpt lat="43.7534" lon="-1.36675">
        <ele>-2</ele>
        <time>2020-08-08T06:10:03Z</time>
      </trkpt>
      <trkpt lat="43.7534" lon="-1.36675">
        <ele>-2</ele>
        <time>2020-08-08T06:10:19Z</time>
      </trkpt>
      <trkpt lat="43.7534" lon="-1.36675">
        <ele>-2</ele>
        <time>2020-08-08T06:10:34Z</time>
      </trkpt>
      <trkpt lat="43.7534" lon="-1.36676">
        <ele>-2</ele>
        <time>2020-08-08T06:10:50Z</time>
      </trkpt>
      <trkpt lat="43.7534" lon="-1.36676">
        <ele>-2</ele>
        <time>2020-08-08T06:10:56Z</time>
      </trkpt>
      <trkpt lat="43.7534" lon="-1.36675">
        <ele>-2</ele>
        <time>2020-08-08T06:11:02Z</time>
      </trkpt>
      <trkpt lat="43.7534" lon="-1.36672">
        <ele>-2</ele>
        <time>2020-08-08T06:11:03Z</time>
      </trkpt>
      <trkpt lat="43.75345" lon="-1.36662">
        <ele>-2</ele>
        <time>2020-08-08T06:11:08Z</time>
      </trkpt>
      <trkpt lat="43.75346" lon="-1.36662">
        <ele>-2</ele>
        <time>2020-08-08T06:11:09Z</time>
      </trkpt>
      <trkpt lat="43.7535" lon="-1.36667">
        <ele>-2</ele>
        <time>2020-08-08T06:11:12Z</time>
      </trkpt>
      <trkpt lat="43.75356" lon="-1.36683">
        <ele>-2</ele>
        <time>2020-08-08T06:11:16Z</time>
      </trkpt>
      <trkpt lat="43.75357" lon="-1.36688">
        <ele>-2</ele>
        <time>2020-08-08T06:11:17Z</time>
      </trkpt>
      <trkpt lat="43.75366" lon="-1.36711">
        <ele>-2</ele>
        <time>2020-08-08T06:11:22Z</time>
      </trkpt>
      <trkpt lat="43.75374" lon="-1.36742">
        <ele>-2</ele>
        <time>2020-08-08T06:11:28Z</time>
      </trkpt>
      <trkpt lat="43.7538" lon="-1.36774">
        <ele>-2</ele>
        <time>2020-08-08T06:11:33Z</time>
      </trkpt>
      <trkpt lat="43.75384" lon="-1.36809">
        <ele>-2</ele>
        <time>2020-08-08T06:11:38Z</time>
      </trkpt>
      <trkpt lat="43.75388" lon="-1.36857">
        <ele>-2</ele>
        <time>2020-08-08T06:11:44Z</time>
      </trkpt>
      <trkpt lat="43.75392" lon="-1.36879">
        <ele>-2</ele>
        <time>2020-08-08T06:11:47Z</time>
      </trkpt>
      <trkpt lat="43.75394" lon="-1.36901">
        <ele>-2</ele>
        <time>2020-08-08T06:11:50Z</time>
      </trkpt>
      <trkpt lat="43.75395" lon="-1.36918">
        <ele>-2.4000000953674</ele>
        <time>2020-08-08T06:11:52Z</time>
      </trkpt>
      <trkpt lat="43.75395" lon="-1.36927">
        <ele>-2.7999999523163</ele>
        <time>2020-08-08T06:11:53Z</time>
      </trkpt>
      <trkpt lat="43.75395" lon="-1.36935">
        <ele>-3.2000000476837</ele>
        <time>2020-08-08T06:11:54Z</time>
      </trkpt>
      <trkpt lat="43.75395" lon="-1.36945">
        <ele>-3.5999999046326</ele>
        <time>2020-08-08T06:11:55Z</time>
      </trkpt>
      <trkpt lat="43.75394" lon="-1.36953">
        <ele>-4</ele>
        <time>2020-08-08T06:11:56Z</time>
      </trkpt>
      <trkpt lat="43.75395" lon="-1.36986">
        <ele>-4</ele>
        <time>2020-08-08T06:12:00Z</time>
      </trkpt>
      <trkpt lat="43.75394" lon="-1.37029">
        <ele>-4</ele>
        <time>2020-08-08T06:12:05Z</time>
      </trkpt>
      <trkpt lat="43.75393" lon="-1.37045">
        <ele>-4</ele>
        <time>2020-08-08T06:12:07Z</time>
      </trkpt>
      <trkpt lat="43.75391" lon="-1.37078">
        <ele>-4</ele>
        <time>2020-08-08T06:12:11Z</time>
      </trkpt>
      <trkpt lat="43.75391" lon="-1.3711">
        <ele>-4</ele>
        <time>2020-08-08T06:12:15Z</time>
      </trkpt>
      <trkpt lat="43.7539" lon="-1.37125">
        <ele>-4</ele>
        <time>2020-08-08T06:12:17Z</time>
      </trkpt>
      <trkpt lat="43.75387" lon="-1.37168">
        <ele>-4</ele>
        <time>2020-08-08T06:12:22Z</time>
      </trkpt>
      <trkpt lat="43.75383" lon="-1.37203">
        <ele>-4</ele>
        <time>2020-08-08T06:12:26Z</time>
      </trkpt>
      <trkpt lat="43.75381" lon="-1.37217">
        <ele>-4</ele>
        <time>2020-08-08T06:12:28Z</time>
      </trkpt>
      <trkpt lat="43.75376" lon="-1.37244">
        <ele>-4</ele>
        <time>2020-08-08T06:12:32Z</time>
      </trkpt>
      <trkpt lat="43.75372" lon="-1.37252">
        <ele>-4</ele>
        <time>2020-08-08T06:12:34Z</time>
      </trkpt>
      <trkpt lat="43.75368" lon="-1.37256">
        <ele>-4</ele>
        <time>2020-08-08T06:12:36Z</time>
      </trkpt>
      <trkpt lat="43.75366" lon="-1.37257">
        <ele>-4.4000000953674</ele>
        <time>2020-08-08T06:12:37Z</time>
      </trkpt>
      <trkpt lat="43.75364" lon="-1.37256">
        <ele>-4.8000001907349</ele>
        <time>2020-08-08T06:12:38Z</time>
      </trkpt>
      <trkpt lat="43.75363" lon="-1.37254">
        <ele>-5.1999998092651</ele>
        <time>2020-08-08T06:12:39Z</time>
      </trkpt>
      <trkpt lat="43.75362" lon="-1.3725">
        <ele>-5.5999999046326</ele>
        <time>2020-08-08T06:12:40Z</time>
      </trkpt>
      <trkpt lat="43.75361" lon="-1.37246">
        <ele>-6.1999998092651</ele>
        <time>2020-08-08T06:12:41Z</time>
      </trkpt>
      <trkpt lat="43.7536" lon="-1.37242">
        <ele>-6.1999998092651</ele>
        <time>2020-08-08T06:12:42Z</time>
      </trkpt>
      <trkpt lat="43.75354" lon="-1.37227">
        <ele>-6.1999998092651</ele>
        <time>2020-08-08T06:12:46Z</time>
      </trkpt>
      <trkpt lat="43.75352" lon="-1.37224">
        <ele>-6.1999998092651</ele>
        <time>2020-08-08T06:12:47Z</time>
      </trkpt>
      <trkpt lat="43.7535" lon="-1.3721">
        <ele>-6.1999998092651</ele>
        <time>2020-08-08T06:12:51Z</time>
      </trkpt>
      <trkpt lat="43.75343" lon="-1.37193">
        <ele>-6.1999998092651</ele>
        <time>2020-08-08T06:12:55Z</time>
      </trkpt>
      <trkpt lat="43.75334" lon="-1.37174">
        <ele>-6.1999998092651</ele>
        <time>2020-08-08T06:13:01Z</time>
      </trkpt>
      <trkpt lat="43.75332" lon="-1.37168">
        <ele>-6.1999998092651</ele>
        <time>2020-08-08T06:13:05Z</time>
      </trkpt>
      <trkpt lat="43.75332" lon="-1.37168">
        <ele>-6.1999998092651</ele>
        <time>2020-08-08T06:13:17Z</time>
      </trkpt>
      <trkpt lat="43.75332" lon="-1.37168">
        <ele>-6.1999998092651</ele>
        <time>2020-08-08T06:13:32Z</time>
      </trkpt>
      <trkpt lat="43.75331" lon="-1.37166">
        <ele>-6.1999998092651</ele>
        <time>2020-08-08T06:13:41Z</time>
      </trkpt>
      <trkpt lat="43.75325" lon="-1.37165">
        <ele>-6.1999998092651</ele>
        <time>2020-08-08T06:13:49Z</time>
      </trkpt>
      <trkpt lat="43.7531" lon="-1.37164">
        <ele>-6.1999998092651</ele>
        <time>2020-08-08T06:13:55Z</time>
      </trkpt>
      <trkpt lat="43.75296" lon="-1.37156">
        <ele>-6.1999998092651</ele>
        <time>2020-08-08T06:13:59Z</time>
      </trkpt>
      <trkpt lat="43.75271" lon="-1.37137">
        <ele>-6.1999998092651</ele>
        <time>2020-08-08T06:14:06Z</time>
      </trkpt>
      <trkpt lat="43.75252" lon="-1.37122">
        <ele>-6.1999998092651</ele>
        <time>2020-08-08T06:14:12Z</time>
      </trkpt>
      <trkpt lat="43.75238" lon="-1.37106">
        <ele>-6.1999998092651</ele>
        <time>2020-08-08T06:14:17Z</time>
      </trkpt>
      <trkpt lat="43.75225" lon="-1.37101">
        <ele>-6.1999998092651</ele>
        <time>2020-08-08T06:14:21Z</time>
      </trkpt>
      <trkpt lat="43.75212" lon="-1.3709">
        <ele>-6.1999998092651</ele>
        <time>2020-08-08T06:14:25Z</time>
      </trkpt>
      <trkpt lat="43.75199" lon="-1.37084">
        <ele>-6.1999998092651</ele>
        <time>2020-08-08T06:14:29Z</time>
      </trkpt>
      <trkpt lat="43.7518" lon="-1.37081">
        <ele>-6.1999998092651</ele>
        <time>2020-08-08T06:14:34Z</time>
      </trkpt>
      <trkpt lat="43.75162" lon="-1.37076">
        <ele>-6.1999998092651</ele>
        <time>2020-08-08T06:14:39Z</time>
      </trkpt>
      <trkpt lat="43.75143" lon="-1.37063">
        <ele>-6.1999998092651</ele>
        <time>2020-08-08T06:14:44Z</time>
      </trkpt>
      <trkpt lat="43.75134" lon="-1.37058">
        <ele>-6.1999998092651</ele>
        <time>2020-08-08T06:14:46Z</time>
      </trkpt>
      <trkpt lat="43.75122" lon="-1.3705">
        <ele>-6.1999998092651</ele>
        <time>2020-08-08T06:14:49Z</time>
      </trkpt>
      <trkpt lat="43.75109" lon="-1.37044">
        <ele>-6.1999998092651</ele>
        <time>2020-08-08T06:14:53Z</time>
      </trkpt>
      <trkpt lat="43.75094" lon="-1.37044">
        <ele>-6.1999998092651</ele>
        <time>2020-08-08T06:14:58Z</time>
      </trkpt>
      <trkpt lat="43.75078" lon="-1.37049">
        <ele>-6.1999998092651</ele>
        <time>2020-08-08T06:15:04Z</time>
      </trkpt>
      <trkpt lat="43.75064" lon="-1.37048">
        <ele>-6.1999998092651</ele>
        <time>2020-08-08T06:15:09Z</time>
      </trkpt>
      <trkpt lat="43.75042" lon="-1.37047">
        <ele>-6.1999998092651</ele>
        <time>2020-08-08T06:15:14Z</time>
      </trkpt>
      <trkpt lat="43.7502" lon="-1.37037">
        <ele>-6.1999998092651</ele>
        <time>2020-08-08T06:15:20Z</time>
      </trkpt>
      <trkpt lat="43.75002" lon="-1.37021">
        <ele>-6.1999998092651</ele>
        <time>2020-08-08T06:15:25Z</time>
      </trkpt>
      <trkpt lat="43.74986" lon="-1.37007">
        <ele>-6.1999998092651</ele>
        <time>2020-08-08T06:15:30Z</time>
      </trkpt>
      <trkpt lat="43.7497" lon="-1.36993">
        <ele>-6.1999998092651</ele>
        <time>2020-08-08T06:15:35Z</time>
      </trkpt>
      <trkpt lat="43.74953" lon="-1.36989">
        <ele>-6.1999998092651</ele>
        <time>2020-08-08T06:15:40Z</time>
      </trkpt>
      <trkpt lat="43.74952" lon="-1.36991">
        <ele>-6.1999998092651</ele>
        <time>2020-08-08T06:15:41Z</time>
      </trkpt>
      <trkpt lat="43.74951" lon="-1.36992">
        <ele>-6.1999998092651</ele>
        <time>2020-08-08T06:15:43Z</time>
      </trkpt>
      <trkpt lat="43.74951" lon="-1.36992">
        <ele>-6.1999998092651</ele>
        <time>2020-08-08T06:15:51Z</time>
      </trkpt>
      <trkpt lat="43.74951" lon="-1.36998">
        <ele>-6.1999998092651</ele>
        <time>2020-08-08T06:15:56Z</time>
      </trkpt>
      <trkpt lat="43.7495" lon="-1.37001">
        <ele>-6.1999998092651</ele>
        <time>2020-08-08T06:15:57Z</time>
      </trkpt>
      <trkpt lat="43.74948" lon="-1.37019">
        <ele>-6.1999998092651</ele>
        <time>2020-08-08T06:16:02Z</time>
      </trkpt>
      <trkpt lat="43.74947" lon="-1.37033">
        <ele>-6.1999998092651</ele>
        <time>2020-08-08T06:16:06Z</time>
      </trkpt>
      <trkpt lat="43.74945" lon="-1.37041">
        <ele>-6.1999998092651</ele>
        <time>2020-08-08T06:16:08Z</time>
      </trkpt>
      <trkpt lat="43.74944" lon="-1.37053">
        <ele>-6.1999998092651</ele>
        <time>2020-08-08T06:16:11Z</time>
      </trkpt>
      <trkpt lat="43.74942" lon="-1.37068">
        <ele>-5.8000001907349</ele>
        <time>2020-08-08T06:16:15Z</time>
      </trkpt>
      <trkpt lat="43.74942" lon="-1.37074">
        <ele>-5.1999998092651</ele>
        <time>2020-08-08T06:16:16Z</time>
      </trkpt>
      <trkpt lat="43.74942" lon="-1.37079">
        <ele>-4.8000001907349</ele>
        <time>2020-08-08T06:16:17Z</time>
      </trkpt>
      <trkpt lat="43.74942" lon="-1.37083">
        <ele>-4.4000000953674</ele>
        <time>2020-08-08T06:16:18Z</time>
      </trkpt>
      <trkpt lat="43.74942" lon="-1.37086">
        <ele>-4</ele>
        <time>2020-08-08T06:16:19Z</time>
      </trkpt>
      <trkpt lat="43.74941" lon="-1.3709">
        <ele>-4</ele>
        <time>2020-08-08T06:16:20Z</time>
      </trkpt>
      <trkpt lat="43.74937" lon="-1.37106">
        <ele>-4</ele>
        <time>2020-08-08T06:16:25Z</time>
      </trkpt>
      <trkpt lat="43.74937" lon="-1.37106">
        <ele>-4</ele>
        <time>2020-08-08T06:16:35Z</time>
      </trkpt>
      <trkpt lat="43.74937" lon="-1.37108">
        <ele>-4</ele>
        <time>2020-08-08T06:16:43Z</time>
      </trkpt>
      <trkpt lat="43.74937" lon="-1.37108">
        <ele>-4</ele>
        <time>2020-08-08T06:16:54Z</time>
      </trkpt>
      <trkpt lat="43.74937" lon="-1.37108">
        <ele>-4</ele>
        <time>2020-08-08T06:17:09Z</time>
      </trkpt>
      <trkpt lat="43.74937" lon="-1.37108">
        <ele>-4</ele>
        <time>2020-08-08T06:17:23Z</time>
      </trkpt>
      <trkpt lat="43.74937" lon="-1.37108">
        <ele>-4</ele>
        <time>2020-08-08T06:17:35Z</time>
      </trkpt>
      <trkpt lat="43.74937" lon="-1.37111">
        <ele>-4</ele>
        <time>2020-08-08T06:17:42Z</time>
      </trkpt>
      <trkpt lat="43.74936" lon="-1.37122">
        <ele>-4</ele>
        <time>2020-08-08T06:17:46Z</time>
      </trkpt>
      <trkpt lat="43.74936" lon="-1.37126">
        <ele>-4</ele>
        <time>2020-08-08T06:17:47Z</time>
      </trkpt>
      <trkpt lat="43.74933" lon="-1.37144">
        <ele>-4</ele>
        <time>2020-08-08T06:17:52Z</time>
      </trkpt>
      <trkpt lat="43.74929" lon="-1.37161">
        <ele>-4</ele>
        <time>2020-08-08T06:17:56Z</time>
      </trkpt>
      <trkpt lat="43.74928" lon="-1.37165">
        <ele>-4</ele>
        <time>2020-08-08T06:17:57Z</time>
      </trkpt>
      <trkpt lat="43.74928" lon="-1.37194">
        <ele>-4</ele>
        <time>2020-08-08T06:18:03Z</time>
      </trkpt>
      <trkpt lat="43.7493" lon="-1.37223">
        <ele>-4</ele>
        <time>2020-08-08T06:18:09Z</time>
      </trkpt>
      <trkpt lat="43.74932" lon="-1.37246">
        <ele>-4</ele>
        <time>2020-08-08T06:18:14Z</time>
      </trkpt>
      <trkpt lat="43.74933" lon="-1.37266">
        <ele>-4</ele>
        <time>2020-08-08T06:18:19Z</time>
      </trkpt>
      <trkpt lat="43.74931" lon="-1.37287">
        <ele>-4</ele>
        <time>2020-08-08T06:18:25Z</time>
      </trkpt>
      <trkpt lat="43.74926" lon="-1.37299">
        <ele>-4</ele>
        <time>2020-08-08T06:18:29Z</time>
      </trkpt>
      <trkpt lat="43.74923" lon="-1.37305">
        <ele>-4</ele>
        <time>2020-08-08T06:18:31Z</time>
      </trkpt>
      <trkpt lat="43.74916" lon="-1.3732">
        <ele>-4</ele>
        <time>2020-08-08T06:18:36Z</time>
      </trkpt>
      <trkpt lat="43.74907" lon="-1.3734">
        <ele>-4</ele>
        <time>2020-08-08T06:18:42Z</time>
      </trkpt>
      <trkpt lat="43.74905" lon="-1.37355">
        <ele>-4</ele>
        <time>2020-08-08T06:18:47Z</time>
      </trkpt>
      <trkpt lat="43.74907" lon="-1.37379">
        <ele>-4</ele>
        <time>2020-08-08T06:18:54Z</time>
      </trkpt>
      <trkpt lat="43.7491" lon="-1.37398">
        <ele>-4</ele>
        <time>2020-08-08T06:18:59Z</time>
      </trkpt>
      <trkpt lat="43.74913" lon="-1.37424">
        <ele>-4</ele>
        <time>2020-08-08T06:19:04Z</time>
      </trkpt>
      <trkpt lat="43.74915" lon="-1.37445">
        <ele>-4</ele>
        <time>2020-08-08T06:19:09Z</time>
      </trkpt>
      <trkpt lat="43.74915" lon="-1.37449">
        <ele>-4</ele>
        <time>2020-08-08T06:19:10Z</time>
      </trkpt>
      <trkpt lat="43.74917" lon="-1.37465">
        <ele>-4</ele>
        <time>2020-08-08T06:19:13Z</time>
      </trkpt>
      <trkpt lat="43.7492" lon="-1.37478">
        <ele>-4</ele>
        <time>2020-08-08T06:19:16Z</time>
      </trkpt>
      <trkpt lat="43.74925" lon="-1.37496">
        <ele>-4</ele>
        <time>2020-08-08T06:19:20Z</time>
      </trkpt>
      <trkpt lat="43.74928" lon="-1.37522">
        <ele>-4</ele>
        <time>2020-08-08T06:19:26Z</time>
      </trkpt>
      <trkpt lat="43.74929" lon="-1.37547">
        <ele>-4</ele>
        <time>2020-08-08T06:19:32Z</time>
      </trkpt>
      <trkpt lat="43.74929" lon="-1.37577">
        <ele>-4</ele>
        <time>2020-08-08T06:19:39Z</time>
      </trkpt>
      <trkpt lat="43.74931" lon="-1.37603">
        <ele>-4</ele>
        <time>2020-08-08T06:19:45Z</time>
      </trkpt>
      <trkpt lat="43.74934" lon="-1.37629">
        <ele>-4</ele>
        <time>2020-08-08T06:19:51Z</time>
      </trkpt>
      <trkpt lat="43.74936" lon="-1.37655">
        <ele>-4</ele>
        <time>2020-08-08T06:19:57Z</time>
      </trkpt>
      <trkpt lat="43.7494" lon="-1.37683">
        <ele>-4</ele>
        <time>2020-08-08T06:20:04Z</time>
      </trkpt>
      <trkpt lat="43.74942" lon="-1.37698">
        <ele>-4</ele>
        <time>2020-08-08T06:20:09Z</time>
      </trkpt>
      <trkpt lat="43.74942" lon="-1.37716">
        <ele>-4</ele>
        <time>2020-08-08T06:20:14Z</time>
      </trkpt>
      <trkpt lat="43.74942" lon="-1.37727">
        <ele>-4</ele>
        <time>2020-08-08T06:20:17Z</time>
      </trkpt>
      <trkpt lat="43.74942" lon="-1.3773">
        <ele>-4</ele>
        <time>2020-08-08T06:20:19Z</time>
      </trkpt>
      <trkpt lat="43.74941" lon="-1.37731">
        <ele>-4</ele>
        <time>2020-08-08T06:20:29Z</time>
      </trkpt>
      <trkpt lat="43.74944" lon="-1.37732">
        <ele>-4</ele>
        <time>2020-08-08T06:20:33Z</time>
      </trkpt>
      <trkpt lat="43.74946" lon="-1.37732">
        <ele>-4</ele>
        <time>2020-08-08T06:20:34Z</time>
      </trkpt>
      <trkpt lat="43.74953" lon="-1.37721">
        <ele>-4</ele>
        <time>2020-08-08T06:20:39Z</time>
      </trkpt>
      <trkpt lat="43.74968" lon="-1.37706">
        <ele>-4</ele>
        <time>2020-08-08T06:20:45Z</time>
      </trkpt>
      <trkpt lat="43.74985" lon="-1.3768">
        <ele>-4</ele>
        <time>2020-08-08T06:20:53Z</time>
      </trkpt>
      <trkpt lat="43.74994" lon="-1.37666">
        <ele>-4</ele>
        <time>2020-08-08T06:20:58Z</time>
      </trkpt>
      <trkpt lat="43.75002" lon="-1.37646">
        <ele>-4.4000000953674</ele>
        <time>2020-08-08T06:21:04Z</time>
      </trkpt>
      <trkpt lat="43.75003" lon="-1.37642">
        <ele>-5</ele>
        <time>2020-08-08T06:21:05Z</time>
      </trkpt>
      <trkpt lat="43.75004" lon="-1.37639">
        <ele>-5.4000000953674</ele>
        <time>2020-08-08T06:21:06Z</time>
      </trkpt>
      <trkpt lat="43.75005" lon="-1.37635">
        <ele>-5.8000001907349</ele>
        <time>2020-08-08T06:21:07Z</time>
      </trkpt>
      <trkpt lat="43.75006" lon="-1.37631">
        <ele>-6.1999998092651</ele>
        <time>2020-08-08T06:21:08Z</time>
      </trkpt>
      <trkpt lat="43.75008" lon="-1.37622">
        <ele>-6.1999998092651</ele>
        <time>2020-08-08T06:21:10Z</time>
      </trkpt>
      <trkpt lat="43.75017" lon="-1.37611">
        <ele>-6.1999998092651</ele>
        <time>2020-08-08T06:21:14Z</time>
      </trkpt>
      <trkpt lat="43.75019" lon="-1.3761">
        <ele>-6.1999998092651</ele>
        <time>2020-08-08T06:21:15Z</time>
      </trkpt>
      <trkpt lat="43.75026" lon="-1.37606">
        <ele>-6.1999998092651</ele>
        <time>2020-08-08T06:21:18Z</time>
      </trkpt>
      <trkpt lat="43.75038" lon="-1.3759">
        <ele>-6.1999998092651</ele>
        <time>2020-08-08T06:21:24Z</time>
      </trkpt>
      <trkpt lat="43.75054" lon="-1.37565">
        <ele>-6.1999998092651</ele>
        <time>2020-08-08T06:21:31Z</time>
      </trkpt>
      <trkpt lat="43.75065" lon="-1.37543">
        <ele>-6.1999998092651</ele>
        <time>2020-08-08T06:21:37Z</time>
      </trkpt>
      <trkpt lat="43.75078" lon="-1.3752">
        <ele>-6.1999998092651</ele>
        <time>2020-08-08T06:21:44Z</time>
      </trkpt>
      <trkpt lat="43.75091" lon="-1.37506">
        <ele>-6.1999998092651</ele>
        <time>2020-08-08T06:21:51Z</time>
      </trkpt>
      <trkpt lat="43.75103" lon="-1.37497">
        <ele>-6.1999998092651</ele>
        <time>2020-08-08T06:21:56Z</time>
      </trkpt>
      <trkpt lat="43.75118" lon="-1.37485">
        <ele>-6.1999998092651</ele>
        <time>2020-08-08T06:22:02Z</time>
      </trkpt>
      <trkpt lat="43.75133" lon="-1.37478">
        <ele>-6.1999998092651</ele>
        <time>2020-08-08T06:22:08Z</time>
      </trkpt>
      <trkpt lat="43.75147" lon="-1.37473">
        <ele>-6.1999998092651</ele>
        <time>2020-08-08T06:22:13Z</time>
      </trkpt>
      <trkpt lat="43.7516" lon="-1.37464">
        <ele>-6.1999998092651</ele>
        <time>2020-08-08T06:22:18Z</time>
      </trkpt>
      <trkpt lat="43.75174" lon="-1.3745">
        <ele>-6.1999998092651</ele>
        <time>2020-08-08T06:22:24Z</time>
      </trkpt>
      <trkpt lat="43.75188" lon="-1.37437">
        <ele>-6.1999998092651</ele>
        <time>2020-08-08T06:22:29Z</time>
      </trkpt>
      <trkpt lat="43.75191" lon="-1.37435">
        <ele>-6.1999998092651</ele>
        <time>2020-08-08T06:22:30Z</time>
      </trkpt>
      <trkpt lat="43.752" lon="-1.37426">
        <ele>-6.1999998092651</ele>
        <time>2020-08-08T06:22:33Z</time>
      </trkpt>
      <trkpt lat="43.75206" lon="-1.3742">
        <ele>-6.1999998092651</ele>
        <time>2020-08-08T06:22:35Z</time>
      </trkpt>
      <trkpt lat="43.75218" lon="-1.37403">
        <ele>-6.1999998092651</ele>
        <time>2020-08-08T06:22:40Z</time>
      </trkpt>
      <trkpt lat="43.75228" lon="-1.37381">
        <ele>-6.1999998092651</ele>
        <time>2020-08-08T06:22:45Z</time>
      </trkpt>
      <trkpt lat="43.75235" lon="-1.37353">
        <ele>-6.1999998092651</ele>
        <time>2020-08-08T06:22:51Z</time>
      </trkpt>
      <trkpt lat="43.75247" lon="-1.37331">
        <ele>-6.1999998092651</ele>
        <time>2020-08-08T06:22:57Z</time>
      </trkpt>
      <trkpt lat="43.7525" lon="-1.37326">
        <ele>-6.1999998092651</ele>
        <time>2020-08-08T06:22:59Z</time>
      </trkpt>
      <trkpt lat="43.75252" lon="-1.3732">
        <ele>-6.1999998092651</ele>
        <time>2020-08-08T06:23:01Z</time>
      </trkpt>
      <trkpt lat="43.75256" lon="-1.37308">
        <ele>-6.1999998092651</ele>
        <time>2020-08-08T06:23:05Z</time>
      </trkpt>
      <trkpt lat="43.75256" lon="-1.373">
        <ele>-6.1999998092651</ele>
        <time>2020-08-08T06:23:07Z</time>
      </trkpt>
      <trkpt lat="43.75255" lon="-1.37283">
        <ele>-6.1999998092651</ele>
        <time>2020-08-08T06:23:12Z</time>
      </trkpt>
      <trkpt lat="43.75257" lon="-1.37268">
        <ele>-6.1999998092651</ele>
        <time>2020-08-08T06:23:18Z</time>
      </trkpt>
      <trkpt lat="43.75256" lon="-1.37261">
        <ele>-6.1999998092651</ele>
        <time>2020-08-08T06:23:21Z</time>
      </trkpt>
      <trkpt lat="43.75257" lon="-1.37256">
        <ele>-6.1999998092651</ele>
        <time>2020-08-08T06:23:23Z</time>
      </trkpt>
      <trkpt lat="43.75257" lon="-1.37252">
        <ele>-6.1999998092651</ele>
        <time>2020-08-08T06:23:25Z</time>
      </trkpt>
      <trkpt lat="43.75256" lon="-1.37247">
        <ele>-6.1999998092651</ele>
        <time>2020-08-08T06:23:28Z</time>
      </trkpt>
      <trkpt lat="43.75256" lon="-1.37242">
        <ele>-6.1999998092651</ele>
        <time>2020-08-08T06:23:36Z</time>
      </trkpt>
      <trkpt lat="43.75255" lon="-1.37243">
        <ele>-6.1999998092651</ele>
        <time>2020-08-08T06:23:43Z</time>
      </trkpt>
      <trkpt lat="43.75255" lon="-1.37244">
        <ele>-6.1999998092651</ele>
        <time>2020-08-08T06:23:44Z</time>
      </trkpt>
      <trkpt lat="43.75256" lon="-1.37253">
        <ele>-6.1999998092651</ele>
        <time>2020-08-08T06:23:48Z</time>
      </trkpt>
      <trkpt lat="43.75256" lon="-1.3727">
        <ele>-6.1999998092651</ele>
        <time>2020-08-08T06:23:53Z</time>
      </trkpt>
      <trkpt lat="43.75256" lon="-1.37287">
        <ele>-6.1999998092651</ele>
        <time>2020-08-08T06:23:58Z</time>
      </trkpt>
      <trkpt lat="43.75254" lon="-1.37309">
        <ele>-6.1999998092651</ele>
        <time>2020-08-08T06:24:05Z</time>
      </trkpt>
      <trkpt lat="43.75246" lon="-1.37327">
        <ele>-6.1999998092651</ele>
        <time>2020-08-08T06:24:11Z</time>
      </trkpt>
      <trkpt lat="43.75239" lon="-1.37339">
        <ele>-6.1999998092651</ele>
        <time>2020-08-08T06:24:16Z</time>
      </trkpt>
      <trkpt lat="43.75234" lon="-1.37356">
        <ele>-6.5999999046326</ele>
        <time>2020-08-08T06:24:22Z</time>
      </trkpt>
      <trkpt lat="43.75233" lon="-1.37359">
        <ele>-7</ele>
        <time>2020-08-08T06:24:23Z</time>
      </trkpt>
      <trkpt lat="43.75232" lon="-1.37361">
        <ele>-7.4000000953674</ele>
        <time>2020-08-08T06:24:24Z</time>
      </trkpt>
      <trkpt lat="43.75232" lon="-1.37364">
        <ele>-7.8000001907349</ele>
        <time>2020-08-08T06:24:25Z</time>
      </trkpt>
      <trkpt lat="43.75231" lon="-1.37366">
        <ele>-8.1999998092651</ele>
        <time>2020-08-08T06:24:26Z</time>
      </trkpt>
      <trkpt lat="43.75231" lon="-1.37366">
        <ele>-8.1999998092651</ele>
        <time>2020-08-08T06:24:27Z</time>
      </trkpt>
      <trkpt lat="43.7523" lon="-1.37378">
        <ele>-8.1999998092651</ele>
        <time>2020-08-08T06:24:32Z</time>
      </trkpt>
      <trkpt lat="43.7522" lon="-1.37396">
        <ele>-8.1999998092651</ele>
        <time>2020-08-08T06:24:37Z</time>
      </trkpt>
      <trkpt lat="43.7521" lon="-1.37408">
        <ele>-8.1999998092651</ele>
        <time>2020-08-08T06:24:42Z</time>
      </trkpt>
      <trkpt lat="43.75202" lon="-1.3742">
        <ele>-8.1999998092651</ele>
        <time>2020-08-08T06:24:46Z</time>
      </trkpt>
      <trkpt lat="43.75189" lon="-1.37439">
        <ele>-8.1999998092651</ele>
        <time>2020-08-08T06:24:52Z</time>
      </trkpt>
      <trkpt lat="43.75175" lon="-1.37454">
        <ele>-8.1999998092651</ele>
        <time>2020-08-08T06:24:57Z</time>
      </trkpt>
      <trkpt lat="43.75159" lon="-1.37468">
        <ele>-8.1999998092651</ele>
        <time>2020-08-08T06:25:03Z</time>
      </trkpt>
      <trkpt lat="43.75145" lon="-1.37473">
        <ele>-8.1999998092651</ele>
        <time>2020-08-08T06:25:08Z</time>
      </trkpt>
      <trkpt lat="43.75127" lon="-1.37479">
        <ele>-8.1999998092651</ele>
        <time>2020-08-08T06:25:14Z</time>
      </trkpt>
      <trkpt lat="43.75117" lon="-1.37485">
        <ele>-8.1999998092651</ele>
        <time>2020-08-08T06:25:17Z</time>
      </trkpt>
      <trkpt lat="43.75111" lon="-1.37492">
        <ele>-8.1999998092651</ele>
        <time>2020-08-08T06:25:20Z</time>
      </trkpt>
      <trkpt lat="43.75104" lon="-1.37496">
        <ele>-8.1999998092651</ele>
        <time>2020-08-08T06:25:25Z</time>
      </trkpt>
      <trkpt lat="43.75104" lon="-1.37496">
        <ele>-8.1999998092651</ele>
        <time>2020-08-08T06:25:37Z</time>
      </trkpt>
      <trkpt lat="43.75094" lon="-1.37503">
        <ele>-8.1999998092651</ele>
        <time>2020-08-08T06:25:43Z</time>
      </trkpt>
      <trkpt lat="43.75084" lon="-1.37514">
        <ele>-8.1999998092651</ele>
        <time>2020-08-08T06:25:48Z</time>
      </trkpt>
      <trkpt lat="43.75074" lon="-1.37527">
        <ele>-8.1999998092651</ele>
        <time>2020-08-08T06:25:54Z</time>
      </trkpt>
      <trkpt lat="43.75065" lon="-1.37542">
        <ele>-8.1999998092651</ele>
        <time>2020-08-08T06:26:00Z</time>
      </trkpt>
      <trkpt lat="43.75055" lon="-1.37562">
        <ele>-8.1999998092651</ele>
        <time>2020-08-08T06:26:07Z</time>
      </trkpt>
      <trkpt lat="43.75042" lon="-1.37584">
        <ele>-8.1999998092651</ele>
        <time>2020-08-08T06:26:14Z</time>
      </trkpt>
      <trkpt lat="43.75031" lon="-1.37601">
        <ele>-8.1999998092651</ele>
        <time>2020-08-08T06:26:20Z</time>
      </trkpt>
      <trkpt lat="43.75017" lon="-1.37612">
        <ele>-8.1999998092651</ele>
        <time>2020-08-08T06:26:26Z</time>
      </trkpt>
      <trkpt lat="43.75011" lon="-1.37616">
        <ele>-8.1999998092651</ele>
        <time>2020-08-08T06:26:31Z</time>
      </trkpt>
      <trkpt lat="43.75011" lon="-1.37616">
        <ele>-8.1999998092651</ele>
        <time>2020-08-08T06:26:40Z</time>
      </trkpt>
      <trkpt lat="43.75009" lon="-1.37618">
        <ele>-8.1999998092651</ele>
        <time>2020-08-08T06:26:54Z</time>
      </trkpt>
      <trkpt lat="43.75003" lon="-1.37631">
        <ele>-8.1999998092651</ele>
        <time>2020-08-08T06:26:59Z</time>
      </trkpt>
      <trkpt lat="43.75002" lon="-1.37634">
        <ele>-8.1999998092651</ele>
        <time>2020-08-08T06:27:00Z</time>
      </trkpt>
      <trkpt lat="43.74997" lon="-1.37653">
        <ele>-8.1999998092651</ele>
        <time>2020-08-08T06:27:06Z</time>
      </trkpt>
      <trkpt lat="43.74984" lon="-1.37677">
        <ele>-8.1999998092651</ele>
        <time>2020-08-08T06:27:13Z</time>
      </trkpt>
      <trkpt lat="43.74968" lon="-1.37702">
        <ele>-8.1999998092651</ele>
        <time>2020-08-08T06:27:21Z</time>
      </trkpt>
      <trkpt lat="43.74951" lon="-1.37722">
        <ele>-8.1999998092651</ele>
        <time>2020-08-08T06:27:29Z</time>
      </trkpt>
      <trkpt lat="43.74943" lon="-1.37732">
        <ele>-8.1999998092651</ele>
        <time>2020-08-08T06:27:34Z</time>
      </trkpt>
      <trkpt lat="43.74934" lon="-1.37749">
        <ele>-8.1999998092651</ele>
        <time>2020-08-08T06:27:42Z</time>
      </trkpt>
      <trkpt lat="43.74931" lon="-1.37768">
        <ele>-8.1999998092651</ele>
        <time>2020-08-08T06:27:48Z</time>
      </trkpt>
      <trkpt lat="43.74932" lon="-1.37788">
        <ele>-8.1999998092651</ele>
        <time>2020-08-08T06:27:53Z</time>
      </trkpt>
      <trkpt lat="43.74928" lon="-1.37813">
        <ele>-7.8000001907349</ele>
        <time>2020-08-08T06:27:59Z</time>
      </trkpt>
      <trkpt lat="43.74927" lon="-1.37817">
        <ele>-7.4000000953674</ele>
        <time>2020-08-08T06:28:00Z</time>
      </trkpt>
      <trkpt lat="43.74926" lon="-1.3782">
        <ele>-7</ele>
        <time>2020-08-08T06:28:01Z</time>
      </trkpt>
      <trkpt lat="43.74924" lon="-1.37824">
        <ele>-6.5999999046326</ele>
        <time>2020-08-08T06:28:02Z</time>
      </trkpt>
      <trkpt lat="43.74923" lon="-1.37827">
        <ele>-6.1999998092651</ele>
        <time>2020-08-08T06:28:03Z</time>
      </trkpt>
      <trkpt lat="43.7492" lon="-1.37836">
        <ele>-6.1999998092651</ele>
        <time>2020-08-08T06:28:06Z</time>
      </trkpt>
      <trkpt lat="43.74914" lon="-1.37851">
        <ele>-6.1999998092651</ele>
        <time>2020-08-08T06:28:11Z</time>
      </trkpt>
      <trkpt lat="43.74909" lon="-1.37868">
        <ele>-6.1999998092651</ele>
        <time>2020-08-08T06:28:17Z</time>
      </trkpt>
      <trkpt lat="43.74909" lon="-1.37887">
        <ele>-6.1999998092651</ele>
        <time>2020-08-08T06:28:23Z</time>
      </trkpt>
      <trkpt lat="43.74908" lon="-1.37889">
        <ele>-6.1999998092651</ele>
        <time>2020-08-08T06:28:27Z</time>
      </trkpt>
      <trkpt lat="43.74908" lon="-1.3789">
        <ele>-6.1999998092651</ele>
        <time>2020-08-08T06:28:34Z</time>
      </trkpt>
      <trkpt lat="43.74909" lon="-1.37894">
        <ele>-6.1999998092651</ele>
        <time>2020-08-08T06:28:41Z</time>
      </trkpt>
      <trkpt lat="43.74908" lon="-1.37894">
        <ele>-6.1999998092651</ele>
        <time>2020-08-08T06:28:52Z</time>
      </trkpt>
      <trkpt lat="43.74909" lon="-1.379">
        <ele>-6.1999998092651</ele>
        <time>2020-08-08T06:29:00Z</time>
      </trkpt>
      <trkpt lat="43.74909" lon="-1.37911">
        <ele>-6.1999998092651</ele>
        <time>2020-08-08T06:29:08Z</time>
      </trkpt>
      <trkpt lat="43.74909" lon="-1.37911">
        <ele>-6.1999998092651</ele>
        <time>2020-08-08T06:29:17Z</time>
      </trkpt>
      <trkpt lat="43.74911" lon="-1.37918">
        <ele>-6.1999998092651</ele>
        <time>2020-08-08T06:29:23Z</time>
      </trkpt>
      <trkpt lat="43.74917" lon="-1.37939">
        <ele>-6.1999998092651</ele>
        <time>2020-08-08T06:29:30Z</time>
      </trkpt>
      <trkpt lat="43.7492" lon="-1.37953">
        <ele>-6.1999998092651</ele>
        <time>2020-08-08T06:29:36Z</time>
      </trkpt>
      <trkpt lat="43.74921" lon="-1.37961">
        <ele>-6.1999998092651</ele>
        <time>2020-08-08T06:29:43Z</time>
      </trkpt>
      <trkpt lat="43.74921" lon="-1.37969">
        <ele>-6.1999998092651</ele>
        <time>2020-08-08T06:29:49Z</time>
      </trkpt>
      <trkpt lat="43.7492" lon="-1.37976">
        <ele>-6.1999998092651</ele>
        <time>2020-08-08T06:29:56Z</time>
      </trkpt>
      <trkpt lat="43.74919" lon="-1.37981">
        <ele>-6.1999998092651</ele>
        <time>2020-08-08T06:30:02Z</time>
      </trkpt>
      <trkpt lat="43.74918" lon="-1.37984">
        <ele>-6.1999998092651</ele>
        <time>2020-08-08T06:30:10Z</time>
      </trkpt>
      <trkpt lat="43.74918" lon="-1.37984">
        <ele>-6.1999998092651</ele>
        <time>2020-08-08T06:30:17Z</time>
      </trkpt>
      <trkpt lat="43.74918" lon="-1.37984">
        <ele>-6.1999998092651</ele>
        <time>2020-08-08T06:30:21Z</time>
      </trkpt>
      <trkpt lat="43.74919" lon="-1.37981">
        <ele>-6.1999998092651</ele>
        <time>2020-08-08T06:30:24Z</time>
      </trkpt>
      <trkpt lat="43.74919" lon="-1.3798">
        <ele>-6.1999998092651</ele>
        <time>2020-08-08T06:30:25Z</time>
      </trkpt>
      <trkpt lat="43.74921" lon="-1.37975">
        <ele>-6.1999998092651</ele>
        <time>2020-08-08T06:30:29Z</time>
      </trkpt>
      <trkpt lat="43.74921" lon="-1.37971">
        <ele>-6.1999998092651</ele>
        <time>2020-08-08T06:30:31Z</time>
      </trkpt>
      <trkpt lat="43.74921" lon="-1.37965">
        <ele>-6.1999998092651</ele>
        <time>2020-08-08T06:30:34Z</time>
      </trkpt>
      <trkpt lat="43.74922" lon="-1.37962">
        <ele>-6.1999998092651</ele>
        <time>2020-08-08T06:30:37Z</time>
      </trkpt>
      <trkpt lat="43.74922" lon="-1.37958">
        <ele>-6.1999998092651</ele>
        <time>2020-08-08T06:30:40Z</time>
      </trkpt>
      <trkpt lat="43.74927" lon="-1.37952">
        <ele>-6.1999998092651</ele>
        <time>2020-08-08T06:30:46Z</time>
      </trkpt>
      <trkpt lat="43.74931" lon="-1.3795">
        <ele>-6.1999998092651</ele>
        <time>2020-08-08T06:30:54Z</time>
      </trkpt>
      <trkpt lat="43.74931" lon="-1.3795">
        <ele>-6.1999998092651</ele>
        <time>2020-08-08T06:31:07Z</time>
      </trkpt>
      <trkpt lat="43.74932" lon="-1.3795">
        <ele>-6.1999998092651</ele>
        <time>2020-08-08T06:31:14Z</time>
      </trkpt>
      <trkpt lat="43.74932" lon="-1.3795">
        <ele>-6.1999998092651</ele>
        <time>2020-08-08T06:31:26Z</time>
      </trkpt>
      <trkpt lat="43.74934" lon="-1.3795">
        <ele>-6.1999998092651</ele>
        <time>2020-08-08T06:31:30Z</time>
      </trkpt>
      <trkpt lat="43.74935" lon="-1.37951">
        <ele>-6.1999998092651</ele>
        <time>2020-08-08T06:31:31Z</time>
      </trkpt>
      <trkpt lat="43.74938" lon="-1.37951">
        <ele>-6.1999998092651</ele>
        <time>2020-08-08T06:31:34Z</time>
      </trkpt>
      <trkpt lat="43.74945" lon="-1.37953">
        <ele>-6.1999998092651</ele>
        <time>2020-08-08T06:31:39Z</time>
      </trkpt>
      <trkpt lat="43.74951" lon="-1.37954">
        <ele>-6.1999998092651</ele>
        <time>2020-08-08T06:31:46Z</time>
      </trkpt>
      <trkpt lat="43.74955" lon="-1.37955">
        <ele>-6.1999998092651</ele>
        <time>2020-08-08T06:31:54Z</time>
      </trkpt>
      <trkpt lat="43.7496" lon="-1.37957">
        <ele>-6.1999998092651</ele>
        <time>2020-08-08T06:31:59Z</time>
      </trkpt>
      <trkpt lat="43.74966" lon="-1.37959">
        <ele>-6.1999998092651</ele>
        <time>2020-08-08T06:32:07Z</time>
      </trkpt>
      <trkpt lat="43.74974" lon="-1.37961">
        <ele>-6.5999999046326</ele>
        <time>2020-08-08T06:32:12Z</time>
      </trkpt>
      <trkpt lat="43.74975" lon="-1.37962">
        <ele>-7</ele>
        <time>2020-08-08T06:32:13Z</time>
      </trkpt>
      <trkpt lat="43.74975" lon="-1.37963">
        <ele>-7.4000000953674</ele>
        <time>2020-08-08T06:32:14Z</time>
      </trkpt>
      <trkpt lat="43.74976" lon="-1.37963">
        <ele>-7.8000001907349</ele>
        <time>2020-08-08T06:32:15Z</time>
      </trkpt>
      <trkpt lat="43.74977" lon="-1.37963">
        <ele>-8.1999998092651</ele>
        <time>2020-08-08T06:32:16Z</time>
      </trkpt>
      <trkpt lat="43.74979" lon="-1.37964">
        <ele>-8.1999998092651</ele>
        <time>2020-08-08T06:32:19Z</time>
      </trkpt>
      <trkpt lat="43.74985" lon="-1.37966">
        <ele>-8.1999998092651</ele>
        <time>2020-08-08T06:32:28Z</time>
      </trkpt>
      <trkpt lat="43.74993" lon="-1.37968">
        <ele>-7.4000000953674</ele>
        <time>2020-08-08T06:32:37Z</time>
      </trkpt>
      <trkpt lat="43.74994" lon="-1.37968">
        <ele>-7</ele>
        <time>2020-08-08T06:32:38Z</time>
      </trkpt>
      <trkpt lat="43.74995" lon="-1.37968">
        <ele>-6.5999999046326</ele>
        <time>2020-08-08T06:32:39Z</time>
      </trkpt>
      <trkpt lat="43.74995" lon="-1.37969">
        <ele>-6.1999998092651</ele>
        <time>2020-08-08T06:32:40Z</time>
      </trkpt>
      <trkpt lat="43.75" lon="-1.37969">
        <ele>-6.1999998092651</ele>
        <time>2020-08-08T06:32:45Z</time>
      </trkpt>
      <trkpt lat="43.75008" lon="-1.37971">
        <ele>-6.1999998092651</ele>
        <time>2020-08-08T06:32:53Z</time>
      </trkpt>
      <trkpt lat="43.75016" lon="-1.37974">
        <ele>-6.1999998092651</ele>
        <time>2020-08-08T06:33:01Z</time>
      </trkpt>
      <trkpt lat="43.75027" lon="-1.37977">
        <ele>-6.1999998092651</ele>
        <time>2020-08-08T06:33:10Z</time>
      </trkpt>
      <trkpt lat="43.75035" lon="-1.3798">
        <ele>-6.1999998092651</ele>
        <time>2020-08-08T06:33:17Z</time>
      </trkpt>
      <trkpt lat="43.75042" lon="-1.37984">
        <ele>-6.1999998092651</ele>
        <time>2020-08-08T06:33:25Z</time>
      </trkpt>
      <trkpt lat="43.7505" lon="-1.37985">
        <ele>-6.1999998092651</ele>
        <time>2020-08-08T06:33:32Z</time>
      </trkpt>
      <trkpt lat="43.75059" lon="-1.37989">
        <ele>-6.1999998092651</ele>
        <time>2020-08-08T06:33:42Z</time>
      </trkpt>
      <trkpt lat="43.75065" lon="-1.37992">
        <ele>-6.1999998092651</ele>
        <time>2020-08-08T06:33:49Z</time>
      </trkpt>
      <trkpt lat="43.75071" lon="-1.37995">
        <ele>-6.1999998092651</ele>
        <time>2020-08-08T06:33:57Z</time>
      </trkpt>
      <trkpt lat="43.75073" lon="-1.37995">
        <ele>-5.8000001907349</ele>
        <time>2020-08-08T06:34:00Z</time>
      </trkpt>
      <trkpt lat="43.75074" lon="-1.37995">
        <ele>-5.4000000953674</ele>
        <time>2020-08-08T06:34:01Z</time>
      </trkpt>
      <trkpt lat="43.75075" lon="-1.37995">
        <ele>-5</ele>
        <time>2020-08-08T06:34:02Z</time>
      </trkpt>
      <trkpt lat="43.75075" lon="-1.37995">
        <ele>-4.5999999046326</ele>
        <time>2020-08-08T06:34:03Z</time>
      </trkpt>
      <trkpt lat="43.75076" lon="-1.37995">
        <ele>-4.1999998092651</ele>
        <time>2020-08-08T06:34:04Z</time>
      </trkpt>
      <trkpt lat="43.75078" lon="-1.37996">
        <ele>-4.1999998092651</ele>
        <time>2020-08-08T06:34:07Z</time>
      </trkpt>
      <trkpt lat="43.75085" lon="-1.37999">
        <ele>-4.1999998092651</ele>
        <time>2020-08-08T06:34:16Z</time>
      </trkpt>
      <trkpt lat="43.75091" lon="-1.38003">
        <ele>-4.1999998092651</ele>
        <time>2020-08-08T06:34:24Z</time>
      </trkpt>
      <trkpt lat="43.75096" lon="-1.38007">
        <ele>-4.1999998092651</ele>
        <time>2020-08-08T06:34:31Z</time>
      </trkpt>
      <trkpt lat="43.75099" lon="-1.38012">
        <ele>-4.1999998092651</ele>
        <time>2020-08-08T06:34:39Z</time>
      </trkpt>
      <trkpt lat="43.75105" lon="-1.38015">
        <ele>-4.1999998092651</ele>
        <time>2020-08-08T06:34:46Z</time>
      </trkpt>
      <trkpt lat="43.7511" lon="-1.38019">
        <ele>-4.1999998092651</ele>
        <time>2020-08-08T06:34:53Z</time>
      </trkpt>
      <trkpt lat="43.75116" lon="-1.38023">
        <ele>-4.1999998092651</ele>
        <time>2020-08-08T06:34:59Z</time>
      </trkpt>
      <trkpt lat="43.75118" lon="-1.38024">
        <ele>-4.1999998092651</ele>
        <time>2020-08-08T06:35:01Z</time>
      </trkpt>
      <trkpt lat="43.75125" lon="-1.38029">
        <ele>-4.1999998092651</ele>
        <time>2020-08-08T06:35:08Z</time>
      </trkpt>
      <trkpt lat="43.75132" lon="-1.38034">
        <ele>-4.1999998092651</ele>
        <time>2020-08-08T06:35:16Z</time>
      </trkpt>
      <trkpt lat="43.7514" lon="-1.38039">
        <ele>-4.1999998092651</ele>
        <time>2020-08-08T06:35:24Z</time>
      </trkpt>
      <trkpt lat="43.75145" lon="-1.38043">
        <ele>-4.1999998092651</ele>
        <time>2020-08-08T06:35:31Z</time>
      </trkpt>
      <trkpt lat="43.75152" lon="-1.38048">
        <ele>-4.1999998092651</ele>
        <time>2020-08-08T06:35:38Z</time>
      </trkpt>
      <trkpt lat="43.75152" lon="-1.38048">
        <ele>-4.1999998092651</ele>
        <time>2020-08-08T06:35:46Z</time>
      </trkpt>
      <trkpt lat="43.75153" lon="-1.38047">
        <ele>-4.1999998092651</ele>
        <time>2020-08-08T06:35:52Z</time>
      </trkpt>
      <trkpt lat="43.75156" lon="-1.38042">
        <ele>-4.1999998092651</ele>
        <time>2020-08-08T06:35:59Z</time>
      </trkpt>
      <trkpt lat="43.7516" lon="-1.38025">
        <ele>-4.1999998092651</ele>
        <time>2020-08-08T06:36:04Z</time>
      </trkpt>
      <trkpt lat="43.75169" lon="-1.3801">
        <ele>-4.1999998092651</ele>
        <time>2020-08-08T06:36:09Z</time>
      </trkpt>
      <trkpt lat="43.75176" lon="-1.37993">
        <ele>-4.1999998092651</ele>
        <time>2020-08-08T06:36:14Z</time>
      </trkpt>
      <trkpt lat="43.75181" lon="-1.37979">
        <ele>-4.1999998092651</ele>
        <time>2020-08-08T06:36:19Z</time>
      </trkpt>
      <trkpt lat="43.75182" lon="-1.37975">
        <ele>-4.1999998092651</ele>
        <time>2020-08-08T06:36:24Z</time>
      </trkpt>
      <trkpt lat="43.75183" lon="-1.3797">
        <ele>-4.5999999046326</ele>
        <time>2020-08-08T06:36:27Z</time>
      </trkpt>
      <trkpt lat="43.75184" lon="-1.37967">
        <ele>-5</ele>
        <time>2020-08-08T06:36:28Z</time>
      </trkpt>
      <trkpt lat="43.75185" lon="-1.37964">
        <ele>-5.4000000953674</ele>
        <time>2020-08-08T06:36:29Z</time>
      </trkpt>
      <trkpt lat="43.75186" lon="-1.3796">
        <ele>-5.8000001907349</ele>
        <time>2020-08-08T06:36:30Z</time>
      </trkpt>
      <trkpt lat="43.75186" lon="-1.37957">
        <ele>-6.1999998092651</ele>
        <time>2020-08-08T06:36:31Z</time>
      </trkpt>
      <trkpt lat="43.75189" lon="-1.37947">
        <ele>-6.1999998092651</ele>
        <time>2020-08-08T06:36:35Z</time>
      </trkpt>
      <trkpt lat="43.75189" lon="-1.37944">
        <ele>-6.1999998092651</ele>
        <time>2020-08-08T06:36:38Z</time>
      </trkpt>
      <trkpt lat="43.7519" lon="-1.37941">
        <ele>-6.1999998092651</ele>
        <time>2020-08-08T06:36:40Z</time>
      </trkpt>
      <trkpt lat="43.75193" lon="-1.37933">
        <ele>-6.1999998092651</ele>
        <time>2020-08-08T06:36:44Z</time>
      </trkpt>
      <trkpt lat="43.75196" lon="-1.37927">
        <ele>-6.1999998092651</ele>
        <time>2020-08-08T06:36:46Z</time>
      </trkpt>
      <trkpt lat="43.752" lon="-1.37918">
        <ele>-6.5999999046326</ele>
        <time>2020-08-08T06:36:49Z</time>
      </trkpt>
      <trkpt lat="43.75201" lon="-1.37915">
        <ele>-7</ele>
        <time>2020-08-08T06:36:50Z</time>
      </trkpt>
      <trkpt lat="43.75202" lon="-1.37913">
        <ele>-7.4000000953674</ele>
        <time>2020-08-08T06:36:51Z</time>
      </trkpt>
      <trkpt lat="43.75203" lon="-1.37911">
        <ele>-7.8000001907349</ele>
        <time>2020-08-08T06:36:52Z</time>
      </trkpt>
      <trkpt lat="43.75204" lon="-1.37908">
        <ele>-8.1999998092651</ele>
        <time>2020-08-08T06:36:53Z</time>
      </trkpt>
      <trkpt lat="43.75212" lon="-1.3789">
        <ele>-8.1999998092651</ele>
        <time>2020-08-08T06:36:59Z</time>
      </trkpt>
      <trkpt lat="43.75219" lon="-1.37872">
        <ele>-8.1999998092651</ele>
        <time>2020-08-08T06:37:04Z</time>
      </trkpt>
      <trkpt lat="43.75233" lon="-1.37857">
        <ele>-8.1999998092651</ele>
        <time>2020-08-08T06:37:10Z</time>
      </trkpt>
      <trkpt lat="43.7524" lon="-1.37844">
        <ele>-8.1999998092651</ele>
        <time>2020-08-08T06:37:15Z</time>
      </trkpt>
      <trkpt lat="43.75249" lon="-1.37819">
        <ele>-8.1999998092651</ele>
        <time>2020-08-08T06:37:22Z</time>
      </trkpt>
      <trkpt lat="43.75258" lon="-1.3781">
        <ele>-8.1999998092651</ele>
        <time>2020-08-08T06:37:26Z</time>
      </trkpt>
      <trkpt lat="43.75261" lon="-1.37808">
        <ele>-8.6000003814697</ele>
        <time>2020-08-08T06:37:27Z</time>
      </trkpt>
      <trkpt lat="43.75262" lon="-1.37805">
        <ele>-9.1999998092651</ele>
        <time>2020-08-08T06:37:28Z</time>
      </trkpt>
      <trkpt lat="43.75264" lon="-1.37803">
        <ele>-9.6000003814697</ele>
        <time>2020-08-08T06:37:29Z</time>
      </trkpt>
      <trkpt lat="43.75266" lon="-1.37799">
        <ele>-10</ele>
        <time>2020-08-08T06:37:30Z</time>
      </trkpt>
      <trkpt lat="43.75267" lon="-1.37797">
        <ele>-10.39999961853</ele>
        <time>2020-08-08T06:37:31Z</time>
      </trkpt>
      <trkpt lat="43.75268" lon="-1.37795">
        <ele>-10.39999961853</ele>
        <time>2020-08-08T06:37:32Z</time>
      </trkpt>
      <trkpt lat="43.75268" lon="-1.37794">
        <ele>-10.39999961853</ele>
        <time>2020-08-08T06:37:36Z</time>
      </trkpt>
      <trkpt lat="43.75268" lon="-1.37794">
        <ele>-10.39999961853</ele>
        <time>2020-08-08T06:37:50Z</time>
      </trkpt>
      <trkpt lat="43.75268" lon="-1.37794">
        <ele>-10.39999961853</ele>
        <time>2020-08-08T06:38:02Z</time>
      </trkpt>
      <trkpt lat="43.75268" lon="-1.37794">
        <ele>-10.39999961853</ele>
        <time>2020-08-08T06:38:17Z</time>
      </trkpt>
      <trkpt lat="43.75268" lon="-1.37794">
        <ele>-10.39999961853</ele>
        <time>2020-08-08T06:38:27Z</time>
      </trkpt>
      <trkpt lat="43.75268" lon="-1.37794">
        <ele>-10.39999961853</ele>
        <time>2020-08-08T06:38:35Z</time>
      </trkpt>
      <trkpt lat="43.75269" lon="-1.37793">
        <ele>-10.39999961853</ele>
        <time>2020-08-08T06:38:45Z</time>
      </trkpt>
      <trkpt lat="43.75274" lon="-1.37783">
        <ele>-10.39999961853</ele>
        <time>2020-08-08T06:38:50Z</time>
      </trkpt>
      <trkpt lat="43.75284" lon="-1.37768">
        <ele>-10.39999961853</ele>
        <time>2020-08-08T06:38:56Z</time>
      </trkpt>
      <trkpt lat="43.75292" lon="-1.37756">
        <ele>-10.39999961853</ele>
        <time>2020-08-08T06:39:01Z</time>
      </trkpt>
      <trkpt lat="43.75306" lon="-1.37738">
        <ele>-10.39999961853</ele>
        <time>2020-08-08T06:39:08Z</time>
      </trkpt>
      <trkpt lat="43.75316" lon="-1.37723">
        <ele>-10.39999961853</ele>
        <time>2020-08-08T06:39:14Z</time>
      </trkpt>
      <trkpt lat="43.75327" lon="-1.37709">
        <ele>-10.39999961853</ele>
        <time>2020-08-08T06:39:20Z</time>
      </trkpt>
      <trkpt lat="43.75333" lon="-1.37699">
        <ele>-10.39999961853</ele>
        <time>2020-08-08T06:39:25Z</time>
      </trkpt>
      <trkpt lat="43.7534" lon="-1.37684">
        <ele>-10.39999961853</ele>
        <time>2020-08-08T06:39:30Z</time>
      </trkpt>
      <trkpt lat="43.75348" lon="-1.37673">
        <ele>-10.39999961853</ele>
        <time>2020-08-08T06:39:35Z</time>
      </trkpt>
      <trkpt lat="43.75357" lon="-1.37666">
        <ele>-10.39999961853</ele>
        <time>2020-08-08T06:39:42Z</time>
      </trkpt>
      <trkpt lat="43.7537" lon="-1.37653">
        <ele>-10.39999961853</ele>
        <time>2020-08-08T06:39:47Z</time>
      </trkpt>
      <trkpt lat="43.75392" lon="-1.37636">
        <ele>-10.39999961853</ele>
        <time>2020-08-08T06:39:54Z</time>
      </trkpt>
      <trkpt lat="43.75407" lon="-1.37625">
        <ele>-10.39999961853</ele>
        <time>2020-08-08T06:40:00Z</time>
      </trkpt>
      <trkpt lat="43.75413" lon="-1.3762">
        <ele>-10.39999961853</ele>
        <time>2020-08-08T06:40:04Z</time>
      </trkpt>
      <trkpt lat="43.75431" lon="-1.37609">
        <ele>-10.39999961853</ele>
        <time>2020-08-08T06:40:10Z</time>
      </trkpt>
      <trkpt lat="43.75455" lon="-1.37593">
        <ele>-10.39999961853</ele>
        <time>2020-08-08T06:40:18Z</time>
      </trkpt>
      <trkpt lat="43.75467" lon="-1.37581">
        <ele>-10.39999961853</ele>
        <time>2020-08-08T06:40:23Z</time>
      </trkpt>
      <trkpt lat="43.75485" lon="-1.37569">
        <ele>-10.39999961853</ele>
        <time>2020-08-08T06:40:29Z</time>
      </trkpt>
      <trkpt lat="43.75501" lon="-1.37559">
        <ele>-10.39999961853</ele>
        <time>2020-08-08T06:40:35Z</time>
      </trkpt>
      <trkpt lat="43.75521" lon="-1.37545">
        <ele>-10.39999961853</ele>
        <time>2020-08-08T06:40:42Z</time>
      </trkpt>
      <trkpt lat="43.75541" lon="-1.37532">
        <ele>-10.39999961853</ele>
        <time>2020-08-08T06:40:49Z</time>
      </trkpt>
      <trkpt lat="43.75556" lon="-1.37523">
        <ele>-10.39999961853</ele>
        <time>2020-08-08T06:40:55Z</time>
      </trkpt>
      <trkpt lat="43.75562" lon="-1.37517">
        <ele>-10.39999961853</ele>
        <time>2020-08-08T06:41:00Z</time>
      </trkpt>
      <trkpt lat="43.75569" lon="-1.37512">
        <ele>-10.39999961853</ele>
        <time>2020-08-08T06:41:07Z</time>
      </trkpt>
      <trkpt lat="43.75576" lon="-1.37506">
        <ele>-10.39999961853</ele>
        <time>2020-08-08T06:41:12Z</time>
      </trkpt>
      <trkpt lat="43.75586" lon="-1.37501">
        <ele>-10.39999961853</ele>
        <time>2020-08-08T06:41:18Z</time>
      </trkpt>
      <trkpt lat="43.75593" lon="-1.37499">
        <ele>-10.39999961853</ele>
        <time>2020-08-08T06:41:22Z</time>
      </trkpt>
      <trkpt lat="43.75595" lon="-1.37497">
        <ele>-10.39999961853</ele>
        <time>2020-08-08T06:41:23Z</time>
      </trkpt>
      <trkpt lat="43.756" lon="-1.37496">
        <ele>-10.39999961853</ele>
        <time>2020-08-08T06:41:26Z</time>
      </trkpt>
      <trkpt lat="43.75604" lon="-1.37495">
        <ele>-10.39999961853</ele>
        <time>2020-08-08T06:41:28Z</time>
      </trkpt>
      <trkpt lat="43.75613" lon="-1.37492">
        <ele>-10.39999961853</ele>
        <time>2020-08-08T06:41:35Z</time>
      </trkpt>
      <trkpt lat="43.75617" lon="-1.37491">
        <ele>-10.39999961853</ele>
        <time>2020-08-08T06:41:38Z</time>
      </trkpt>
      <trkpt lat="43.75622" lon="-1.37486">
        <ele>-10.39999961853</ele>
        <time>2020-08-08T06:41:41Z</time>
      </trkpt>
      <trkpt lat="43.7563" lon="-1.37476">
        <ele>-10.39999961853</ele>
        <time>2020-08-08T06:41:45Z</time>
      </trkpt>
      <trkpt lat="43.75631" lon="-1.37473">
        <ele>-10.39999961853</ele>
        <time>2020-08-08T06:41:46Z</time>
      </trkpt>
      <trkpt lat="43.75635" lon="-1.37459">
        <ele>-10.39999961853</ele>
        <time>2020-08-08T06:41:52Z</time>
      </trkpt>
      <trkpt lat="43.7564" lon="-1.37444">
        <ele>-10.39999961853</ele>
        <time>2020-08-08T06:41:58Z</time>
      </trkpt>
      <trkpt lat="43.75648" lon="-1.37425">
        <ele>-10.39999961853</ele>
        <time>2020-08-08T06:42:03Z</time>
      </trkpt>
      <trkpt lat="43.7565" lon="-1.37422">
        <ele>-10.800000190735</ele>
        <time>2020-08-08T06:42:04Z</time>
      </trkpt>
      <trkpt lat="43.75652" lon="-1.3742">
        <ele>-11.199999809265</ele>
        <time>2020-08-08T06:42:05Z</time>
      </trkpt>
      <trkpt lat="43.75653" lon="-1.37417">
        <ele>-11.60000038147</ele>
        <time>2020-08-08T06:42:06Z</time>
      </trkpt>
      <trkpt lat="43.75655" lon="-1.37414">
        <ele>-12</ele>
        <time>2020-08-08T06:42:07Z</time>
      </trkpt>
      <trkpt lat="43.75656" lon="-1.37411">
        <ele>-12.39999961853</ele>
        <time>2020-08-08T06:42:08Z</time>
      </trkpt>
      <trkpt lat="43.75657" lon="-1.37408">
        <ele>-12.39999961853</ele>
        <time>2020-08-08T06:42:09Z</time>
      </trkpt>
      <trkpt lat="43.7566" lon="-1.37395">
        <ele>-12.39999961853</ele>
        <time>2020-08-08T06:42:13Z</time>
      </trkpt>
      <trkpt lat="43.75665" lon="-1.37378">
        <ele>-12.39999961853</ele>
        <time>2020-08-08T06:42:18Z</time>
      </trkpt>
      <trkpt lat="43.75677" lon="-1.37365">
        <ele>-12.39999961853</ele>
        <time>2020-08-08T06:42:23Z</time>
      </trkpt>
      <trkpt lat="43.75686" lon="-1.37358">
        <ele>-12.39999961853</ele>
        <time>2020-08-08T06:42:28Z</time>
      </trkpt>
      <trkpt lat="43.757" lon="-1.37347">
        <ele>-12.39999961853</ele>
        <time>2020-08-08T06:42:34Z</time>
      </trkpt>
      <trkpt lat="43.75709" lon="-1.37337">
        <ele>-12.39999961853</ele>
        <time>2020-08-08T06:42:39Z</time>
      </trkpt>
      <trkpt lat="43.75718" lon="-1.37322">
        <ele>-12.39999961853</ele>
        <time>2020-08-08T06:42:44Z</time>
      </trkpt>
      <trkpt lat="43.7572" lon="-1.37307">
        <ele>-12.39999961853</ele>
        <time>2020-08-08T06:42:49Z</time>
      </trkpt>
      <trkpt lat="43.7572" lon="-1.37302">
        <ele>-12.39999961853</ele>
        <time>2020-08-08T06:42:51Z</time>
      </trkpt>
      <trkpt lat="43.75721" lon="-1.37284">
        <ele>-12.39999961853</ele>
        <time>2020-08-08T06:42:57Z</time>
      </trkpt>
      <trkpt lat="43.7572" lon="-1.37258">
        <ele>-12.39999961853</ele>
        <time>2020-08-08T06:43:03Z</time>
      </trkpt>
      <trkpt lat="43.75722" lon="-1.37218">
        <ele>-12.39999961853</ele>
        <time>2020-08-08T06:43:11Z</time>
      </trkpt>
      <trkpt lat="43.75726" lon="-1.3719">
        <ele>-12.39999961853</ele>
        <time>2020-08-08T06:43:17Z</time>
      </trkpt>
      <trkpt lat="43.75733" lon="-1.37163">
        <ele>-12.39999961853</ele>
        <time>2020-08-08T06:43:23Z</time>
      </trkpt>
      <trkpt lat="43.7574" lon="-1.37138">
        <ele>-12.39999961853</ele>
        <time>2020-08-08T06:43:29Z</time>
      </trkpt>
      <trkpt lat="43.75749" lon="-1.37104">
        <ele>-12.39999961853</ele>
        <time>2020-08-08T06:43:36Z</time>
      </trkpt>
      <trkpt lat="43.75752" lon="-1.37069">
        <ele>-12.39999961853</ele>
        <time>2020-08-08T06:43:44Z</time>
      </trkpt>
      <trkpt lat="43.75753" lon="-1.37038">
        <ele>-12.39999961853</ele>
        <time>2020-08-08T06:43:51Z</time>
      </trkpt>
      <trkpt lat="43.75754" lon="-1.37012">
        <ele>-12.39999961853</ele>
        <time>2020-08-08T06:43:57Z</time>
      </trkpt>
      <trkpt lat="43.75752" lon="-1.36984">
        <ele>-12.39999961853</ele>
        <time>2020-08-08T06:44:03Z</time>
      </trkpt>
      <trkpt lat="43.75748" lon="-1.36949">
        <ele>-12.39999961853</ele>
        <time>2020-08-08T06:44:11Z</time>
      </trkpt>
      <trkpt lat="43.75746" lon="-1.36926">
        <ele>-12.39999961853</ele>
        <time>2020-08-08T06:44:17Z</time>
      </trkpt>
      <trkpt lat="43.75745" lon="-1.36908">
        <ele>-12.39999961853</ele>
        <time>2020-08-08T06:44:23Z</time>
      </trkpt>
      <trkpt lat="43.75744" lon="-1.3689">
        <ele>-12.39999961853</ele>
        <time>2020-08-08T06:44:28Z</time>
      </trkpt>
      <trkpt lat="43.75746" lon="-1.3688">
        <ele>-12.39999961853</ele>
        <time>2020-08-08T06:44:32Z</time>
      </trkpt>
      <trkpt lat="43.75747" lon="-1.36878">
        <ele>-12.39999961853</ele>
        <time>2020-08-08T06:44:33Z</time>
      </trkpt>
      <trkpt lat="43.75757" lon="-1.36858">
        <ele>-12.39999961853</ele>
        <time>2020-08-08T06:44:40Z</time>
      </trkpt>
      <trkpt lat="43.75771" lon="-1.36838">
        <ele>-12.39999961853</ele>
        <time>2020-08-08T06:44:48Z</time>
      </trkpt>
      <trkpt lat="43.75787" lon="-1.36828">
        <ele>-12.39999961853</ele>
        <time>2020-08-08T06:44:55Z</time>
      </trkpt>
      <trkpt lat="43.75799" lon="-1.36824">
        <ele>-12</ele>
        <time>2020-08-08T06:45:00Z</time>
      </trkpt>
      <trkpt lat="43.75802" lon="-1.36822">
        <ele>-11.60000038147</ele>
        <time>2020-08-08T06:45:01Z</time>
      </trkpt>
      <trkpt lat="43.75806" lon="-1.36821">
        <ele>-11.199999809265</ele>
        <time>2020-08-08T06:45:02Z</time>
      </trkpt>
      <trkpt lat="43.75809" lon="-1.3682">
        <ele>-10.800000190735</ele>
        <time>2020-08-08T06:45:03Z</time>
      </trkpt>
      <trkpt lat="43.75813" lon="-1.36818">
        <ele>-10.199999809265</ele>
        <time>2020-08-08T06:45:04Z</time>
      </trkpt>
      <trkpt lat="43.7582" lon="-1.36817">
        <ele>-10.199999809265</ele>
        <time>2020-08-08T06:45:06Z</time>
      </trkpt>
      <trkpt lat="43.75845" lon="-1.36809">
        <ele>-10.199999809265</ele>
        <time>2020-08-08T06:45:13Z</time>
      </trkpt>
      <trkpt lat="43.75868" lon="-1.36803">
        <ele>-10.199999809265</ele>
        <time>2020-08-08T06:45:20Z</time>
      </trkpt>
      <trkpt lat="43.7589" lon="-1.368">
        <ele>-9.8000001907349</ele>
        <time>2020-08-08T06:45:26Z</time>
      </trkpt>
      <trkpt lat="43.75893" lon="-1.36799">
        <ele>-9.3999996185303</ele>
        <time>2020-08-08T06:45:27Z</time>
      </trkpt>
      <trkpt lat="43.75897" lon="-1.36799">
        <ele>-9</ele>
        <time>2020-08-08T06:45:28Z</time>
      </trkpt>
      <trkpt lat="43.759" lon="-1.36798">
        <ele>-8.6000003814697</ele>
        <time>2020-08-08T06:45:29Z</time>
      </trkpt>
      <trkpt lat="43.75904" lon="-1.36798">
        <ele>-8.1999998092651</ele>
        <time>2020-08-08T06:45:30Z</time>
      </trkpt>
      <trkpt lat="43.75915" lon="-1.36795">
        <ele>-8.1999998092651</ele>
        <time>2020-08-08T06:45:33Z</time>
      </trkpt>
      <trkpt lat="43.75936" lon="-1.36788">
        <ele>-8.1999998092651</ele>
        <time>2020-08-08T06:45:40Z</time>
      </trkpt>
      <trkpt lat="43.75955" lon="-1.36785">
        <ele>-8.1999998092651</ele>
        <time>2020-08-08T06:45:45Z</time>
      </trkpt>
      <trkpt lat="43.75969" lon="-1.36796">
        <ele>-8.1999998092651</ele>
        <time>2020-08-08T06:45:49Z</time>
      </trkpt>
      <trkpt lat="43.75983" lon="-1.36816">
        <ele>-8.1999998092651</ele>
        <time>2020-08-08T06:45:54Z</time>
      </trkpt>
      <trkpt lat="43.75997" lon="-1.36826">
        <ele>-8.1999998092651</ele>
        <time>2020-08-08T06:45:58Z</time>
      </trkpt>
      <trkpt lat="43.76001" lon="-1.36828">
        <ele>-8.1999998092651</ele>
        <time>2020-08-08T06:45:59Z</time>
      </trkpt>
      <trkpt lat="43.76022" lon="-1.36838">
        <ele>-8.1999998092651</ele>
        <time>2020-08-08T06:46:03Z</time>
      </trkpt>
      <trkpt lat="43.7603" lon="-1.36848">
        <ele>-8.6000003814697</ele>
        <time>2020-08-08T06:46:05Z</time>
      </trkpt>
      <trkpt lat="43.76033" lon="-1.36853">
        <ele>-9.1999998092651</ele>
        <time>2020-08-08T06:46:06Z</time>
      </trkpt>
      <trkpt lat="43.76036" lon="-1.36859">
        <ele>-9.6000003814697</ele>
        <time>2020-08-08T06:46:07Z</time>
      </trkpt>
      <trkpt lat="43.76039" lon="-1.36864">
        <ele>-10</ele>
        <time>2020-08-08T06:46:08Z</time>
      </trkpt>
      <trkpt lat="43.76042" lon="-1.3687">
        <ele>-10.39999961853</ele>
        <time>2020-08-08T06:46:09Z</time>
      </trkpt>
      <trkpt lat="43.76056" lon="-1.36892">
        <ele>-10.39999961853</ele>
        <time>2020-08-08T06:46:13Z</time>
      </trkpt>
      <trkpt lat="43.76065" lon="-1.36907">
        <ele>-10.39999961853</ele>
        <time>2020-08-08T06:46:16Z</time>
      </trkpt>
      <trkpt lat="43.76071" lon="-1.36922">
        <ele>-10.39999961853</ele>
        <time>2020-08-08T06:46:19Z</time>
      </trkpt>
      <trkpt lat="43.76072" lon="-1.36928">
        <ele>-10.39999961853</ele>
        <time>2020-08-08T06:46:20Z</time>
      </trkpt>
      <trkpt lat="43.76072" lon="-1.36947">
        <ele>-10.39999961853</ele>
        <time>2020-08-08T06:46:23Z</time>
      </trkpt>
      <trkpt lat="43.7607" lon="-1.36958">
        <ele>-10.39999961853</ele>
        <time>2020-08-08T06:46:25Z</time>
      </trkpt>
      <trkpt lat="43.76068" lon="-1.36968">
        <ele>-10.800000190735</ele>
        <time>2020-08-08T06:46:27Z</time>
      </trkpt>
      <trkpt lat="43.76067" lon="-1.36971">
        <ele>-11.199999809265</ele>
        <time>2020-08-08T06:46:28Z</time>
      </trkpt>
      <trkpt lat="43.76068" lon="-1.36973">
        <ele>-11.60000038147</ele>
        <time>2020-08-08T06:46:29Z</time>
      </trkpt>
      <trkpt lat="43.76068" lon="-1.36975">
        <ele>-12</ele>
        <time>2020-08-08T06:46:30Z</time>
      </trkpt>
      <trkpt lat="43.76068" lon="-1.36975">
        <ele>-12.39999961853</ele>
        <time>2020-08-08T06:46:31Z</time>
      </trkpt>
      <trkpt lat="43.76067" lon="-1.36976">
        <ele>-12.39999961853</ele>
        <time>2020-08-08T06:46:32Z</time>
      </trkpt>
      <trkpt lat="43.76067" lon="-1.36978">
        <ele>-12.39999961853</ele>
        <time>2020-08-08T06:46:38Z</time>
      </trkpt>
      <trkpt lat="43.76066" lon="-1.36989">
        <ele>-12.39999961853</ele>
        <time>2020-08-08T06:46:45Z</time>
      </trkpt>
      <trkpt lat="43.76066" lon="-1.36995">
        <ele>-12.39999961853</ele>
        <time>2020-08-08T06:46:51Z</time>
      </trkpt>
      <trkpt lat="43.76065" lon="-1.37006">
        <ele>-12.39999961853</ele>
        <time>2020-08-08T06:46:58Z</time>
      </trkpt>
      <trkpt lat="43.76065" lon="-1.37012">
        <ele>-12</ele>
        <time>2020-08-08T06:47:04Z</time>
      </trkpt>
      <trkpt lat="43.76065" lon="-1.37013">
        <ele>-11.60000038147</ele>
        <time>2020-08-08T06:47:05Z</time>
      </trkpt>
      <trkpt lat="43.76065" lon="-1.37016">
        <ele>-11.199999809265</ele>
        <time>2020-08-08T06:47:06Z</time>
      </trkpt>
      <trkpt lat="43.76065" lon="-1.37018">
        <ele>-10.800000190735</ele>
        <time>2020-08-08T06:47:07Z</time>
      </trkpt>
      <trkpt lat="43.76064" lon="-1.37019">
        <ele>-10.39999961853</ele>
        <time>2020-08-08T06:47:08Z</time>
      </trkpt>
      <trkpt lat="43.76064" lon="-1.37022">
        <ele>-10.39999961853</ele>
        <time>2020-08-08T06:47:10Z</time>
      </trkpt>
      <trkpt lat="43.76064" lon="-1.37031">
        <ele>-10.39999961853</ele>
        <time>2020-08-08T06:47:16Z</time>
      </trkpt>
      <trkpt lat="43.76063" lon="-1.37041">
        <ele>-10.39999961853</ele>
        <time>2020-08-08T06:47:24Z</time>
      </trkpt>
      <trkpt lat="43.76064" lon="-1.37045">
        <ele>-10.39999961853</ele>
        <time>2020-08-08T06:47:31Z</time>
      </trkpt>
      <trkpt lat="43.76065" lon="-1.37054">
        <ele>-10.39999961853</ele>
        <time>2020-08-08T06:47:38Z</time>
      </trkpt>
      <trkpt lat="43.76065" lon="-1.37063">
        <ele>-10</ele>
        <time>2020-08-08T06:47:45Z</time>
      </trkpt>
      <trkpt lat="43.76065" lon="-1.37065">
        <ele>-9.6000003814697</ele>
        <time>2020-08-08T06:47:46Z</time>
      </trkpt>
      <trkpt lat="43.76065" lon="-1.37066">
        <ele>-9.1999998092651</ele>
        <time>2020-08-08T06:47:47Z</time>
      </trkpt>
      <trkpt lat="43.76065" lon="-1.37067">
        <ele>-8.8000001907349</ele>
        <time>2020-08-08T06:47:48Z</time>
      </trkpt>
      <trkpt lat="43.76065" lon="-1.37067">
        <ele>-8.3999996185303</ele>
        <time>2020-08-08T06:47:49Z</time>
      </trkpt>
      <trkpt lat="43.76065" lon="-1.3707">
        <ele>-8.3999996185303</ele>
        <time>2020-08-08T06:47:51Z</time>
      </trkpt>
      <trkpt lat="43.76062" lon="-1.37078">
        <ele>-8.3999996185303</ele>
        <time>2020-08-08T06:47:58Z</time>
      </trkpt>
      <trkpt lat="43.7606" lon="-1.37084">
        <ele>-8.3999996185303</ele>
        <time>2020-08-08T06:48:05Z</time>
      </trkpt>
      <trkpt lat="43.76057" lon="-1.37089">
        <ele>-8.3999996185303</ele>
        <time>2020-08-08T06:48:11Z</time>
      </trkpt>
      <trkpt lat="43.76056" lon="-1.37092">
        <ele>-8.3999996185303</ele>
        <time>2020-08-08T06:48:19Z</time>
      </trkpt>
      <trkpt lat="43.76053" lon="-1.37098">
        <ele>-8.3999996185303</ele>
        <time>2020-08-08T06:48:26Z</time>
      </trkpt>
      <trkpt lat="43.76048" lon="-1.37104">
        <ele>-8.3999996185303</ele>
        <time>2020-08-08T06:48:32Z</time>
      </trkpt>
      <trkpt lat="43.76046" lon="-1.37108">
        <ele>-8.3999996185303</ele>
        <time>2020-08-08T06:48:37Z</time>
      </trkpt>
      <trkpt lat="43.76044" lon="-1.3711">
        <ele>-8</ele>
        <time>2020-08-08T06:48:39Z</time>
      </trkpt>
      <trkpt lat="43.76044" lon="-1.37111">
        <ele>-7.5999999046326</ele>
        <time>2020-08-08T06:48:40Z</time>
      </trkpt>
      <trkpt lat="43.76042" lon="-1.37113">
        <ele>-7.1999998092651</ele>
        <time>2020-08-08T06:48:41Z</time>
      </trkpt>
      <trkpt lat="43.76042" lon="-1.37113">
        <ele>-6.8000001907349</ele>
        <time>2020-08-08T06:48:42Z</time>
      </trkpt>
      <trkpt lat="43.7604" lon="-1.37114">
        <ele>-6.4000000953674</ele>
        <time>2020-08-08T06:48:43Z</time>
      </trkpt>
      <trkpt lat="43.76038" lon="-1.37116">
        <ele>-6.4000000953674</ele>
        <time>2020-08-08T06:48:45Z</time>
      </trkpt>
      <trkpt lat="43.76037" lon="-1.37117">
        <ele>-6.4000000953674</ele>
        <time>2020-08-08T06:48:46Z</time>
      </trkpt>
      <trkpt lat="43.76031" lon="-1.37121">
        <ele>-6.4000000953674</ele>
        <time>2020-08-08T06:48:52Z</time>
      </trkpt>
      <trkpt lat="43.76024" lon="-1.37127">
        <ele>-6.4000000953674</ele>
        <time>2020-08-08T06:48:59Z</time>
      </trkpt>
      <trkpt lat="43.7602" lon="-1.37137">
        <ele>-6.4000000953674</ele>
        <time>2020-08-08T06:49:07Z</time>
      </trkpt>
      <trkpt lat="43.76016" lon="-1.37149">
        <ele>-6.4000000953674</ele>
        <time>2020-08-08T06:49:15Z</time>
      </trkpt>
      <trkpt lat="43.76013" lon="-1.37161">
        <ele>-6.4000000953674</ele>
        <time>2020-08-08T06:49:22Z</time>
      </trkpt>
      <trkpt lat="43.76011" lon="-1.37167">
        <ele>-6.4000000953674</ele>
        <time>2020-08-08T06:49:29Z</time>
      </trkpt>
      <trkpt lat="43.76011" lon="-1.37167">
        <ele>-6.4000000953674</ele>
        <time>2020-08-08T06:49:40Z</time>
      </trkpt>
      <trkpt lat="43.7601" lon="-1.37169">
        <ele>-6.4000000953674</ele>
        <time>2020-08-08T06:49:46Z</time>
      </trkpt>
      <trkpt lat="43.7601" lon="-1.37169">
        <ele>-6.4000000953674</ele>
        <time>2020-08-08T06:49:59Z</time>
      </trkpt>
      <trkpt lat="43.76009" lon="-1.37174">
        <ele>-6.4000000953674</ele>
        <time>2020-08-08T06:50:07Z</time>
      </trkpt>
      <trkpt lat="43.76008" lon="-1.37185">
        <ele>-6.4000000953674</ele>
        <time>2020-08-08T06:50:14Z</time>
      </trkpt>
      <trkpt lat="43.76007" lon="-1.37192">
        <ele>-6.8000001907349</ele>
        <time>2020-08-08T06:50:19Z</time>
      </trkpt>
      <trkpt lat="43.76007" lon="-1.37193">
        <ele>-7.1999998092651</ele>
        <time>2020-08-08T06:50:20Z</time>
      </trkpt>
      <trkpt lat="43.76007" lon="-1.37194">
        <ele>-7.5999999046326</ele>
        <time>2020-08-08T06:50:21Z</time>
      </trkpt>
      <trkpt lat="43.76006" lon="-1.37196">
        <ele>-8</ele>
        <time>2020-08-08T06:50:22Z</time>
      </trkpt>
      <trkpt lat="43.76006" lon="-1.37197">
        <ele>-8.3999996185303</ele>
        <time>2020-08-08T06:50:23Z</time>
      </trkpt>
      <trkpt lat="43.76006" lon="-1.37205">
        <ele>-8.3999996185303</ele>
        <time>2020-08-08T06:50:29Z</time>
      </trkpt>
      <trkpt lat="43.76006" lon="-1.37208">
        <ele>-8.3999996185303</ele>
        <time>2020-08-08T06:50:31Z</time>
      </trkpt>
      <trkpt lat="43.76005" lon="-1.37216">
        <ele>-8.3999996185303</ele>
        <time>2020-08-08T06:50:36Z</time>
      </trkpt>
      <trkpt lat="43.76005" lon="-1.3723">
        <ele>-8.3999996185303</ele>
        <time>2020-08-08T06:50:44Z</time>
      </trkpt>
      <trkpt lat="43.76005" lon="-1.3724">
        <ele>-8.3999996185303</ele>
        <time>2020-08-08T06:50:51Z</time>
      </trkpt>
      <trkpt lat="43.76005" lon="-1.3725">
        <ele>-8.3999996185303</ele>
        <time>2020-08-08T06:50:57Z</time>
      </trkpt>
      <trkpt lat="43.76005" lon="-1.37253">
        <ele>-8.8000001907349</ele>
        <time>2020-08-08T06:50:59Z</time>
      </trkpt>
      <trkpt lat="43.76005" lon="-1.37254">
        <ele>-9.1999998092651</ele>
        <time>2020-08-08T06:51:00Z</time>
      </trkpt>
      <trkpt lat="43.76005" lon="-1.37256">
        <ele>-9.6000003814697</ele>
        <time>2020-08-08T06:51:01Z</time>
      </trkpt>
      <trkpt lat="43.76005" lon="-1.37258">
        <ele>-10</ele>
        <time>2020-08-08T06:51:02Z</time>
      </trkpt>
      <trkpt lat="43.76006" lon="-1.37259">
        <ele>-10.39999961853</ele>
        <time>2020-08-08T06:51:03Z</time>
      </trkpt>
      <trkpt lat="43.76006" lon="-1.3726">
        <ele>-10.39999961853</ele>
        <time>2020-08-08T06:51:04Z</time>
      </trkpt>
      <trkpt lat="43.76007" lon="-1.37268">
        <ele>-10.39999961853</ele>
        <time>2020-08-08T06:51:09Z</time>
      </trkpt>
      <trkpt lat="43.76007" lon="-1.37275">
        <ele>-10.39999961853</ele>
        <time>2020-08-08T06:51:16Z</time>
      </trkpt>
      <trkpt lat="43.76008" lon="-1.37279">
        <ele>-10.39999961853</ele>
        <time>2020-08-08T06:51:27Z</time>
      </trkpt>
      <trkpt lat="43.76008" lon="-1.37281">
        <ele>-10.39999961853</ele>
        <time>2020-08-08T06:51:28Z</time>
      </trkpt>
      <trkpt lat="43.76011" lon="-1.37287">
        <ele>-10.39999961853</ele>
        <time>2020-08-08T06:51:33Z</time>
      </trkpt>
      <trkpt lat="43.76013" lon="-1.37295">
        <ele>-10.39999961853</ele>
        <time>2020-08-08T06:51:40Z</time>
      </trkpt>
      <trkpt lat="43.76013" lon="-1.37295">
        <ele>-10.800000190735</ele>
        <time>2020-08-08T06:51:44Z</time>
      </trkpt>
      <trkpt lat="43.76013" lon="-1.37295">
        <ele>-11.199999809265</ele>
        <time>2020-08-08T06:51:45Z</time>
      </trkpt>
      <trkpt lat="43.76013" lon="-1.37295">
        <ele>-11.60000038147</ele>
        <time>2020-08-08T06:51:46Z</time>
      </trkpt>
      <trkpt lat="43.76013" lon="-1.37295">
        <ele>-12</ele>
        <time>2020-08-08T06:51:47Z</time>
      </trkpt>
      <trkpt lat="43.76013" lon="-1.37295">
        <ele>-12.39999961853</ele>
        <time>2020-08-08T06:51:48Z</time>
      </trkpt>
      <trkpt lat="43.76013" lon="-1.37295">
        <ele>-12.39999961853</ele>
        <time>2020-08-08T06:51:50Z</time>
      </trkpt>
      <trkpt lat="43.76013" lon="-1.37295">
        <ele>-12.39999961853</ele>
        <time>2020-08-08T06:52:04Z</time>
      </trkpt>
      <trkpt lat="43.76014" lon="-1.37295">
        <ele>-12.39999961853</ele>
        <time>2020-08-08T06:52:20Z</time>
      </trkpt>
      <trkpt lat="43.76014" lon="-1.37295">
        <ele>-12.39999961853</ele>
        <time>2020-08-08T06:52:31Z</time>
      </trkpt>
      <trkpt lat="43.76014" lon="-1.37295">
        <ele>-12.39999961853</ele>
        <time>2020-08-08T06:52:40Z</time>
      </trkpt>
      <trkpt lat="43.76014" lon="-1.37295">
        <ele>-12.39999961853</ele>
        <time>2020-08-08T06:52:51Z</time>
      </trkpt>
      <trkpt lat="43.76014" lon="-1.37297">
        <ele>-12.39999961853</ele>
        <time>2020-08-08T06:52:56Z</time>
      </trkpt>
      <trkpt lat="43.76017" lon="-1.37311">
        <ele>-12.39999961853</ele>
        <time>2020-08-08T06:53:02Z</time>
      </trkpt>
      <trkpt lat="43.76018" lon="-1.37317">
        <ele>-12.39999961853</ele>
        <time>2020-08-08T06:53:04Z</time>
      </trkpt>
      <trkpt lat="43.76021" lon="-1.37327">
        <ele>-12.39999961853</ele>
        <time>2020-08-08T06:53:07Z</time>
      </trkpt>
      <trkpt lat="43.76024" lon="-1.37342">
        <ele>-12.39999961853</ele>
        <time>2020-08-08T06:53:12Z</time>
      </trkpt>
      <trkpt lat="43.76025" lon="-1.37346">
        <ele>-12.39999961853</ele>
        <time>2020-08-08T06:53:13Z</time>
      </trkpt>
      <trkpt lat="43.76031" lon="-1.37373">
        <ele>-12.39999961853</ele>
        <time>2020-08-08T06:53:20Z</time>
      </trkpt>
      <trkpt lat="43.76038" lon="-1.37404">
        <ele>-12.39999961853</ele>
        <time>2020-08-08T06:53:26Z</time>
      </trkpt>
      <trkpt lat="43.76045" lon="-1.37434">
        <ele>-12.39999961853</ele>
        <time>2020-08-08T06:53:32Z</time>
      </trkpt>
      <trkpt lat="43.76046" lon="-1.3745">
        <ele>-12.800000190735</ele>
        <time>2020-08-08T06:53:36Z</time>
      </trkpt>
      <trkpt lat="43.76045" lon="-1.37452">
        <ele>-13.199999809265</ele>
        <time>2020-08-08T06:53:37Z</time>
      </trkpt>
      <trkpt lat="43.76046" lon="-1.37455">
        <ele>-13.60000038147</ele>
        <time>2020-08-08T06:53:38Z</time>
      </trkpt>
      <trkpt lat="43.76046" lon="-1.37458">
        <ele>-14</ele>
        <time>2020-08-08T06:53:39Z</time>
      </trkpt>
      <trkpt lat="43.76046" lon="-1.3746">
        <ele>-14.39999961853</ele>
        <time>2020-08-08T06:53:40Z</time>
      </trkpt>
      <trkpt lat="43.76045" lon="-1.37466">
        <ele>-14.39999961853</ele>
        <time>2020-08-08T06:53:42Z</time>
      </trkpt>
      <trkpt lat="43.76045" lon="-1.37472">
        <ele>-14.39999961853</ele>
        <time>2020-08-08T06:53:44Z</time>
      </trkpt>
      <trkpt lat="43.7604" lon="-1.3748">
        <ele>-14.39999961853</ele>
        <time>2020-08-08T06:53:48Z</time>
      </trkpt>
      <trkpt lat="43.76037" lon="-1.37484">
        <ele>-14.39999961853</ele>
        <time>2020-08-08T06:53:50Z</time>
      </trkpt>
      <trkpt lat="43.76029" lon="-1.37499">
        <ele>-14.39999961853</ele>
        <time>2020-08-08T06:53:55Z</time>
      </trkpt>
      <trkpt lat="43.76022" lon="-1.37516">
        <ele>-14.39999961853</ele>
        <time>2020-08-08T06:54:01Z</time>
      </trkpt>
      <trkpt lat="43.76015" lon="-1.37537">
        <ele>-14.39999961853</ele>
        <time>2020-08-08T06:54:07Z</time>
      </trkpt>
      <trkpt lat="43.76005" lon="-1.37554">
        <ele>-14.39999961853</ele>
        <time>2020-08-08T06:54:12Z</time>
      </trkpt>
      <trkpt lat="43.75996" lon="-1.37572">
        <ele>-14.39999961853</ele>
        <time>2020-08-08T06:54:18Z</time>
      </trkpt>
      <trkpt lat="43.75987" lon="-1.37598">
        <ele>-14.39999961853</ele>
        <time>2020-08-08T06:54:24Z</time>
      </trkpt>
      <trkpt lat="43.75982" lon="-1.37614">
        <ele>-14.39999961853</ele>
        <time>2020-08-08T06:54:29Z</time>
      </trkpt>
      <trkpt lat="43.75978" lon="-1.37637">
        <ele>-14.39999961853</ele>
        <time>2020-08-08T06:54:34Z</time>
      </trkpt>
      <trkpt lat="43.75977" lon="-1.37646">
        <ele>-14.39999961853</ele>
        <time>2020-08-08T06:54:36Z</time>
      </trkpt>
      <trkpt lat="43.75976" lon="-1.37659">
        <ele>-14.39999961853</ele>
        <time>2020-08-08T06:54:40Z</time>
      </trkpt>
      <trkpt lat="43.75974" lon="-1.37681">
        <ele>-14.39999961853</ele>
        <time>2020-08-08T06:54:46Z</time>
      </trkpt>
      <trkpt lat="43.75973" lon="-1.37688">
        <ele>-14.39999961853</ele>
        <time>2020-08-08T06:54:51Z</time>
      </trkpt>
      <trkpt lat="43.75972" lon="-1.37693">
        <ele>-14.39999961853</ele>
        <time>2020-08-08T06:54:57Z</time>
      </trkpt>
      <trkpt lat="43.75972" lon="-1.37693">
        <ele>-14.39999961853</ele>
        <time>2020-08-08T06:55:07Z</time>
      </trkpt>
      <trkpt lat="43.7597" lon="-1.37698">
        <ele>-14.39999961853</ele>
        <time>2020-08-08T06:55:14Z</time>
      </trkpt>
      <trkpt lat="43.75969" lon="-1.37701">
        <ele>-14.39999961853</ele>
        <time>2020-08-08T06:55:15Z</time>
      </trkpt>
      <trkpt lat="43.75968" lon="-1.37714">
        <ele>-14.39999961853</ele>
        <time>2020-08-08T06:55:19Z</time>
      </trkpt>
      <trkpt lat="43.75971" lon="-1.37732">
        <ele>-14.39999961853</ele>
        <time>2020-08-08T06:55:25Z</time>
      </trkpt>
      <trkpt lat="43.75971" lon="-1.37735">
        <ele>-14.39999961853</ele>
        <time>2020-08-08T06:55:26Z</time>
      </trkpt>
      <trkpt lat="43.75975" lon="-1.37747">
        <ele>-14.39999961853</ele>
        <time>2020-08-08T06:55:30Z</time>
      </trkpt>
      <trkpt lat="43.75978" lon="-1.3777">
        <ele>-14.39999961853</ele>
        <time>2020-08-08T06:55:36Z</time>
      </trkpt>
      <trkpt lat="43.75984" lon="-1.37791">
        <ele>-14.39999961853</ele>
        <time>2020-08-08T06:55:42Z</time>
      </trkpt>
      <trkpt lat="43.75994" lon="-1.37807">
        <ele>-14.39999961853</ele>
        <time>2020-08-08T06:55:47Z</time>
      </trkpt>
      <trkpt lat="43.76004" lon="-1.37821">
        <ele>-14.39999961853</ele>
        <time>2020-08-08T06:55:52Z</time>
      </trkpt>
      <trkpt lat="43.76016" lon="-1.3784">
        <ele>-14.39999961853</ele>
        <time>2020-08-08T06:55:58Z</time>
      </trkpt>
      <trkpt lat="43.76028" lon="-1.37861">
        <ele>-14.39999961853</ele>
        <time>2020-08-08T06:56:05Z</time>
      </trkpt>
      <trkpt lat="43.76039" lon="-1.37886">
        <ele>-14.39999961853</ele>
        <time>2020-08-08T06:56:12Z</time>
      </trkpt>
      <trkpt lat="43.76044" lon="-1.37902">
        <ele>-14.39999961853</ele>
        <time>2020-08-08T06:56:17Z</time>
      </trkpt>
      <trkpt lat="43.76051" lon="-1.37924">
        <ele>-14.39999961853</ele>
        <time>2020-08-08T06:56:23Z</time>
      </trkpt>
      <trkpt lat="43.76057" lon="-1.37939">
        <ele>-14.39999961853</ele>
        <time>2020-08-08T06:56:28Z</time>
      </trkpt>
      <trkpt lat="43.76064" lon="-1.37965">
        <ele>-14.39999961853</ele>
        <time>2020-08-08T06:56:34Z</time>
      </trkpt>
      <trkpt lat="43.76066" lon="-1.37988">
        <ele>-14.39999961853</ele>
        <time>2020-08-08T06:56:40Z</time>
      </trkpt>
      <trkpt lat="43.76068" lon="-1.38007">
        <ele>-14.39999961853</ele>
        <time>2020-08-08T06:56:46Z</time>
      </trkpt>
      <trkpt lat="43.7607" lon="-1.38022">
        <ele>-14.39999961853</ele>
        <time>2020-08-08T06:56:51Z</time>
      </trkpt>
      <trkpt lat="43.76065" lon="-1.38039">
        <ele>-14.39999961853</ele>
        <time>2020-08-08T06:56:59Z</time>
      </trkpt>
      <trkpt lat="43.76065" lon="-1.38045">
        <ele>-14.39999961853</ele>
        <time>2020-08-08T06:57:06Z</time>
      </trkpt>
      <trkpt lat="43.76062" lon="-1.38059">
        <ele>-14.39999961853</ele>
        <time>2020-08-08T06:57:11Z</time>
      </trkpt>
      <trkpt lat="43.7606" lon="-1.38082">
        <ele>-14.39999961853</ele>
        <time>2020-08-08T06:57:17Z</time>
      </trkpt>
      <trkpt lat="43.76058" lon="-1.38114">
        <ele>-14.39999961853</ele>
        <time>2020-08-08T06:57:22Z</time>
      </trkpt>
      <trkpt lat="43.7606" lon="-1.38136">
        <ele>-14.39999961853</ele>
        <time>2020-08-08T06:57:28Z</time>
      </trkpt>
      <trkpt lat="43.76066" lon="-1.38153">
        <ele>-14.39999961853</ele>
        <time>2020-08-08T06:57:34Z</time>
      </trkpt>
      <trkpt lat="43.76069" lon="-1.38173">
        <ele>-14.39999961853</ele>
        <time>2020-08-08T06:57:39Z</time>
      </trkpt>
      <trkpt lat="43.7607" lon="-1.38176">
        <ele>-14.39999961853</ele>
        <time>2020-08-08T06:57:40Z</time>
      </trkpt>
      <trkpt lat="43.76076" lon="-1.38189">
        <ele>-14.39999961853</ele>
        <time>2020-08-08T06:57:44Z</time>
      </trkpt>
      <trkpt lat="43.76078" lon="-1.38193">
        <ele>-14.39999961853</ele>
        <time>2020-08-08T06:57:45Z</time>
      </trkpt>
      <trkpt lat="43.76087" lon="-1.38218">
        <ele>-14.39999961853</ele>
        <time>2020-08-08T06:57:51Z</time>
      </trkpt>
      <trkpt lat="43.76094" lon="-1.38248">
        <ele>-14.39999961853</ele>
        <time>2020-08-08T06:57:56Z</time>
      </trkpt>
      <trkpt lat="43.76102" lon="-1.38263">
        <ele>-14</ele>
        <time>2020-08-08T06:58:01Z</time>
      </trkpt>
      <trkpt lat="43.76104" lon="-1.38266">
        <ele>-13.60000038147</ele>
        <time>2020-08-08T06:58:02Z</time>
      </trkpt>
      <trkpt lat="43.76105" lon="-1.38269">
        <ele>-13.199999809265</ele>
        <time>2020-08-08T06:58:03Z</time>
      </trkpt>
      <trkpt lat="43.76107" lon="-1.38272">
        <ele>-12.800000190735</ele>
        <time>2020-08-08T06:58:04Z</time>
      </trkpt>
      <trkpt lat="43.76108" lon="-1.38274">
        <ele>-12.39999961853</ele>
        <time>2020-08-08T06:58:05Z</time>
      </trkpt>
      <trkpt lat="43.76117" lon="-1.38284">
        <ele>-12</ele>
        <time>2020-08-08T06:58:10Z</time>
      </trkpt>
      <trkpt lat="43.76119" lon="-1.38285">
        <ele>-11.60000038147</ele>
        <time>2020-08-08T06:58:11Z</time>
      </trkpt>
      <trkpt lat="43.76121" lon="-1.38287">
        <ele>-11.199999809265</ele>
        <time>2020-08-08T06:58:12Z</time>
      </trkpt>
      <trkpt lat="43.76123" lon="-1.38288">
        <ele>-10.800000190735</ele>
        <time>2020-08-08T06:58:13Z</time>
      </trkpt>
      <trkpt lat="43.76124" lon="-1.3829">
        <ele>-10.39999961853</ele>
        <time>2020-08-08T06:58:14Z</time>
      </trkpt>
      <trkpt lat="43.76128" lon="-1.38295">
        <ele>-10.39999961853</ele>
        <time>2020-08-08T06:58:16Z</time>
      </trkpt>
      <trkpt lat="43.76143" lon="-1.38308">
        <ele>-10.39999961853</ele>
        <time>2020-08-08T06:58:23Z</time>
      </trkpt>
      <trkpt lat="43.76155" lon="-1.38318">
        <ele>-10</ele>
        <time>2020-08-08T06:58:30Z</time>
      </trkpt>
      <trkpt lat="43.76156" lon="-1.3832">
        <ele>-9.6000003814697</ele>
        <time>2020-08-08T06:58:31Z</time>
      </trkpt>
      <trkpt lat="43.76158" lon="-1.38322">
        <ele>-8.8000001907349</ele>
        <time>2020-08-08T06:58:32Z</time>
      </trkpt>
      <trkpt lat="43.76159" lon="-1.38324">
        <ele>-8.1999998092651</ele>
        <time>2020-08-08T06:58:33Z</time>
      </trkpt>
      <trkpt lat="43.76164" lon="-1.38333">
        <ele>-8.1999998092651</ele>
        <time>2020-08-08T06:58:37Z</time>
      </trkpt>
      <trkpt lat="43.76169" lon="-1.38342">
        <ele>-7.8000001907349</ele>
        <time>2020-08-08T06:58:41Z</time>
      </trkpt>
      <trkpt lat="43.76169" lon="-1.38343">
        <ele>-7.4000000953674</ele>
        <time>2020-08-08T06:58:42Z</time>
      </trkpt>
      <trkpt lat="43.7617" lon="-1.38345">
        <ele>-7</ele>
        <time>2020-08-08T06:58:43Z</time>
      </trkpt>
      <trkpt lat="43.76171" lon="-1.38347">
        <ele>-6.5999999046326</ele>
        <time>2020-08-08T06:58:44Z</time>
      </trkpt>
      <trkpt lat="43.76172" lon="-1.3835">
        <ele>-6.1999998092651</ele>
        <time>2020-08-08T06:58:45Z</time>
      </trkpt>
      <trkpt lat="43.76173" lon="-1.38357">
        <ele>-6.1999998092651</ele>
        <time>2020-08-08T06:58:48Z</time>
      </trkpt>
      <trkpt lat="43.76177" lon="-1.38371">
        <ele>-6.1999998092651</ele>
        <time>2020-08-08T06:58:54Z</time>
      </trkpt>
      <trkpt lat="43.76177" lon="-1.38374">
        <ele>-6.1999998092651</ele>
        <time>2020-08-08T06:58:55Z</time>
      </trkpt>
      <trkpt lat="43.76177" lon="-1.38385">
        <ele>-5.8000001907349</ele>
        <time>2020-08-08T06:58:59Z</time>
      </trkpt>
      <trkpt lat="43.76177" lon="-1.38387">
        <ele>-5.4000000953674</ele>
        <time>2020-08-08T06:59:00Z</time>
      </trkpt>
      <trkpt lat="43.76177" lon="-1.3839">
        <ele>-5</ele>
        <time>2020-08-08T06:59:01Z</time>
      </trkpt>
      <trkpt lat="43.76178" lon="-1.38392">
        <ele>-4.5999999046326</ele>
        <time>2020-08-08T06:59:02Z</time>
      </trkpt>
      <trkpt lat="43.76178" lon="-1.38394">
        <ele>-4.1999998092651</ele>
        <time>2020-08-08T06:59:03Z</time>
      </trkpt>
      <trkpt lat="43.76181" lon="-1.38399">
        <ele>-4.1999998092651</ele>
        <time>2020-08-08T06:59:06Z</time>
      </trkpt>
      <trkpt lat="43.76182" lon="-1.38402">
        <ele>-4.1999998092651</ele>
        <time>2020-08-08T06:59:07Z</time>
      </trkpt>
      <trkpt lat="43.76185" lon="-1.38411">
        <ele>-4.1999998092651</ele>
        <time>2020-08-08T06:59:13Z</time>
      </trkpt>
      <trkpt lat="43.76184" lon="-1.38423">
        <ele>-4.1999998092651</ele>
        <time>2020-08-08T06:59:20Z</time>
      </trkpt>
      <trkpt lat="43.76182" lon="-1.38427">
        <ele>-4.1999998092651</ele>
        <time>2020-08-08T06:59:22Z</time>
      </trkpt>
      <trkpt lat="43.76182" lon="-1.3843">
        <ele>-4.5999999046326</ele>
        <time>2020-08-08T06:59:24Z</time>
      </trkpt>
      <trkpt lat="43.76181" lon="-1.38433">
        <ele>-5</ele>
        <time>2020-08-08T06:59:25Z</time>
      </trkpt>
      <trkpt lat="43.7618" lon="-1.38435">
        <ele>-5.4000000953674</ele>
        <time>2020-08-08T06:59:26Z</time>
      </trkpt>
      <trkpt lat="43.76179" lon="-1.38438">
        <ele>-5.8000001907349</ele>
        <time>2020-08-08T06:59:27Z</time>
      </trkpt>
      <trkpt lat="43.76178" lon="-1.38442">
        <ele>-6.1999998092651</ele>
        <time>2020-08-08T06:59:28Z</time>
      </trkpt>
      <trkpt lat="43.76174" lon="-1.38449">
        <ele>-6.1999998092651</ele>
        <time>2020-08-08T06:59:30Z</time>
      </trkpt>
      <trkpt lat="43.76167" lon="-1.3846">
        <ele>-6.1999998092651</ele>
        <time>2020-08-08T06:59:33Z</time>
      </trkpt>
      <trkpt lat="43.76163" lon="-1.38466">
        <ele>-6.5999999046326</ele>
        <time>2020-08-08T06:59:35Z</time>
      </trkpt>
      <trkpt lat="43.76162" lon="-1.38468">
        <ele>-7.1999998092651</ele>
        <time>2020-08-08T06:59:36Z</time>
      </trkpt>
      <trkpt lat="43.76162" lon="-1.38468">
        <ele>-7.5999999046326</ele>
        <time>2020-08-08T06:59:37Z</time>
      </trkpt>
      <trkpt lat="43.76161" lon="-1.3847">
        <ele>-8</ele>
        <time>2020-08-08T06:59:38Z</time>
      </trkpt>
      <trkpt lat="43.76161" lon="-1.3847">
        <ele>-8.6000003814697</ele>
        <time>2020-08-08T06:59:39Z</time>
      </trkpt>
      <trkpt lat="43.76161" lon="-1.3847">
        <ele>-8.6000003814697</ele>
        <time>2020-08-08T06:59:40Z</time>
      </trkpt>
      <trkpt lat="43.76153" lon="-1.38482">
        <ele>-8.6000003814697</ele>
        <time>2020-08-08T06:59:46Z</time>
      </trkpt>
      <trkpt lat="43.76144" lon="-1.38496">
        <ele>-8.6000003814697</ele>
        <time>2020-08-08T06:59:51Z</time>
      </trkpt>
      <trkpt lat="43.7614" lon="-1.38502">
        <ele>-9</ele>
        <time>2020-08-08T06:59:53Z</time>
      </trkpt>
      <trkpt lat="43.76139" lon="-1.38504">
        <ele>-9.3999996185303</ele>
        <time>2020-08-08T06:59:54Z</time>
      </trkpt>
      <trkpt lat="43.76137" lon="-1.38507">
        <ele>-9.8000001907349</ele>
        <time>2020-08-08T06:59:55Z</time>
      </trkpt>
      <trkpt lat="43.76134" lon="-1.3851">
        <ele>-10.199999809265</ele>
        <time>2020-08-08T06:59:56Z</time>
      </trkpt>
      <trkpt lat="43.76133" lon="-1.38513">
        <ele>-10.60000038147</ele>
        <time>2020-08-08T06:59:57Z</time>
      </trkpt>
      <trkpt lat="43.76132" lon="-1.38516">
        <ele>-10.60000038147</ele>
        <time>2020-08-08T06:59:58Z</time>
      </trkpt>
      <trkpt lat="43.7613" lon="-1.38528">
        <ele>-11</ele>
        <time>2020-08-08T07:00:02Z</time>
      </trkpt>
      <trkpt lat="43.7613" lon="-1.38531">
        <ele>-11.60000038147</ele>
        <time>2020-08-08T07:00:03Z</time>
      </trkpt>
      <trkpt lat="43.76131" lon="-1.38536">
        <ele>-12</ele>
        <time>2020-08-08T07:00:04Z</time>
      </trkpt>
      <trkpt lat="43.76131" lon="-1.38539">
        <ele>-12.39999961853</ele>
        <time>2020-08-08T07:00:05Z</time>
      </trkpt>
      <trkpt lat="43.76131" lon="-1.38545">
        <ele>-13</ele>
        <time>2020-08-08T07:00:06Z</time>
      </trkpt>
      <trkpt lat="43.76135" lon="-1.38576">
        <ele>-13.800000190735</ele>
        <time>2020-08-08T07:00:11Z</time>
      </trkpt>
      <trkpt lat="43.76136" lon="-1.38583">
        <ele>-14.199999809265</ele>
        <time>2020-08-08T07:00:12Z</time>
      </trkpt>
      <trkpt lat="43.76137" lon="-1.38588">
        <ele>-14.60000038147</ele>
        <time>2020-08-08T07:00:13Z</time>
      </trkpt>
      <trkpt lat="43.76138" lon="-1.38594">
        <ele>-15</ele>
        <time>2020-08-08T07:00:14Z</time>
      </trkpt>
      <trkpt lat="43.7614" lon="-1.38599">
        <ele>-15</ele>
        <time>2020-08-08T07:00:15Z</time>
      </trkpt>
      <trkpt lat="43.76149" lon="-1.3862">
        <ele>-15</ele>
        <time>2020-08-08T07:00:20Z</time>
      </trkpt>
      <trkpt lat="43.76158" lon="-1.38641">
        <ele>-15</ele>
        <time>2020-08-08T07:00:25Z</time>
      </trkpt>
      <trkpt lat="43.76166" lon="-1.38656">
        <ele>-15</ele>
        <time>2020-08-08T07:00:30Z</time>
      </trkpt>
      <trkpt lat="43.76179" lon="-1.38668">
        <ele>-15</ele>
        <time>2020-08-08T07:00:36Z</time>
      </trkpt>
      <trkpt lat="43.7619" lon="-1.38672">
        <ele>-15</ele>
        <time>2020-08-08T07:00:41Z</time>
      </trkpt>
      <trkpt lat="43.76205" lon="-1.38677">
        <ele>-15</ele>
        <time>2020-08-08T07:00:47Z</time>
      </trkpt>
      <trkpt lat="43.76219" lon="-1.38686">
        <ele>-15</ele>
        <time>2020-08-08T07:00:53Z</time>
      </trkpt>
      <trkpt lat="43.7623" lon="-1.387">
        <ele>-15</ele>
        <time>2020-08-08T07:00:59Z</time>
      </trkpt>
      <trkpt lat="43.76232" lon="-1.38704">
        <ele>-15</ele>
        <time>2020-08-08T07:01:06Z</time>
      </trkpt>
      <trkpt lat="43.76232" lon="-1.38704">
        <ele>-15</ele>
        <time>2020-08-08T07:01:19Z</time>
      </trkpt>
      <trkpt lat="43.76233" lon="-1.38699">
        <ele>-15</ele>
        <time>2020-08-08T07:01:28Z</time>
      </trkpt>
      <trkpt lat="43.76236" lon="-1.38709">
        <ele>-15</ele>
        <time>2020-08-08T07:01:32Z</time>
      </trkpt>
      <trkpt lat="43.76236" lon="-1.3872">
        <ele>-15</ele>
        <time>2020-08-08T07:01:37Z</time>
      </trkpt>
      <trkpt lat="43.76236" lon="-1.38722">
        <ele>-15</ele>
        <time>2020-08-08T07:01:38Z</time>
      </trkpt>
      <trkpt lat="43.76238" lon="-1.38724">
        <ele>-15</ele>
        <time>2020-08-08T07:01:39Z</time>
      </trkpt>
      <trkpt lat="43.7624" lon="-1.3874">
        <ele>-15</ele>
        <time>2020-08-08T07:01:43Z</time>
      </trkpt>
      <trkpt lat="43.76241" lon="-1.38753">
        <ele>-15</ele>
        <time>2020-08-08T07:01:48Z</time>
      </trkpt>
      <trkpt lat="43.76244" lon="-1.38759">
        <ele>-15</ele>
        <time>2020-08-08T07:01:51Z</time>
      </trkpt>
      <trkpt lat="43.76246" lon="-1.38762">
        <ele>-15</ele>
        <time>2020-08-08T07:01:53Z</time>
      </trkpt>
      <trkpt lat="43.76254" lon="-1.38777">
        <ele>-15</ele>
        <time>2020-08-08T07:01:58Z</time>
      </trkpt>
      <trkpt lat="43.76255" lon="-1.38783">
        <ele>-15</ele>
        <time>2020-08-08T07:01:59Z</time>
      </trkpt>
      <trkpt lat="43.76262" lon="-1.38809">
        <ele>-15</ele>
        <time>2020-08-08T07:02:04Z</time>
      </trkpt>
      <trkpt lat="43.76272" lon="-1.38842">
        <ele>-15</ele>
        <time>2020-08-08T07:02:11Z</time>
      </trkpt>
      <trkpt lat="43.76277" lon="-1.38855">
        <ele>-15</ele>
        <time>2020-08-08T07:02:15Z</time>
      </trkpt>
      <trkpt lat="43.76286" lon="-1.38881">
        <ele>-15</ele>
        <time>2020-08-08T07:02:22Z</time>
      </trkpt>
      <trkpt lat="43.7629" lon="-1.389">
        <ele>-15</ele>
        <time>2020-08-08T07:02:27Z</time>
      </trkpt>
      <trkpt lat="43.76293" lon="-1.38922">
        <ele>-15</ele>
        <time>2020-08-08T07:02:33Z</time>
      </trkpt>
      <trkpt lat="43.76299" lon="-1.38943">
        <ele>-15</ele>
        <time>2020-08-08T07:02:39Z</time>
      </trkpt>
      <trkpt lat="43.76303" lon="-1.38957">
        <ele>-15</ele>
        <time>2020-08-08T07:02:46Z</time>
      </trkpt>
      <trkpt lat="43.76303" lon="-1.38958">
        <ele>-15</ele>
        <time>2020-08-08T07:02:55Z</time>
      </trkpt>
      <trkpt lat="43.76303" lon="-1.38959">
        <ele>-15</ele>
        <time>2020-08-08T07:03:08Z</time>
      </trkpt>
      <trkpt lat="43.76303" lon="-1.38959">
        <ele>-15</ele>
        <time>2020-08-08T07:03:16Z</time>
      </trkpt>
      <trkpt lat="43.76303" lon="-1.38959">
        <ele>-15</ele>
        <time>2020-08-08T07:03:23Z</time>
      </trkpt>
      <trkpt lat="43.76299" lon="-1.38959">
        <ele>-15</ele>
        <time>2020-08-08T07:03:27Z</time>
      </trkpt>
      <trkpt lat="43.76297" lon="-1.38959">
        <ele>-15</ele>
        <time>2020-08-08T07:03:28Z</time>
      </trkpt>
      <trkpt lat="43.76296" lon="-1.38957">
        <ele>-15.39999961853</ele>
        <time>2020-08-08T07:03:30Z</time>
      </trkpt>
      <trkpt lat="43.76295" lon="-1.38957">
        <ele>-15.800000190735</ele>
        <time>2020-08-08T07:03:31Z</time>
      </trkpt>
      <trkpt lat="43.76294" lon="-1.38955">
        <ele>-16.200000762939</ele>
        <time>2020-08-08T07:03:32Z</time>
      </trkpt>
      <trkpt lat="43.76293" lon="-1.38954">
        <ele>-16.60000038147</ele>
        <time>2020-08-08T07:03:33Z</time>
      </trkpt>
      <trkpt lat="43.76291" lon="-1.38952">
        <ele>-17</ele>
        <time>2020-08-08T07:03:34Z</time>
      </trkpt>
      <trkpt lat="43.7628" lon="-1.38941">
        <ele>-17</ele>
        <time>2020-08-08T07:03:42Z</time>
      </trkpt>
      <trkpt lat="43.76277" lon="-1.38939">
        <ele>-17</ele>
        <time>2020-08-08T07:03:44Z</time>
      </trkpt>
      <trkpt lat="43.76272" lon="-1.38937">
        <ele>-17</ele>
        <time>2020-08-08T07:03:47Z</time>
      </trkpt>
      <trkpt lat="43.76264" lon="-1.38934">
        <ele>-17</ele>
        <time>2020-08-08T07:03:51Z</time>
      </trkpt>
      <trkpt lat="43.76259" lon="-1.38932">
        <ele>-17</ele>
        <time>2020-08-08T07:03:53Z</time>
      </trkpt>
      <trkpt lat="43.76246" lon="-1.38929">
        <ele>-17</ele>
        <time>2020-08-08T07:03:59Z</time>
      </trkpt>
      <trkpt lat="43.76239" lon="-1.3893">
        <ele>-17</ele>
        <time>2020-08-08T07:04:03Z</time>
      </trkpt>
      <trkpt lat="43.76234" lon="-1.38931">
        <ele>-17</ele>
        <time>2020-08-08T07:04:05Z</time>
      </trkpt>
      <trkpt lat="43.76229" lon="-1.38932">
        <ele>-17</ele>
        <time>2020-08-08T07:04:07Z</time>
      </trkpt>
      <trkpt lat="43.76222" lon="-1.38932">
        <ele>-17</ele>
        <time>2020-08-08T07:04:10Z</time>
      </trkpt>
      <trkpt lat="43.76205" lon="-1.38934">
        <ele>-17</ele>
        <time>2020-08-08T07:04:16Z</time>
      </trkpt>
      <trkpt lat="43.76191" lon="-1.38933">
        <ele>-17</ele>
        <time>2020-08-08T07:04:22Z</time>
      </trkpt>
      <trkpt lat="43.76175" lon="-1.38929">
        <ele>-17</ele>
        <time>2020-08-08T07:04:29Z</time>
      </trkpt>
      <trkpt lat="43.76161" lon="-1.3892">
        <ele>-17</ele>
        <time>2020-08-08T07:04:35Z</time>
      </trkpt>
      <trkpt lat="43.7615" lon="-1.3891">
        <ele>-17</ele>
        <time>2020-08-08T07:04:40Z</time>
      </trkpt>
      <trkpt lat="43.76139" lon="-1.38898">
        <ele>-17</ele>
        <time>2020-08-08T07:04:45Z</time>
      </trkpt>
      <trkpt lat="43.76125" lon="-1.38888">
        <ele>-17</ele>
        <time>2020-08-08T07:04:50Z</time>
      </trkpt>
      <trkpt lat="43.76109" lon="-1.38877">
        <ele>-17</ele>
        <time>2020-08-08T07:04:56Z</time>
      </trkpt>
      <trkpt lat="43.7609" lon="-1.38864">
        <ele>-17</ele>
        <time>2020-08-08T07:05:03Z</time>
      </trkpt>
      <trkpt lat="43.76078" lon="-1.38851">
        <ele>-17</ele>
        <time>2020-08-08T07:05:09Z</time>
      </trkpt>
      <trkpt lat="43.76063" lon="-1.38834">
        <ele>-17</ele>
        <time>2020-08-08T07:05:16Z</time>
      </trkpt>
      <trkpt lat="43.7605" lon="-1.3882">
        <ele>-17</ele>
        <time>2020-08-08T07:05:22Z</time>
      </trkpt>
      <trkpt lat="43.76041" lon="-1.38815">
        <ele>-17</ele>
        <time>2020-08-08T07:05:26Z</time>
      </trkpt>
      <trkpt lat="43.76039" lon="-1.38813">
        <ele>-17</ele>
        <time>2020-08-08T07:05:27Z</time>
      </trkpt>
      <trkpt lat="43.76033" lon="-1.38808">
        <ele>-17</ele>
        <time>2020-08-08T07:05:31Z</time>
      </trkpt>
      <trkpt lat="43.76031" lon="-1.38808">
        <ele>-17</ele>
        <time>2020-08-08T07:05:32Z</time>
      </trkpt>
      <trkpt lat="43.76027" lon="-1.38808">
        <ele>-17</ele>
        <time>2020-08-08T07:05:34Z</time>
      </trkpt>
      <trkpt lat="43.76012" lon="-1.38808">
        <ele>-17</ele>
        <time>2020-08-08T07:05:39Z</time>
      </trkpt>
      <trkpt lat="43.76009" lon="-1.38806">
        <ele>-17</ele>
        <time>2020-08-08T07:05:40Z</time>
      </trkpt>
      <trkpt lat="43.75997" lon="-1.38803">
        <ele>-17</ele>
        <time>2020-08-08T07:05:44Z</time>
      </trkpt>
      <trkpt lat="43.75991" lon="-1.388">
        <ele>-17</ele>
        <time>2020-08-08T07:05:46Z</time>
      </trkpt>
      <trkpt lat="43.7598" lon="-1.38795">
        <ele>-17</ele>
        <time>2020-08-08T07:05:50Z</time>
      </trkpt>
      <trkpt lat="43.75966" lon="-1.38791">
        <ele>-17</ele>
        <time>2020-08-08T07:05:55Z</time>
      </trkpt>
      <trkpt lat="43.75952" lon="-1.38777">
        <ele>-17</ele>
        <time>2020-08-08T07:06:01Z</time>
      </trkpt>
      <trkpt lat="43.75934" lon="-1.38759">
        <ele>-17</ele>
        <time>2020-08-08T07:06:08Z</time>
      </trkpt>
      <trkpt lat="43.7592" lon="-1.38745">
        <ele>-17</ele>
        <time>2020-08-08T07:06:15Z</time>
      </trkpt>
      <trkpt lat="43.75917" lon="-1.38744">
        <ele>-17</ele>
        <time>2020-08-08T07:06:17Z</time>
      </trkpt>
      <trkpt lat="43.75915" lon="-1.38744">
        <ele>-17</ele>
        <time>2020-08-08T07:06:20Z</time>
      </trkpt>
      <trkpt lat="43.75915" lon="-1.38744">
        <ele>-17</ele>
        <time>2020-08-08T07:06:28Z</time>
      </trkpt>
      <trkpt lat="43.75918" lon="-1.38748">
        <ele>-17</ele>
        <time>2020-08-08T07:06:33Z</time>
      </trkpt>
      <trkpt lat="43.75919" lon="-1.38749">
        <ele>-17</ele>
        <time>2020-08-08T07:06:34Z</time>
      </trkpt>
      <trkpt lat="43.7592" lon="-1.38751">
        <ele>-17</ele>
        <time>2020-08-08T07:06:36Z</time>
      </trkpt>
      <trkpt lat="43.7592" lon="-1.38754">
        <ele>-17</ele>
        <time>2020-08-08T07:06:40Z</time>
      </trkpt>
      <trkpt lat="43.75919" lon="-1.38758">
        <ele>-17</ele>
        <time>2020-08-08T07:06:46Z</time>
      </trkpt>
      <trkpt lat="43.7592" lon="-1.38764">
        <ele>-17</ele>
        <time>2020-08-08T07:06:52Z</time>
      </trkpt>
      <trkpt lat="43.75922" lon="-1.38776">
        <ele>-17</ele>
        <time>2020-08-08T07:06:58Z</time>
      </trkpt>
      <trkpt lat="43.75923" lon="-1.38795">
        <ele>-17</ele>
        <time>2020-08-08T07:07:06Z</time>
      </trkpt>
      <trkpt lat="43.75925" lon="-1.38814">
        <ele>-17</ele>
        <time>2020-08-08T07:07:13Z</time>
      </trkpt>
      <trkpt lat="43.75927" lon="-1.38839">
        <ele>-17</ele>
        <time>2020-08-08T07:07:22Z</time>
      </trkpt>
      <trkpt lat="43.75927" lon="-1.38841">
        <ele>-17</ele>
        <time>2020-08-08T07:07:23Z</time>
      </trkpt>
      <trkpt lat="43.75926" lon="-1.38853">
        <ele>-17</ele>
        <time>2020-08-08T07:07:27Z</time>
      </trkpt>
      <trkpt lat="43.75924" lon="-1.38871">
        <ele>-17</ele>
        <time>2020-08-08T07:07:34Z</time>
      </trkpt>
      <trkpt lat="43.75924" lon="-1.38873">
        <ele>-17</ele>
        <time>2020-08-08T07:07:35Z</time>
      </trkpt>
      <trkpt lat="43.75925" lon="-1.38886">
        <ele>-17</ele>
        <time>2020-08-08T07:07:39Z</time>
      </trkpt>
      <trkpt lat="43.75927" lon="-1.38901">
        <ele>-17</ele>
        <time>2020-08-08T07:07:45Z</time>
      </trkpt>
      <trkpt lat="43.75928" lon="-1.38916">
        <ele>-17</ele>
        <time>2020-08-08T07:07:51Z</time>
      </trkpt>
      <trkpt lat="43.75931" lon="-1.38922">
        <ele>-17</ele>
        <time>2020-08-08T07:07:54Z</time>
      </trkpt>
      <trkpt lat="43.75933" lon="-1.38924">
        <ele>-17</ele>
        <time>2020-08-08T07:07:55Z</time>
      </trkpt>
      <trkpt lat="43.75944" lon="-1.38937">
        <ele>-17</ele>
        <time>2020-08-08T07:08:00Z</time>
      </trkpt>
      <trkpt lat="43.75948" lon="-1.38939">
        <ele>-17</ele>
        <time>2020-08-08T07:08:01Z</time>
      </trkpt>
      <trkpt lat="43.75972" lon="-1.38958">
        <ele>-17</ele>
        <time>2020-08-08T07:08:08Z</time>
      </trkpt>
      <trkpt lat="43.75988" lon="-1.38968">
        <ele>-17</ele>
        <time>2020-08-08T07:08:12Z</time>
      </trkpt>
      <trkpt lat="43.75992" lon="-1.3897">
        <ele>-17</ele>
        <time>2020-08-08T07:08:13Z</time>
      </trkpt>
      <trkpt lat="43.76016" lon="-1.38985">
        <ele>-17</ele>
        <time>2020-08-08T07:08:19Z</time>
      </trkpt>
      <trkpt lat="43.76044" lon="-1.39001">
        <ele>-17</ele>
        <time>2020-08-08T07:08:25Z</time>
      </trkpt>
      <trkpt lat="43.76079" lon="-1.39019">
        <ele>-17</ele>
        <time>2020-08-08T07:08:32Z</time>
      </trkpt>
      <trkpt lat="43.76122" lon="-1.39042">
        <ele>-17</ele>
        <time>2020-08-08T07:08:40Z</time>
      </trkpt>
      <trkpt lat="43.76146" lon="-1.39053">
        <ele>-17</ele>
        <time>2020-08-08T07:08:45Z</time>
      </trkpt>
      <trkpt lat="43.76177" lon="-1.39066">
        <ele>-17</ele>
        <time>2020-08-08T07:08:51Z</time>
      </trkpt>
      <trkpt lat="43.76217" lon="-1.39087">
        <ele>-17</ele>
        <time>2020-08-08T07:08:58Z</time>
      </trkpt>
      <trkpt lat="43.76255" lon="-1.39104">
        <ele>-17</ele>
        <time>2020-08-08T07:09:05Z</time>
      </trkpt>
      <trkpt lat="43.76271" lon="-1.39108">
        <ele>-17</ele>
        <time>2020-08-08T07:09:09Z</time>
      </trkpt>
      <trkpt lat="43.76278" lon="-1.39114">
        <ele>-17</ele>
        <time>2020-08-08T07:09:11Z</time>
      </trkpt>
      <trkpt lat="43.7629" lon="-1.39126">
        <ele>-17</ele>
        <time>2020-08-08T07:09:14Z</time>
      </trkpt>
      <trkpt lat="43.76315" lon="-1.3914">
        <ele>-17</ele>
        <time>2020-08-08T07:09:19Z</time>
      </trkpt>
      <trkpt lat="43.76358" lon="-1.39162">
        <ele>-17</ele>
        <time>2020-08-08T07:09:27Z</time>
      </trkpt>
      <trkpt lat="43.76387" lon="-1.39178">
        <ele>-17</ele>
        <time>2020-08-08T07:09:33Z</time>
      </trkpt>
      <trkpt lat="43.76392" lon="-1.39179">
        <ele>-17</ele>
        <time>2020-08-08T07:09:34Z</time>
      </trkpt>
      <trkpt lat="43.764" lon="-1.39187">
        <ele>-17</ele>
        <time>2020-08-08T07:09:37Z</time>
      </trkpt>
      <trkpt lat="43.764" lon="-1.39193">
        <ele>-17</ele>
        <time>2020-08-08T07:09:38Z</time>
      </trkpt>
      <trkpt lat="43.76402" lon="-1.3922">
        <ele>-17</ele>
        <time>2020-08-08T07:09:42Z</time>
      </trkpt>
      <trkpt lat="43.76403" lon="-1.39249">
        <ele>-17</ele>
        <time>2020-08-08T07:09:46Z</time>
      </trkpt>
      <trkpt lat="43.76405" lon="-1.39269">
        <ele>-17</ele>
        <time>2020-08-08T07:09:49Z</time>
      </trkpt>
      <trkpt lat="43.7641" lon="-1.3929">
        <ele>-17</ele>
        <time>2020-08-08T07:09:52Z</time>
      </trkpt>
      <trkpt lat="43.76415" lon="-1.39316">
        <ele>-17</ele>
        <time>2020-08-08T07:09:57Z</time>
      </trkpt>
      <trkpt lat="43.76417" lon="-1.39344">
        <ele>-17</ele>
        <time>2020-08-08T07:10:03Z</time>
      </trkpt>
      <trkpt lat="43.76416" lon="-1.39365">
        <ele>-17</ele>
        <time>2020-08-08T07:10:08Z</time>
      </trkpt>
      <trkpt lat="43.76415" lon="-1.39396">
        <ele>-17</ele>
        <time>2020-08-08T07:10:14Z</time>
      </trkpt>
      <trkpt lat="43.76414" lon="-1.39423">
        <ele>-17</ele>
        <time>2020-08-08T07:10:20Z</time>
      </trkpt>
      <trkpt lat="43.76413" lon="-1.39444">
        <ele>-17</ele>
        <time>2020-08-08T07:10:27Z</time>
      </trkpt>
      <trkpt lat="43.76411" lon="-1.39462">
        <ele>-17</ele>
        <time>2020-08-08T07:10:33Z</time>
      </trkpt>
      <trkpt lat="43.76408" lon="-1.3948">
        <ele>-17</ele>
        <time>2020-08-08T07:10:39Z</time>
      </trkpt>
      <trkpt lat="43.76405" lon="-1.39496">
        <ele>-17</ele>
        <time>2020-08-08T07:10:44Z</time>
      </trkpt>
      <trkpt lat="43.76397" lon="-1.39524">
        <ele>-17</ele>
        <time>2020-08-08T07:10:51Z</time>
      </trkpt>
      <trkpt lat="43.76393" lon="-1.3955">
        <ele>-17</ele>
        <time>2020-08-08T07:10:58Z</time>
      </trkpt>
      <trkpt lat="43.76393" lon="-1.39566">
        <ele>-17</ele>
        <time>2020-08-08T07:11:04Z</time>
      </trkpt>
      <trkpt lat="43.76392" lon="-1.39575">
        <ele>-17.39999961853</ele>
        <time>2020-08-08T07:11:09Z</time>
      </trkpt>
      <trkpt lat="43.76392" lon="-1.39575">
        <ele>-17.799999237061</ele>
        <time>2020-08-08T07:11:10Z</time>
      </trkpt>
      <trkpt lat="43.76392" lon="-1.39574">
        <ele>-18.200000762939</ele>
        <time>2020-08-08T07:11:11Z</time>
      </trkpt>
      <trkpt lat="43.76392" lon="-1.39574">
        <ele>-18.60000038147</ele>
        <time>2020-08-08T07:11:12Z</time>
      </trkpt>
      <trkpt lat="43.76392" lon="-1.39575">
        <ele>-19</ele>
        <time>2020-08-08T07:11:13Z</time>
      </trkpt>
      <trkpt lat="43.76392" lon="-1.39576">
        <ele>-19</ele>
        <time>2020-08-08T07:11:14Z</time>
      </trkpt>
      <trkpt lat="43.7639" lon="-1.39583">
        <ele>-19</ele>
        <time>2020-08-08T07:11:18Z</time>
      </trkpt>
      <trkpt lat="43.76387" lon="-1.39586">
        <ele>-19</ele>
        <time>2020-08-08T07:11:21Z</time>
      </trkpt>
      <trkpt lat="43.76384" lon="-1.3959">
        <ele>-19</ele>
        <time>2020-08-08T07:11:26Z</time>
      </trkpt>
      <trkpt lat="43.76383" lon="-1.39591">
        <ele>-19</ele>
        <time>2020-08-08T07:11:30Z</time>
      </trkpt>
      <trkpt lat="43.76382" lon="-1.39592">
        <ele>-19</ele>
        <time>2020-08-08T07:11:31Z</time>
      </trkpt>
      <trkpt lat="43.7637" lon="-1.39601">
        <ele>-19</ele>
        <time>2020-08-08T07:11:37Z</time>
      </trkpt>
      <trkpt lat="43.76362" lon="-1.39607">
        <ele>-19</ele>
        <time>2020-08-08T07:11:41Z</time>
      </trkpt>
      <trkpt lat="43.76349" lon="-1.39628">
        <ele>-19</ele>
        <time>2020-08-08T07:11:47Z</time>
      </trkpt>
      <trkpt lat="43.76338" lon="-1.39656">
        <ele>-19</ele>
        <time>2020-08-08T07:11:54Z</time>
      </trkpt>
      <trkpt lat="43.7633" lon="-1.39678">
        <ele>-19</ele>
        <time>2020-08-08T07:12:00Z</time>
      </trkpt>
      <trkpt lat="43.76327" lon="-1.3969">
        <ele>-19</ele>
        <time>2020-08-08T07:12:05Z</time>
      </trkpt>
      <trkpt lat="43.76326" lon="-1.39691">
        <ele>-19</ele>
        <time>2020-08-08T07:12:10Z</time>
      </trkpt>
      <trkpt lat="43.76324" lon="-1.39691">
        <ele>-19</ele>
        <time>2020-08-08T07:12:17Z</time>
      </trkpt>
      <trkpt lat="43.76323" lon="-1.39685">
        <ele>-19</ele>
        <time>2020-08-08T07:12:23Z</time>
      </trkpt>
      <trkpt lat="43.76316" lon="-1.39672">
        <ele>-19</ele>
        <time>2020-08-08T07:12:29Z</time>
      </trkpt>
      <trkpt lat="43.76311" lon="-1.39664">
        <ele>-19</ele>
        <time>2020-08-08T07:12:35Z</time>
      </trkpt>
      <trkpt lat="43.76311" lon="-1.39663">
        <ele>-19</ele>
        <time>2020-08-08T07:12:40Z</time>
      </trkpt>
      <trkpt lat="43.76313" lon="-1.39666">
        <ele>-19</ele>
        <time>2020-08-08T07:12:45Z</time>
      </trkpt>
      <trkpt lat="43.76315" lon="-1.39668">
        <ele>-19</ele>
        <time>2020-08-08T07:12:50Z</time>
      </trkpt>
      <trkpt lat="43.76317" lon="-1.3967">
        <ele>-19</ele>
        <time>2020-08-08T07:12:52Z</time>
      </trkpt>
      <trkpt lat="43.76319" lon="-1.39677">
        <ele>-19</ele>
        <time>2020-08-08T07:12:55Z</time>
      </trkpt>
      <trkpt lat="43.76325" lon="-1.39699">
        <ele>-19</ele>
        <time>2020-08-08T07:13:03Z</time>
      </trkpt>
      <trkpt lat="43.76325" lon="-1.39721">
        <ele>-19</ele>
        <time>2020-08-08T07:13:10Z</time>
      </trkpt>
      <trkpt lat="43.76324" lon="-1.39733">
        <ele>-19</ele>
        <time>2020-08-08T07:13:14Z</time>
      </trkpt>
      <trkpt lat="43.76323" lon="-1.39735">
        <ele>-19</ele>
        <time>2020-08-08T07:13:15Z</time>
      </trkpt>
      <trkpt lat="43.7632" lon="-1.39747">
        <ele>-19</ele>
        <time>2020-08-08T07:13:19Z</time>
      </trkpt>
      <trkpt lat="43.76318" lon="-1.39756">
        <ele>-19</ele>
        <time>2020-08-08T07:13:21Z</time>
      </trkpt>
      <trkpt lat="43.76311" lon="-1.3977">
        <ele>-19</ele>
        <time>2020-08-08T07:13:26Z</time>
      </trkpt>
      <trkpt lat="43.76298" lon="-1.39785">
        <ele>-19</ele>
        <time>2020-08-08T07:13:32Z</time>
      </trkpt>
      <trkpt lat="43.7628" lon="-1.39802">
        <ele>-19</ele>
        <time>2020-08-08T07:13:38Z</time>
      </trkpt>
      <trkpt lat="43.76262" lon="-1.39817">
        <ele>-19</ele>
        <time>2020-08-08T07:13:44Z</time>
      </trkpt>
      <trkpt lat="43.76248" lon="-1.39824">
        <ele>-19</ele>
        <time>2020-08-08T07:13:49Z</time>
      </trkpt>
      <trkpt lat="43.7623" lon="-1.39837">
        <ele>-19</ele>
        <time>2020-08-08T07:13:56Z</time>
      </trkpt>
      <trkpt lat="43.76209" lon="-1.3985">
        <ele>-19</ele>
        <time>2020-08-08T07:14:02Z</time>
      </trkpt>
      <trkpt lat="43.76194" lon="-1.3986">
        <ele>-19</ele>
        <time>2020-08-08T07:14:07Z</time>
      </trkpt>
      <trkpt lat="43.76177" lon="-1.39866">
        <ele>-19</ele>
        <time>2020-08-08T07:14:12Z</time>
      </trkpt>
      <trkpt lat="43.76174" lon="-1.39868">
        <ele>-19</ele>
        <time>2020-08-08T07:14:13Z</time>
      </trkpt>
      <trkpt lat="43.76164" lon="-1.39874">
        <ele>-19</ele>
        <time>2020-08-08T07:14:16Z</time>
      </trkpt>
      <trkpt lat="43.76145" lon="-1.39882">
        <ele>-19</ele>
        <time>2020-08-08T07:14:22Z</time>
      </trkpt>
      <trkpt lat="43.76121" lon="-1.39896">
        <ele>-19</ele>
        <time>2020-08-08T07:14:28Z</time>
      </trkpt>
      <trkpt lat="43.76104" lon="-1.39907">
        <ele>-19</ele>
        <time>2020-08-08T07:14:33Z</time>
      </trkpt>
      <trkpt lat="43.76094" lon="-1.39914">
        <ele>-19</ele>
        <time>2020-08-08T07:14:36Z</time>
      </trkpt>
      <trkpt lat="43.76084" lon="-1.39915">
        <ele>-19</ele>
        <time>2020-08-08T07:14:38Z</time>
      </trkpt>
      <trkpt lat="43.76075" lon="-1.39914">
        <ele>-19</ele>
        <time>2020-08-08T07:14:40Z</time>
      </trkpt>
      <trkpt lat="43.76061" lon="-1.39912">
        <ele>-19</ele>
        <time>2020-08-08T07:14:43Z</time>
      </trkpt>
      <trkpt lat="43.76054" lon="-1.39915">
        <ele>-19</ele>
        <time>2020-08-08T07:14:45Z</time>
      </trkpt>
      <trkpt lat="43.7605" lon="-1.39916">
        <ele>-19</ele>
        <time>2020-08-08T07:14:46Z</time>
      </trkpt>
      <trkpt lat="43.76041" lon="-1.39918">
        <ele>-19</ele>
        <time>2020-08-08T07:14:49Z</time>
      </trkpt>
      <trkpt lat="43.76034" lon="-1.39919">
        <ele>-19</ele>
        <time>2020-08-08T07:14:51Z</time>
      </trkpt>
      <trkpt lat="43.76021" lon="-1.39924">
        <ele>-19</ele>
        <time>2020-08-08T07:14:56Z</time>
      </trkpt>
      <trkpt lat="43.75997" lon="-1.39931">
        <ele>-19</ele>
        <time>2020-08-08T07:15:02Z</time>
      </trkpt>
      <trkpt lat="43.7599" lon="-1.39935">
        <ele>-19</ele>
        <time>2020-08-08T07:15:05Z</time>
      </trkpt>
      <trkpt lat="43.75985" lon="-1.3994">
        <ele>-19</ele>
        <time>2020-08-08T07:15:07Z</time>
      </trkpt>
      <trkpt lat="43.75975" lon="-1.39951">
        <ele>-19</ele>
        <time>2020-08-08T07:15:12Z</time>
      </trkpt>
      <trkpt lat="43.75959" lon="-1.39963">
        <ele>-19</ele>
        <time>2020-08-08T07:15:17Z</time>
      </trkpt>
      <trkpt lat="43.75937" lon="-1.39965">
        <ele>-19</ele>
        <time>2020-08-08T07:15:23Z</time>
      </trkpt>
      <trkpt lat="43.75922" lon="-1.39964">
        <ele>-19</ele>
        <time>2020-08-08T07:15:28Z</time>
      </trkpt>
      <trkpt lat="43.75907" lon="-1.39965">
        <ele>-19</ele>
        <time>2020-08-08T07:15:33Z</time>
      </trkpt>
      <trkpt lat="43.75897" lon="-1.39973">
        <ele>-19</ele>
        <time>2020-08-08T07:15:38Z</time>
      </trkpt>
      <trkpt lat="43.75885" lon="-1.39981">
        <ele>-19</ele>
        <time>2020-08-08T07:15:43Z</time>
      </trkpt>
      <trkpt lat="43.7587" lon="-1.39991">
        <ele>-19</ele>
        <time>2020-08-08T07:15:48Z</time>
      </trkpt>
      <trkpt lat="43.7585" lon="-1.40004">
        <ele>-19</ele>
        <time>2020-08-08T07:15:54Z</time>
      </trkpt>
      <trkpt lat="43.75846" lon="-1.40017">
        <ele>-19</ele>
        <time>2020-08-08T07:15:58Z</time>
      </trkpt>
      <trkpt lat="43.75845" lon="-1.40021">
        <ele>-19</ele>
        <time>2020-08-08T07:15:59Z</time>
      </trkpt>
      <trkpt lat="43.7584" lon="-1.40041">
        <ele>-19</ele>
        <time>2020-08-08T07:16:05Z</time>
      </trkpt>
      <trkpt lat="43.75831" lon="-1.4006">
        <ele>-19</ele>
        <time>2020-08-08T07:16:12Z</time>
      </trkpt>
      <trkpt lat="43.7582" lon="-1.40076">
        <ele>-19</ele>
        <time>2020-08-08T07:16:16Z</time>
      </trkpt>
      <trkpt lat="43.75816" lon="-1.40083">
        <ele>-19</ele>
        <time>2020-08-08T07:16:18Z</time>
      </trkpt>
      <trkpt lat="43.75811" lon="-1.40094">
        <ele>-19</ele>
        <time>2020-08-08T07:16:21Z</time>
      </trkpt>
      <trkpt lat="43.75799" lon="-1.40119">
        <ele>-19</ele>
        <time>2020-08-08T07:16:26Z</time>
      </trkpt>
      <trkpt lat="43.75792" lon="-1.40136">
        <ele>-19</ele>
        <time>2020-08-08T07:16:31Z</time>
      </trkpt>
      <trkpt lat="43.7578" lon="-1.40152">
        <ele>-19</ele>
        <time>2020-08-08T07:16:36Z</time>
      </trkpt>
      <trkpt lat="43.75776" lon="-1.40157">
        <ele>-19</ele>
        <time>2020-08-08T07:16:41Z</time>
      </trkpt>
      <trkpt lat="43.75775" lon="-1.40161">
        <ele>-19</ele>
        <time>2020-08-08T07:16:50Z</time>
      </trkpt>
      <trkpt lat="43.75775" lon="-1.40171">
        <ele>-19</ele>
        <time>2020-08-08T07:16:54Z</time>
      </trkpt>
      <trkpt lat="43.75775" lon="-1.40173">
        <ele>-19</ele>
        <time>2020-08-08T07:16:55Z</time>
      </trkpt>
      <trkpt lat="43.75772" lon="-1.40171">
        <ele>-19</ele>
        <time>2020-08-08T07:16:58Z</time>
      </trkpt>
      <trkpt lat="43.75771" lon="-1.40169">
        <ele>-19</ele>
        <time>2020-08-08T07:16:59Z</time>
      </trkpt>
      <trkpt lat="43.75769" lon="-1.40153">
        <ele>-19</ele>
        <time>2020-08-08T07:17:05Z</time>
      </trkpt>
      <trkpt lat="43.75766" lon="-1.40146">
        <ele>-19</ele>
        <time>2020-08-08T07:17:09Z</time>
      </trkpt>
      <trkpt lat="43.75762" lon="-1.40143">
        <ele>-19</ele>
        <time>2020-08-08T07:17:11Z</time>
      </trkpt>
      <trkpt lat="43.75752" lon="-1.4014">
        <ele>-19</ele>
        <time>2020-08-08T07:17:16Z</time>
      </trkpt>
      <trkpt lat="43.75738" lon="-1.40141">
        <ele>-19</ele>
        <time>2020-08-08T07:17:21Z</time>
      </trkpt>
      <trkpt lat="43.75719" lon="-1.40147">
        <ele>-19</ele>
        <time>2020-08-08T07:17:27Z</time>
      </trkpt>
      <trkpt lat="43.75697" lon="-1.40154">
        <ele>-19</ele>
        <time>2020-08-08T07:17:34Z</time>
      </trkpt>
      <trkpt lat="43.75676" lon="-1.4016">
        <ele>-19</ele>
        <time>2020-08-08T07:17:40Z</time>
      </trkpt>
      <trkpt lat="43.75649" lon="-1.40167">
        <ele>-19</ele>
        <time>2020-08-08T07:17:47Z</time>
      </trkpt>
      <trkpt lat="43.75628" lon="-1.40163">
        <ele>-19</ele>
        <time>2020-08-08T07:17:53Z</time>
      </trkpt>
      <trkpt lat="43.75599" lon="-1.40163">
        <ele>-19</ele>
        <time>2020-08-08T07:18:01Z</time>
      </trkpt>
      <trkpt lat="43.75581" lon="-1.40173">
        <ele>-19</ele>
        <time>2020-08-08T07:18:06Z</time>
      </trkpt>
      <trkpt lat="43.75553" lon="-1.40187">
        <ele>-19</ele>
        <time>2020-08-08T07:18:13Z</time>
      </trkpt>
      <trkpt lat="43.7553" lon="-1.40194">
        <ele>-19</ele>
        <time>2020-08-08T07:18:19Z</time>
      </trkpt>
      <trkpt lat="43.75506" lon="-1.40199">
        <ele>-19</ele>
        <time>2020-08-08T07:18:25Z</time>
      </trkpt>
      <trkpt lat="43.75484" lon="-1.40206">
        <ele>-19</ele>
        <time>2020-08-08T07:18:31Z</time>
      </trkpt>
      <trkpt lat="43.75475" lon="-1.40206">
        <ele>-19</ele>
        <time>2020-08-08T07:18:33Z</time>
      </trkpt>
      <trkpt lat="43.75468" lon="-1.40204">
        <ele>-19</ele>
        <time>2020-08-08T07:18:35Z</time>
      </trkpt>
      <trkpt lat="43.75449" lon="-1.40193">
        <ele>-19</ele>
        <time>2020-08-08T07:18:42Z</time>
      </trkpt>
      <trkpt lat="43.75449" lon="-1.40195">
        <ele>-19</ele>
        <time>2020-08-08T07:18:46Z</time>
      </trkpt>
      <trkpt lat="43.75452" lon="-1.40197">
        <ele>-19</ele>
        <time>2020-08-08T07:18:53Z</time>
      </trkpt>
      <trkpt lat="43.75454" lon="-1.40195">
        <ele>-19</ele>
        <time>2020-08-08T07:18:58Z</time>
      </trkpt>
      <trkpt lat="43.75455" lon="-1.40194">
        <ele>-19</ele>
        <time>2020-08-08T07:19:04Z</time>
      </trkpt>
      <trkpt lat="43.75454" lon="-1.40182">
        <ele>-19</ele>
        <time>2020-08-08T07:19:09Z</time>
      </trkpt>
      <trkpt lat="43.75447" lon="-1.40172">
        <ele>-19</ele>
        <time>2020-08-08T07:19:14Z</time>
      </trkpt>
      <trkpt lat="43.75435" lon="-1.40167">
        <ele>-19</ele>
        <time>2020-08-08T07:19:21Z</time>
      </trkpt>
      <trkpt lat="43.75425" lon="-1.40167">
        <ele>-19</ele>
        <time>2020-08-08T07:19:27Z</time>
      </trkpt>
      <trkpt lat="43.75406" lon="-1.4017">
        <ele>-19</ele>
        <time>2020-08-08T07:19:33Z</time>
      </trkpt>
      <trkpt lat="43.75396" lon="-1.40171">
        <ele>-19</ele>
        <time>2020-08-08T07:19:38Z</time>
      </trkpt>
      <trkpt lat="43.75397" lon="-1.4018">
        <ele>-19</ele>
        <time>2020-08-08T07:19:42Z</time>
      </trkpt>
      <trkpt lat="43.75398" lon="-1.40183">
        <ele>-19</ele>
        <time>2020-08-08T07:19:43Z</time>
      </trkpt>
      <trkpt lat="43.75397" lon="-1.40196">
        <ele>-19</ele>
        <time>2020-08-08T07:19:48Z</time>
      </trkpt>
      <trkpt lat="43.75396" lon="-1.40199">
        <ele>-19</ele>
        <time>2020-08-08T07:19:49Z</time>
      </trkpt>
      <trkpt lat="43.75387" lon="-1.40208">
        <ele>-19</ele>
        <time>2020-08-08T07:19:54Z</time>
      </trkpt>
      <trkpt lat="43.75376" lon="-1.40211">
        <ele>-19</ele>
        <time>2020-08-08T07:19:58Z</time>
      </trkpt>
      <trkpt lat="43.75367" lon="-1.40216">
        <ele>-19</ele>
        <time>2020-08-08T07:20:02Z</time>
      </trkpt>
      <trkpt lat="43.75358" lon="-1.40224">
        <ele>-19</ele>
        <time>2020-08-08T07:20:06Z</time>
      </trkpt>
      <trkpt lat="43.75338" lon="-1.40233">
        <ele>-19</ele>
        <time>2020-08-08T07:20:13Z</time>
      </trkpt>
      <trkpt lat="43.75318" lon="-1.40249">
        <ele>-19</ele>
        <time>2020-08-08T07:20:20Z</time>
      </trkpt>
      <trkpt lat="43.75306" lon="-1.4026">
        <ele>-19</ele>
        <time>2020-08-08T07:20:25Z</time>
      </trkpt>
      <trkpt lat="43.7529" lon="-1.40276">
        <ele>-19</ele>
        <time>2020-08-08T07:20:32Z</time>
      </trkpt>
      <trkpt lat="43.75285" lon="-1.40283">
        <ele>-19</ele>
        <time>2020-08-08T07:20:36Z</time>
      </trkpt>
      <trkpt lat="43.75284" lon="-1.40285">
        <ele>-19</ele>
        <time>2020-08-08T07:20:37Z</time>
      </trkpt>
      <trkpt lat="43.75269" lon="-1.40305">
        <ele>-19</ele>
        <time>2020-08-08T07:20:43Z</time>
      </trkpt>
      <trkpt lat="43.75251" lon="-1.40326">
        <ele>-19</ele>
        <time>2020-08-08T07:20:49Z</time>
      </trkpt>
      <trkpt lat="43.75233" lon="-1.40343">
        <ele>-19</ele>
        <time>2020-08-08T07:20:56Z</time>
      </trkpt>
      <trkpt lat="43.75218" lon="-1.40358">
        <ele>-19</ele>
        <time>2020-08-08T07:21:02Z</time>
      </trkpt>
      <trkpt lat="43.75201" lon="-1.40374">
        <ele>-19</ele>
        <time>2020-08-08T07:21:08Z</time>
      </trkpt>
      <trkpt lat="43.75189" lon="-1.40382">
        <ele>-19</ele>
        <time>2020-08-08T07:21:13Z</time>
      </trkpt>
      <trkpt lat="43.75186" lon="-1.40386">
        <ele>-19</ele>
        <time>2020-08-08T07:21:16Z</time>
      </trkpt>
      <trkpt lat="43.75185" lon="-1.40393">
        <ele>-19</ele>
        <time>2020-08-08T07:21:18Z</time>
      </trkpt>
      <trkpt lat="43.75185" lon="-1.40396">
        <ele>-19</ele>
        <time>2020-08-08T07:21:19Z</time>
      </trkpt>
      <trkpt lat="43.75187" lon="-1.40411">
        <ele>-19</ele>
        <time>2020-08-08T07:21:23Z</time>
      </trkpt>
      <trkpt lat="43.7519" lon="-1.4044">
        <ele>-19</ele>
        <time>2020-08-08T07:21:29Z</time>
      </trkpt>
      <trkpt lat="43.75195" lon="-1.40469">
        <ele>-19</ele>
        <time>2020-08-08T07:21:35Z</time>
      </trkpt>
      <trkpt lat="43.752" lon="-1.40496">
        <ele>-19</ele>
        <time>2020-08-08T07:21:41Z</time>
      </trkpt>
      <trkpt lat="43.75201" lon="-1.40519">
        <ele>-19</ele>
        <time>2020-08-08T07:21:46Z</time>
      </trkpt>
      <trkpt lat="43.75201" lon="-1.40544">
        <ele>-19</ele>
        <time>2020-08-08T07:21:51Z</time>
      </trkpt>
      <trkpt lat="43.75199" lon="-1.40582">
        <ele>-19</ele>
        <time>2020-08-08T07:21:59Z</time>
      </trkpt>
      <trkpt lat="43.75196" lon="-1.40615">
        <ele>-19</ele>
        <time>2020-08-08T07:22:06Z</time>
      </trkpt>
      <trkpt lat="43.75195" lon="-1.4065">
        <ele>-19</ele>
        <time>2020-08-08T07:22:14Z</time>
      </trkpt>
      <trkpt lat="43.75194" lon="-1.40677">
        <ele>-19</ele>
        <time>2020-08-08T07:22:21Z</time>
      </trkpt>
      <trkpt lat="43.75196" lon="-1.40709">
        <ele>-19</ele>
        <time>2020-08-08T07:22:29Z</time>
      </trkpt>
      <trkpt lat="43.75186" lon="-1.40727">
        <ele>-19</ele>
        <time>2020-08-08T07:22:35Z</time>
      </trkpt>
      <trkpt lat="43.75167" lon="-1.40742">
        <ele>-19</ele>
        <time>2020-08-08T07:22:41Z</time>
      </trkpt>
      <trkpt lat="43.75157" lon="-1.40755">
        <ele>-19</ele>
        <time>2020-08-08T07:22:46Z</time>
      </trkpt>
      <trkpt lat="43.7515" lon="-1.40769">
        <ele>-19</ele>
        <time>2020-08-08T07:22:50Z</time>
      </trkpt>
      <trkpt lat="43.7515" lon="-1.40773">
        <ele>-19</ele>
        <time>2020-08-08T07:22:51Z</time>
      </trkpt>
      <trkpt lat="43.75152" lon="-1.40795">
        <ele>-19</ele>
        <time>2020-08-08T07:22:56Z</time>
      </trkpt>
      <trkpt lat="43.75153" lon="-1.40821">
        <ele>-19</ele>
        <time>2020-08-08T07:23:01Z</time>
      </trkpt>
      <trkpt lat="43.75154" lon="-1.40847">
        <ele>-19</ele>
        <time>2020-08-08T07:23:07Z</time>
      </trkpt>
      <trkpt lat="43.75157" lon="-1.40879">
        <ele>-19</ele>
        <time>2020-08-08T07:23:13Z</time>
      </trkpt>
      <trkpt lat="43.75162" lon="-1.40908">
        <ele>-19</ele>
        <time>2020-08-08T07:23:19Z</time>
      </trkpt>
      <trkpt lat="43.75167" lon="-1.40937">
        <ele>-19</ele>
        <time>2020-08-08T07:23:25Z</time>
      </trkpt>
      <trkpt lat="43.75171" lon="-1.4096">
        <ele>-19</ele>
        <time>2020-08-08T07:23:31Z</time>
      </trkpt>
      <trkpt lat="43.75174" lon="-1.40986">
        <ele>-19</ele>
        <time>2020-08-08T07:23:37Z</time>
      </trkpt>
      <trkpt lat="43.75179" lon="-1.4101">
        <ele>-19</ele>
        <time>2020-08-08T07:23:43Z</time>
      </trkpt>
      <trkpt lat="43.75186" lon="-1.41036">
        <ele>-19</ele>
        <time>2020-08-08T07:23:49Z</time>
      </trkpt>
      <trkpt lat="43.75192" lon="-1.41051">
        <ele>-19</ele>
        <time>2020-08-08T07:23:54Z</time>
      </trkpt>
      <trkpt lat="43.75201" lon="-1.41076">
        <ele>-19</ele>
        <time>2020-08-08T07:24:00Z</time>
      </trkpt>
      <trkpt lat="43.75205" lon="-1.41091">
        <ele>-19</ele>
        <time>2020-08-08T07:24:04Z</time>
      </trkpt>
      <trkpt lat="43.75208" lon="-1.41118">
        <ele>-19</ele>
        <time>2020-08-08T07:24:09Z</time>
      </trkpt>
      <trkpt lat="43.75212" lon="-1.41143">
        <ele>-19</ele>
        <time>2020-08-08T07:24:15Z</time>
      </trkpt>
      <trkpt lat="43.75217" lon="-1.41166">
        <ele>-19</ele>
        <time>2020-08-08T07:24:21Z</time>
      </trkpt>
      <trkpt lat="43.7522" lon="-1.41189">
        <ele>-19</ele>
        <time>2020-08-08T07:24:27Z</time>
      </trkpt>
      <trkpt lat="43.75216" lon="-1.41218">
        <ele>-19</ele>
        <time>2020-08-08T07:24:34Z</time>
      </trkpt>
      <trkpt lat="43.7521" lon="-1.41247">
        <ele>-19</ele>
        <time>2020-08-08T07:24:40Z</time>
      </trkpt>
      <trkpt lat="43.75208" lon="-1.4127">
        <ele>-19</ele>
        <time>2020-08-08T07:24:47Z</time>
      </trkpt>
      <trkpt lat="43.75207" lon="-1.41291">
        <ele>-19</ele>
        <time>2020-08-08T07:24:53Z</time>
      </trkpt>
      <trkpt lat="43.75203" lon="-1.41303">
        <ele>-18.60000038147</ele>
        <time>2020-08-08T07:24:58Z</time>
      </trkpt>
      <trkpt lat="43.75201" lon="-1.41305">
        <ele>-18.200000762939</ele>
        <time>2020-08-08T07:24:59Z</time>
      </trkpt>
      <trkpt lat="43.75199" lon="-1.41306">
        <ele>-17.799999237061</ele>
        <time>2020-08-08T07:25:00Z</time>
      </trkpt>
      <trkpt lat="43.75197" lon="-1.41307">
        <ele>-17.39999961853</ele>
        <time>2020-08-08T07:25:01Z</time>
      </trkpt>
      <trkpt lat="43.75195" lon="-1.41307">
        <ele>-17</ele>
        <time>2020-08-08T07:25:02Z</time>
      </trkpt>
      <trkpt lat="43.7519" lon="-1.41308">
        <ele>-17</ele>
        <time>2020-08-08T07:25:05Z</time>
      </trkpt>
      <trkpt lat="43.75179" lon="-1.4131">
        <ele>-17</ele>
        <time>2020-08-08T07:25:11Z</time>
      </trkpt>
      <trkpt lat="43.75169" lon="-1.4131">
        <ele>-17</ele>
        <time>2020-08-08T07:25:18Z</time>
      </trkpt>
      <trkpt lat="43.75169" lon="-1.4131">
        <ele>-17</ele>
        <time>2020-08-08T07:25:27Z</time>
      </trkpt>
      <trkpt lat="43.75169" lon="-1.4131">
        <ele>-16.60000038147</ele>
        <time>2020-08-08T07:25:38Z</time>
      </trkpt>
      <trkpt lat="43.75169" lon="-1.4131">
        <ele>-16.200000762939</ele>
        <time>2020-08-08T07:25:39Z</time>
      </trkpt>
      <trkpt lat="43.75169" lon="-1.4131">
        <ele>-15.800000190735</ele>
        <time>2020-08-08T07:25:40Z</time>
      </trkpt>
      <trkpt lat="43.75169" lon="-1.4131">
        <ele>-15.39999961853</ele>
        <time>2020-08-08T07:25:41Z</time>
      </trkpt>
      <trkpt lat="43.75169" lon="-1.4131">
        <ele>-15</ele>
        <time>2020-08-08T07:25:42Z</time>
      </trkpt>
      <trkpt lat="43.75169" lon="-1.4131">
        <ele>-15</ele>
        <time>2020-08-08T07:25:51Z</time>
      </trkpt>
      <trkpt lat="43.75158" lon="-1.4131">
        <ele>-15</ele>
        <time>2020-08-08T07:25:56Z</time>
      </trkpt>
      <trkpt lat="43.75142" lon="-1.41315">
        <ele>-15</ele>
        <time>2020-08-08T07:26:02Z</time>
      </trkpt>
      <trkpt lat="43.75123" lon="-1.41319">
        <ele>-15</ele>
        <time>2020-08-08T07:26:08Z</time>
      </trkpt>
      <trkpt lat="43.75098" lon="-1.41319">
        <ele>-15</ele>
        <time>2020-08-08T07:26:15Z</time>
      </trkpt>
      <trkpt lat="43.75077" lon="-1.41321">
        <ele>-15</ele>
        <time>2020-08-08T07:26:22Z</time>
      </trkpt>
      <trkpt lat="43.75066" lon="-1.41321">
        <ele>-15</ele>
        <time>2020-08-08T07:26:27Z</time>
      </trkpt>
      <trkpt lat="43.75056" lon="-1.41322">
        <ele>-15</ele>
        <time>2020-08-08T07:26:32Z</time>
      </trkpt>
      <trkpt lat="43.75036" lon="-1.41322">
        <ele>-15</ele>
        <time>2020-08-08T07:26:39Z</time>
      </trkpt>
      <trkpt lat="43.75024" lon="-1.41323">
        <ele>-15</ele>
        <time>2020-08-08T07:26:44Z</time>
      </trkpt>
      <trkpt lat="43.75008" lon="-1.41325">
        <ele>-15</ele>
        <time>2020-08-08T07:26:51Z</time>
      </trkpt>
      <trkpt lat="43.74994" lon="-1.41325">
        <ele>-15</ele>
        <time>2020-08-08T07:26:57Z</time>
      </trkpt>
      <trkpt lat="43.7498" lon="-1.41327">
        <ele>-15</ele>
        <time>2020-08-08T07:27:03Z</time>
      </trkpt>
      <trkpt lat="43.74967" lon="-1.41326">
        <ele>-15</ele>
        <time>2020-08-08T07:27:09Z</time>
      </trkpt>
      <trkpt lat="43.74964" lon="-1.41326">
        <ele>-14.60000038147</ele>
        <time>2020-08-08T07:27:10Z</time>
      </trkpt>
      <trkpt lat="43.74962" lon="-1.41327">
        <ele>-14.199999809265</ele>
        <time>2020-08-08T07:27:11Z</time>
      </trkpt>
      <trkpt lat="43.74959" lon="-1.41327">
        <ele>-13.800000190735</ele>
        <time>2020-08-08T07:27:12Z</time>
      </trkpt>
      <trkpt lat="43.74956" lon="-1.41327">
        <ele>-13.39999961853</ele>
        <time>2020-08-08T07:27:13Z</time>
      </trkpt>
      <trkpt lat="43.74954" lon="-1.41328">
        <ele>-13</ele>
        <time>2020-08-08T07:27:14Z</time>
      </trkpt>
      <trkpt lat="43.74951" lon="-1.41328">
        <ele>-13</ele>
        <time>2020-08-08T07:27:15Z</time>
      </trkpt>
      <trkpt lat="43.7493" lon="-1.41331">
        <ele>-13</ele>
        <time>2020-08-08T07:27:24Z</time>
      </trkpt>
      <trkpt lat="43.74918" lon="-1.4133">
        <ele>-13</ele>
        <time>2020-08-08T07:27:29Z</time>
      </trkpt>
      <trkpt lat="43.74902" lon="-1.41331">
        <ele>-13</ele>
        <time>2020-08-08T07:27:36Z</time>
      </trkpt>
      <trkpt lat="43.74888" lon="-1.41332">
        <ele>-13</ele>
        <time>2020-08-08T07:27:42Z</time>
      </trkpt>
      <trkpt lat="43.74882" lon="-1.41332">
        <ele>-13.39999961853</ele>
        <time>2020-08-08T07:27:45Z</time>
      </trkpt>
      <trkpt lat="43.7488" lon="-1.41333">
        <ele>-13.800000190735</ele>
        <time>2020-08-08T07:27:46Z</time>
      </trkpt>
      <trkpt lat="43.74879" lon="-1.41333">
        <ele>-14.60000038147</ele>
        <time>2020-08-08T07:27:47Z</time>
      </trkpt>
      <trkpt lat="43.74878" lon="-1.41333">
        <ele>-15</ele>
        <time>2020-08-08T07:27:48Z</time>
      </trkpt>
      <trkpt lat="43.7487" lon="-1.41335">
        <ele>-15</ele>
        <time>2020-08-08T07:27:54Z</time>
      </trkpt>
      <trkpt lat="43.74869" lon="-1.41336">
        <ele>-15</ele>
        <time>2020-08-08T07:27:59Z</time>
      </trkpt>
      <trkpt lat="43.7487" lon="-1.41336">
        <ele>-15</ele>
        <time>2020-08-08T07:28:06Z</time>
      </trkpt>
      <trkpt lat="43.74867" lon="-1.41337">
        <ele>-15</ele>
        <time>2020-08-08T07:28:14Z</time>
      </trkpt>
      <trkpt lat="43.74867" lon="-1.41337">
        <ele>-15.39999961853</ele>
        <time>2020-08-08T07:28:27Z</time>
      </trkpt>
      <trkpt lat="43.74867" lon="-1.41337">
        <ele>-16</ele>
        <time>2020-08-08T07:28:28Z</time>
      </trkpt>
      <trkpt lat="43.74867" lon="-1.41337">
        <ele>-16.39999961853</ele>
        <time>2020-08-08T07:28:29Z</time>
      </trkpt>
      <trkpt lat="43.74867" lon="-1.41337">
        <ele>-16.799999237061</ele>
        <time>2020-08-08T07:28:30Z</time>
      </trkpt>
      <trkpt lat="43.74867" lon="-1.41337">
        <ele>-17.200000762939</ele>
        <time>2020-08-08T07:28:31Z</time>
      </trkpt>
      <trkpt lat="43.74867" lon="-1.41337">
        <ele>-17.200000762939</ele>
        <time>2020-08-08T07:28:43Z</time>
      </trkpt>
      <trkpt lat="43.74866" lon="-1.41337">
        <ele>-17.200000762939</ele>
        <time>2020-08-08T07:28:58Z</time>
      </trkpt>
      <trkpt lat="43.74866" lon="-1.41337">
        <ele>-17.200000762939</ele>
        <time>2020-08-08T07:29:12Z</time>
      </trkpt>
      <trkpt lat="43.74866" lon="-1.41337">
        <ele>-17.200000762939</ele>
        <time>2020-08-08T07:29:20Z</time>
      </trkpt>
      <trkpt lat="43.74866" lon="-1.41338">
        <ele>-17.200000762939</ele>
        <time>2020-08-08T07:29:31Z</time>
      </trkpt>
      <trkpt lat="43.74865" lon="-1.41341">
        <ele>-17.200000762939</ele>
        <time>2020-08-08T07:29:33Z</time>
      </trkpt>
      <trkpt lat="43.74864" lon="-1.41348">
        <ele>-17.200000762939</ele>
        <time>2020-08-08T07:29:36Z</time>
      </trkpt>
      <trkpt lat="43.74863" lon="-1.41359">
        <ele>-17.200000762939</ele>
        <time>2020-08-08T07:29:41Z</time>
      </trkpt>
      <trkpt lat="43.74865" lon="-1.41374">
        <ele>-17.200000762939</ele>
        <time>2020-08-08T07:29:46Z</time>
      </trkpt>
      <trkpt lat="43.74866" lon="-1.41398">
        <ele>-17.200000762939</ele>
        <time>2020-08-08T07:29:53Z</time>
      </trkpt>
      <trkpt lat="43.7487" lon="-1.41425">
        <ele>-17.200000762939</ele>
        <time>2020-08-08T07:30:00Z</time>
      </trkpt>
      <trkpt lat="43.74873" lon="-1.41456">
        <ele>-17.200000762939</ele>
        <time>2020-08-08T07:30:06Z</time>
      </trkpt>
      <trkpt lat="43.74877" lon="-1.41476">
        <ele>-17.200000762939</ele>
        <time>2020-08-08T07:30:12Z</time>
      </trkpt>
      <trkpt lat="43.74877" lon="-1.4148">
        <ele>-16.799999237061</ele>
        <time>2020-08-08T07:30:14Z</time>
      </trkpt>
      <trkpt lat="43.74878" lon="-1.41483">
        <ele>-16</ele>
        <time>2020-08-08T07:30:15Z</time>
      </trkpt>
      <trkpt lat="43.74877" lon="-1.41486">
        <ele>-15.60000038147</ele>
        <time>2020-08-08T07:30:16Z</time>
      </trkpt>
      <trkpt lat="43.74877" lon="-1.41489">
        <ele>-15.199999809265</ele>
        <time>2020-08-08T07:30:17Z</time>
      </trkpt>
      <trkpt lat="43.74879" lon="-1.41506">
        <ele>-15.199999809265</ele>
        <time>2020-08-08T07:30:22Z</time>
      </trkpt>
      <trkpt lat="43.74883" lon="-1.41531">
        <ele>-15.199999809265</ele>
        <time>2020-08-08T07:30:29Z</time>
      </trkpt>
      <trkpt lat="43.74886" lon="-1.4155">
        <ele>-15.199999809265</ele>
        <time>2020-08-08T07:30:35Z</time>
      </trkpt>
      <trkpt lat="43.74889" lon="-1.41567">
        <ele>-15.199999809265</ele>
        <time>2020-08-08T07:30:41Z</time>
      </trkpt>
      <trkpt lat="43.74892" lon="-1.41589">
        <ele>-15.199999809265</ele>
        <time>2020-08-08T07:30:48Z</time>
      </trkpt>
      <trkpt lat="43.74894" lon="-1.41604">
        <ele>-15.199999809265</ele>
        <time>2020-08-08T07:30:53Z</time>
      </trkpt>
      <trkpt lat="43.74895" lon="-1.4162">
        <ele>-15.199999809265</ele>
        <time>2020-08-08T07:30:59Z</time>
      </trkpt>
      <trkpt lat="43.74895" lon="-1.41628">
        <ele>-15.199999809265</ele>
        <time>2020-08-08T07:31:04Z</time>
      </trkpt>
      <trkpt lat="43.74895" lon="-1.41634">
        <ele>-15.199999809265</ele>
        <time>2020-08-08T07:31:09Z</time>
      </trkpt>
      <trkpt lat="43.74894" lon="-1.41637">
        <ele>-15.199999809265</ele>
        <time>2020-08-08T07:31:15Z</time>
      </trkpt>
      <trkpt lat="43.74893" lon="-1.41644">
        <ele>-15.199999809265</ele>
        <time>2020-08-08T07:31:21Z</time>
      </trkpt>
      <trkpt lat="43.74893" lon="-1.41647">
        <ele>-15.199999809265</ele>
        <time>2020-08-08T07:31:27Z</time>
      </trkpt>
      <trkpt lat="43.74896" lon="-1.4166">
        <ele>-15.199999809265</ele>
        <time>2020-08-08T07:31:34Z</time>
      </trkpt>
      <trkpt lat="43.74898" lon="-1.41673">
        <ele>-15.199999809265</ele>
        <time>2020-08-08T07:31:40Z</time>
      </trkpt>
      <trkpt lat="43.74899" lon="-1.41674">
        <ele>-15.199999809265</ele>
        <time>2020-08-08T07:31:41Z</time>
      </trkpt>
      <trkpt lat="43.749" lon="-1.41679">
        <ele>-15.199999809265</ele>
        <time>2020-08-08T07:31:44Z</time>
      </trkpt>
      <trkpt lat="43.74903" lon="-1.41693">
        <ele>-14.800000190735</ele>
        <time>2020-08-08T07:31:50Z</time>
      </trkpt>
      <trkpt lat="43.74904" lon="-1.41696">
        <ele>-14.39999961853</ele>
        <time>2020-08-08T07:31:51Z</time>
      </trkpt>
      <trkpt lat="43.74905" lon="-1.41698">
        <ele>-14</ele>
        <time>2020-08-08T07:31:52Z</time>
      </trkpt>
      <trkpt lat="43.74905" lon="-1.417">
        <ele>-13.60000038147</ele>
        <time>2020-08-08T07:31:53Z</time>
      </trkpt>
      <trkpt lat="43.74906" lon="-1.41703">
        <ele>-13</ele>
        <time>2020-08-08T07:31:54Z</time>
      </trkpt>
      <trkpt lat="43.74909" lon="-1.41716">
        <ele>-13</ele>
        <time>2020-08-08T07:32:00Z</time>
      </trkpt>
      <trkpt lat="43.7491" lon="-1.41724">
        <ele>-13</ele>
        <time>2020-08-08T07:32:04Z</time>
      </trkpt>
      <trkpt lat="43.7491" lon="-1.41728">
        <ele>-13</ele>
        <time>2020-08-08T07:32:06Z</time>
      </trkpt>
      <trkpt lat="43.74911" lon="-1.41734">
        <ele>-13</ele>
        <time>2020-08-08T07:32:12Z</time>
      </trkpt>
      <trkpt lat="43.74911" lon="-1.41735">
        <ele>-13</ele>
        <time>2020-08-08T07:32:19Z</time>
      </trkpt>
      <trkpt lat="43.74911" lon="-1.41741">
        <ele>-13</ele>
        <time>2020-08-08T07:32:23Z</time>
      </trkpt>
      <trkpt lat="43.74911" lon="-1.41744">
        <ele>-13</ele>
        <time>2020-08-08T07:32:25Z</time>
      </trkpt>
      <trkpt lat="43.74912" lon="-1.41753">
        <ele>-13</ele>
        <time>2020-08-08T07:32:32Z</time>
      </trkpt>
      <trkpt lat="43.74912" lon="-1.41763">
        <ele>-13</ele>
        <time>2020-08-08T07:32:39Z</time>
      </trkpt>
      <trkpt lat="43.74915" lon="-1.41778">
        <ele>-13</ele>
        <time>2020-08-08T07:32:48Z</time>
      </trkpt>
      <trkpt lat="43.74916" lon="-1.41788">
        <ele>-13</ele>
        <time>2020-08-08T07:32:54Z</time>
      </trkpt>
      <trkpt lat="43.74917" lon="-1.418">
        <ele>-13</ele>
        <time>2020-08-08T07:33:03Z</time>
      </trkpt>
      <trkpt lat="43.74918" lon="-1.41815">
        <ele>-13</ele>
        <time>2020-08-08T07:33:11Z</time>
      </trkpt>
      <trkpt lat="43.74921" lon="-1.41829">
        <ele>-13</ele>
        <time>2020-08-08T07:33:19Z</time>
      </trkpt>
      <trkpt lat="43.74921" lon="-1.4184">
        <ele>-13</ele>
        <time>2020-08-08T07:33:27Z</time>
      </trkpt>
      <trkpt lat="43.74921" lon="-1.4185">
        <ele>-13</ele>
        <time>2020-08-08T07:33:34Z</time>
      </trkpt>
      <trkpt lat="43.74923" lon="-1.41857">
        <ele>-13</ele>
        <time>2020-08-08T07:33:40Z</time>
      </trkpt>
      <trkpt lat="43.74923" lon="-1.4186">
        <ele>-13</ele>
        <time>2020-08-08T07:33:48Z</time>
      </trkpt>
      <trkpt lat="43.74924" lon="-1.41862">
        <ele>-13</ele>
        <time>2020-08-08T07:34:00Z</time>
      </trkpt>
      <trkpt lat="43.74925" lon="-1.41871">
        <ele>-13</ele>
        <time>2020-08-08T07:34:07Z</time>
      </trkpt>
      <trkpt lat="43.74926" lon="-1.41875">
        <ele>-13</ele>
        <time>2020-08-08T07:34:13Z</time>
      </trkpt>
      <trkpt lat="43.74926" lon="-1.41875">
        <ele>-12.60000038147</ele>
        <time>2020-08-08T07:34:14Z</time>
      </trkpt>
      <trkpt lat="43.74926" lon="-1.41875">
        <ele>-12.199999809265</ele>
        <time>2020-08-08T07:34:15Z</time>
      </trkpt>
      <trkpt lat="43.74927" lon="-1.41876">
        <ele>-11.800000190735</ele>
        <time>2020-08-08T07:34:16Z</time>
      </trkpt>
      <trkpt lat="43.74927" lon="-1.41877">
        <ele>-11.39999961853</ele>
        <time>2020-08-08T07:34:17Z</time>
      </trkpt>
      <trkpt lat="43.74927" lon="-1.41879">
        <ele>-11</ele>
        <time>2020-08-08T07:34:18Z</time>
      </trkpt>
      <trkpt lat="43.74927" lon="-1.41881">
        <ele>-11</ele>
        <time>2020-08-08T07:34:19Z</time>
      </trkpt>
      <trkpt lat="43.74927" lon="-1.41892">
        <ele>-11</ele>
        <time>2020-08-08T07:34:25Z</time>
      </trkpt>
      <trkpt lat="43.74927" lon="-1.41908">
        <ele>-11</ele>
        <time>2020-08-08T07:34:33Z</time>
      </trkpt>
      <trkpt lat="43.74928" lon="-1.41922">
        <ele>-11</ele>
        <time>2020-08-08T07:34:41Z</time>
      </trkpt>
      <trkpt lat="43.7493" lon="-1.41939">
        <ele>-11</ele>
        <time>2020-08-08T07:34:48Z</time>
      </trkpt>
      <trkpt lat="43.74929" lon="-1.41943">
        <ele>-10.60000038147</ele>
        <time>2020-08-08T07:34:50Z</time>
      </trkpt>
      <trkpt lat="43.74929" lon="-1.41944">
        <ele>-10.199999809265</ele>
        <time>2020-08-08T07:34:51Z</time>
      </trkpt>
      <trkpt lat="43.74929" lon="-1.41946">
        <ele>-9.8000001907349</ele>
        <time>2020-08-08T07:34:52Z</time>
      </trkpt>
      <trkpt lat="43.74929" lon="-1.41948">
        <ele>-9.3999996185303</ele>
        <time>2020-08-08T07:34:53Z</time>
      </trkpt>
      <trkpt lat="43.74929" lon="-1.4195">
        <ele>-9</ele>
        <time>2020-08-08T07:34:54Z</time>
      </trkpt>
      <trkpt lat="43.74932" lon="-1.41964">
        <ele>-9</ele>
        <time>2020-08-08T07:35:02Z</time>
      </trkpt>
      <trkpt lat="43.74934" lon="-1.41969">
        <ele>-9</ele>
        <time>2020-08-08T07:35:05Z</time>
      </trkpt>
      <trkpt lat="43.74934" lon="-1.41978">
        <ele>-9</ele>
        <time>2020-08-08T07:35:08Z</time>
      </trkpt>
      <trkpt lat="43.74935" lon="-1.4199">
        <ele>-9.8000001907349</ele>
        <time>2020-08-08T07:35:12Z</time>
      </trkpt>
      <trkpt lat="43.74935" lon="-1.41994">
        <ele>-10.199999809265</ele>
        <time>2020-08-08T07:35:13Z</time>
      </trkpt>
      <trkpt lat="43.74935" lon="-1.41997">
        <ele>-10.60000038147</ele>
        <time>2020-08-08T07:35:14Z</time>
      </trkpt>
      <trkpt lat="43.74935" lon="-1.42001">
        <ele>-11</ele>
        <time>2020-08-08T07:35:15Z</time>
      </trkpt>
      <trkpt lat="43.74939" lon="-1.42014">
        <ele>-11.39999961853</ele>
        <time>2020-08-08T07:35:18Z</time>
      </trkpt>
      <trkpt lat="43.7494" lon="-1.42016">
        <ele>-12</ele>
        <time>2020-08-08T07:35:19Z</time>
      </trkpt>
      <trkpt lat="43.7494" lon="-1.42019">
        <ele>-12.39999961853</ele>
        <time>2020-08-08T07:35:20Z</time>
      </trkpt>
      <trkpt lat="43.7494" lon="-1.42022">
        <ele>-12.800000190735</ele>
        <time>2020-08-08T07:35:21Z</time>
      </trkpt>
      <trkpt lat="43.74941" lon="-1.42025">
        <ele>-13.199999809265</ele>
        <time>2020-08-08T07:35:22Z</time>
      </trkpt>
      <trkpt lat="43.74945" lon="-1.42039">
        <ele>-13.199999809265</ele>
        <time>2020-08-08T07:35:27Z</time>
      </trkpt>
      <trkpt lat="43.74945" lon="-1.42041">
        <ele>-13.199999809265</ele>
        <time>2020-08-08T07:35:28Z</time>
      </trkpt>
      <trkpt lat="43.74946" lon="-1.42043">
        <ele>-13.60000038147</ele>
        <time>2020-08-08T07:35:29Z</time>
      </trkpt>
      <trkpt lat="43.74947" lon="-1.42045">
        <ele>-14</ele>
        <time>2020-08-08T07:35:30Z</time>
      </trkpt>
      <trkpt lat="43.74947" lon="-1.42046">
        <ele>-14.39999961853</ele>
        <time>2020-08-08T07:35:31Z</time>
      </trkpt>
      <trkpt lat="43.74947" lon="-1.42048">
        <ele>-14.800000190735</ele>
        <time>2020-08-08T07:35:32Z</time>
      </trkpt>
      <trkpt lat="43.74947" lon="-1.4205">
        <ele>-15.199999809265</ele>
        <time>2020-08-08T07:35:33Z</time>
      </trkpt>
      <trkpt lat="43.74946" lon="-1.42053">
        <ele>-15.199999809265</ele>
        <time>2020-08-08T07:35:38Z</time>
      </trkpt>
      <trkpt lat="43.74949" lon="-1.42062">
        <ele>-15.199999809265</ele>
        <time>2020-08-08T07:35:46Z</time>
      </trkpt>
      <trkpt lat="43.74951" lon="-1.42073">
        <ele>-15.199999809265</ele>
        <time>2020-08-08T07:35:53Z</time>
      </trkpt>
      <trkpt lat="43.7495" lon="-1.42081">
        <ele>-15.199999809265</ele>
        <time>2020-08-08T07:35:59Z</time>
      </trkpt>
      <trkpt lat="43.74952" lon="-1.42098">
        <ele>-15.199999809265</ele>
        <time>2020-08-08T07:36:05Z</time>
      </trkpt>
      <trkpt lat="43.74952" lon="-1.421">
        <ele>-15.199999809265</ele>
        <time>2020-08-08T07:36:06Z</time>
      </trkpt>
      <trkpt lat="43.74953" lon="-1.42112">
        <ele>-15.199999809265</ele>
        <time>2020-08-08T07:36:12Z</time>
      </trkpt>
      <trkpt lat="43.74954" lon="-1.42117">
        <ele>-15.199999809265</ele>
        <time>2020-08-08T07:36:18Z</time>
      </trkpt>
      <trkpt lat="43.74957" lon="-1.42122">
        <ele>-15.199999809265</ele>
        <time>2020-08-08T07:36:24Z</time>
      </trkpt>
      <trkpt lat="43.74957" lon="-1.42125">
        <ele>-15.199999809265</ele>
        <time>2020-08-08T07:36:32Z</time>
      </trkpt>
      <trkpt lat="43.74953" lon="-1.42133">
        <ele>-15.199999809265</ele>
        <time>2020-08-08T07:36:38Z</time>
      </trkpt>
      <trkpt lat="43.74949" lon="-1.4214">
        <ele>-15.800000190735</ele>
        <time>2020-08-08T07:36:45Z</time>
      </trkpt>
      <trkpt lat="43.74949" lon="-1.4214">
        <ele>-16.200000762939</ele>
        <time>2020-08-08T07:36:46Z</time>
      </trkpt>
      <trkpt lat="43.74949" lon="-1.4214">
        <ele>-16.60000038147</ele>
        <time>2020-08-08T07:36:47Z</time>
      </trkpt>
      <trkpt lat="43.74948" lon="-1.42141">
        <ele>-17</ele>
        <time>2020-08-08T07:36:48Z</time>
      </trkpt>
      <trkpt lat="43.74948" lon="-1.42143">
        <ele>-17.39999961853</ele>
        <time>2020-08-08T07:36:49Z</time>
      </trkpt>
      <trkpt lat="43.74948" lon="-1.42147">
        <ele>-17.39999961853</ele>
        <time>2020-08-08T07:36:51Z</time>
      </trkpt>
      <trkpt lat="43.74949" lon="-1.42159">
        <ele>-17.39999961853</ele>
        <time>2020-08-08T07:36:58Z</time>
      </trkpt>
      <trkpt lat="43.74949" lon="-1.42168">
        <ele>-17.39999961853</ele>
        <time>2020-08-08T07:37:05Z</time>
      </trkpt>
      <trkpt lat="43.74949" lon="-1.42177">
        <ele>-17.39999961853</ele>
        <time>2020-08-08T07:37:12Z</time>
      </trkpt>
      <trkpt lat="43.74951" lon="-1.42186">
        <ele>-17.39999961853</ele>
        <time>2020-08-08T07:37:20Z</time>
      </trkpt>
      <trkpt lat="43.74954" lon="-1.42191">
        <ele>-17.39999961853</ele>
        <time>2020-08-08T07:37:26Z</time>
      </trkpt>
      <trkpt lat="43.74955" lon="-1.42196">
        <ele>-17.39999961853</ele>
        <time>2020-08-08T07:37:32Z</time>
      </trkpt>
      <trkpt lat="43.74955" lon="-1.42204">
        <ele>-17.39999961853</ele>
        <time>2020-08-08T07:37:40Z</time>
      </trkpt>
      <trkpt lat="43.74955" lon="-1.42209">
        <ele>-17</ele>
        <time>2020-08-08T07:37:46Z</time>
      </trkpt>
      <trkpt lat="43.74955" lon="-1.4221">
        <ele>-16.39999961853</ele>
        <time>2020-08-08T07:37:47Z</time>
      </trkpt>
      <trkpt lat="43.74955" lon="-1.42212">
        <ele>-16</ele>
        <time>2020-08-08T07:37:48Z</time>
      </trkpt>
      <trkpt lat="43.74955" lon="-1.42213">
        <ele>-15.60000038147</ele>
        <time>2020-08-08T07:37:49Z</time>
      </trkpt>
      <trkpt lat="43.74955" lon="-1.42214">
        <ele>-15.199999809265</ele>
        <time>2020-08-08T07:37:50Z</time>
      </trkpt>
      <trkpt lat="43.74955" lon="-1.42217">
        <ele>-15.199999809265</ele>
        <time>2020-08-08T07:37:55Z</time>
      </trkpt>
      <trkpt lat="43.74955" lon="-1.42221">
        <ele>-14.800000190735</ele>
        <time>2020-08-08T07:38:00Z</time>
      </trkpt>
      <trkpt lat="43.74956" lon="-1.42222">
        <ele>-14.39999961853</ele>
        <time>2020-08-08T07:38:01Z</time>
      </trkpt>
      <trkpt lat="43.74956" lon="-1.42222">
        <ele>-14</ele>
        <time>2020-08-08T07:38:02Z</time>
      </trkpt>
      <trkpt lat="43.74956" lon="-1.42223">
        <ele>-13.60000038147</ele>
        <time>2020-08-08T07:38:03Z</time>
      </trkpt>
      <trkpt lat="43.74956" lon="-1.42223">
        <ele>-13.199999809265</ele>
        <time>2020-08-08T07:38:04Z</time>
      </trkpt>
      <trkpt lat="43.74956" lon="-1.42225">
        <ele>-13.199999809265</ele>
        <time>2020-08-08T07:38:07Z</time>
      </trkpt>
      <trkpt lat="43.74957" lon="-1.42231">
        <ele>-12.800000190735</ele>
        <time>2020-08-08T07:38:13Z</time>
      </trkpt>
      <trkpt lat="43.74957" lon="-1.42232">
        <ele>-12.39999961853</ele>
        <time>2020-08-08T07:38:14Z</time>
      </trkpt>
      <trkpt lat="43.74957" lon="-1.42233">
        <ele>-12</ele>
        <time>2020-08-08T07:38:16Z</time>
      </trkpt>
      <trkpt lat="43.74957" lon="-1.42233">
        <ele>-11.60000038147</ele>
        <time>2020-08-08T07:38:17Z</time>
      </trkpt>
      <trkpt lat="43.74957" lon="-1.42234">
        <ele>-11.199999809265</ele>
        <time>2020-08-08T07:38:18Z</time>
      </trkpt>
      <trkpt lat="43.74957" lon="-1.42236">
        <ele>-11.199999809265</ele>
        <time>2020-08-08T07:38:20Z</time>
      </trkpt>
      <trkpt lat="43.74959" lon="-1.42244">
        <ele>-11.199999809265</ele>
        <time>2020-08-08T07:38:27Z</time>
      </trkpt>
      <trkpt lat="43.7496" lon="-1.42253">
        <ele>-11.199999809265</ele>
        <time>2020-08-08T07:38:35Z</time>
      </trkpt>
      <trkpt lat="43.74963" lon="-1.42261">
        <ele>-11.199999809265</ele>
        <time>2020-08-08T07:38:44Z</time>
      </trkpt>
      <trkpt lat="43.74966" lon="-1.42271">
        <ele>-11.199999809265</ele>
        <time>2020-08-08T07:38:52Z</time>
      </trkpt>
      <trkpt lat="43.74967" lon="-1.42279">
        <ele>-11.199999809265</ele>
        <time>2020-08-08T07:38:59Z</time>
      </trkpt>
      <trkpt lat="43.74967" lon="-1.42281">
        <ele>-10.800000190735</ele>
        <time>2020-08-08T07:39:01Z</time>
      </trkpt>
      <trkpt lat="43.74967" lon="-1.42282">
        <ele>-10.39999961853</ele>
        <time>2020-08-08T07:39:02Z</time>
      </trkpt>
      <trkpt lat="43.74966" lon="-1.42282">
        <ele>-10</ele>
        <time>2020-08-08T07:39:03Z</time>
      </trkpt>
      <trkpt lat="43.74966" lon="-1.42284">
        <ele>-9.6000003814697</ele>
        <time>2020-08-08T07:39:04Z</time>
      </trkpt>
      <trkpt lat="43.74967" lon="-1.42284">
        <ele>-9.1999998092651</ele>
        <time>2020-08-08T07:39:05Z</time>
      </trkpt>
      <trkpt lat="43.74967" lon="-1.42286">
        <ele>-9.1999998092651</ele>
        <time>2020-08-08T07:39:07Z</time>
      </trkpt>
      <trkpt lat="43.74967" lon="-1.42293">
        <ele>-9.1999998092651</ele>
        <time>2020-08-08T07:39:15Z</time>
      </trkpt>
      <trkpt lat="43.74967" lon="-1.423">
        <ele>-9.1999998092651</ele>
        <time>2020-08-08T07:39:21Z</time>
      </trkpt>
      <trkpt lat="43.74967" lon="-1.42308">
        <ele>-9.1999998092651</ele>
        <time>2020-08-08T07:39:28Z</time>
      </trkpt>
      <trkpt lat="43.74969" lon="-1.42315">
        <ele>-8.8000001907349</ele>
        <time>2020-08-08T07:39:35Z</time>
      </trkpt>
      <trkpt lat="43.74969" lon="-1.42317">
        <ele>-8.3999996185303</ele>
        <time>2020-08-08T07:39:36Z</time>
      </trkpt>
      <trkpt lat="43.74969" lon="-1.42318">
        <ele>-8</ele>
        <time>2020-08-08T07:39:37Z</time>
      </trkpt>
      <trkpt lat="43.74969" lon="-1.42319">
        <ele>-7.4000000953674</ele>
        <time>2020-08-08T07:39:38Z</time>
      </trkpt>
      <trkpt lat="43.74969" lon="-1.4232">
        <ele>-7</ele>
        <time>2020-08-08T07:39:39Z</time>
      </trkpt>
      <trkpt lat="43.74969" lon="-1.42323">
        <ele>-7</ele>
        <time>2020-08-08T07:39:42Z</time>
      </trkpt>
      <trkpt lat="43.74969" lon="-1.42332">
        <ele>-7</ele>
        <time>2020-08-08T07:39:49Z</time>
      </trkpt>
      <trkpt lat="43.7497" lon="-1.42337">
        <ele>-7</ele>
        <time>2020-08-08T07:39:55Z</time>
      </trkpt>
      <trkpt lat="43.7497" lon="-1.42339">
        <ele>-7</ele>
        <time>2020-08-08T07:39:57Z</time>
      </trkpt>
      <trkpt lat="43.74971" lon="-1.42345">
        <ele>-7</ele>
        <time>2020-08-08T07:40:03Z</time>
      </trkpt>
      <trkpt lat="43.7497" lon="-1.42346">
        <ele>-7</ele>
        <time>2020-08-08T07:40:04Z</time>
      </trkpt>
      <trkpt lat="43.7497" lon="-1.42347">
        <ele>-6.5999999046326</ele>
        <time>2020-08-08T07:40:05Z</time>
      </trkpt>
      <trkpt lat="43.7497" lon="-1.42348">
        <ele>-6.1999998092651</ele>
        <time>2020-08-08T07:40:06Z</time>
      </trkpt>
      <trkpt lat="43.7497" lon="-1.4235">
        <ele>-5.8000001907349</ele>
        <time>2020-08-08T07:40:07Z</time>
      </trkpt>
      <trkpt lat="43.7497" lon="-1.42351">
        <ele>-5.1999998092651</ele>
        <time>2020-08-08T07:40:08Z</time>
      </trkpt>
      <trkpt lat="43.7497" lon="-1.42353">
        <ele>-4.8000001907349</ele>
        <time>2020-08-08T07:40:09Z</time>
      </trkpt>
      <trkpt lat="43.74973" lon="-1.4236">
        <ele>-4.8000001907349</ele>
        <time>2020-08-08T07:40:17Z</time>
      </trkpt>
      <trkpt lat="43.74974" lon="-1.42371">
        <ele>-4.8000001907349</ele>
        <time>2020-08-08T07:40:25Z</time>
      </trkpt>
      <trkpt lat="43.74976" lon="-1.42384">
        <ele>-4.8000001907349</ele>
        <time>2020-08-08T07:40:34Z</time>
      </trkpt>
      <trkpt lat="43.74977" lon="-1.42396">
        <ele>-4.8000001907349</ele>
        <time>2020-08-08T07:40:43Z</time>
      </trkpt>
      <trkpt lat="43.74979" lon="-1.42408">
        <ele>-4.8000001907349</ele>
        <time>2020-08-08T07:40:52Z</time>
      </trkpt>
      <trkpt lat="43.74979" lon="-1.42413">
        <ele>-4.8000001907349</ele>
        <time>2020-08-08T07:40:56Z</time>
      </trkpt>
      <trkpt lat="43.7498" lon="-1.42416">
        <ele>-4.8000001907349</ele>
        <time>2020-08-08T07:41:00Z</time>
      </trkpt>
      <trkpt lat="43.74982" lon="-1.42422">
        <ele>-4.8000001907349</ele>
        <time>2020-08-08T07:41:06Z</time>
      </trkpt>
      <trkpt lat="43.74985" lon="-1.42432">
        <ele>-4.8000001907349</ele>
        <time>2020-08-08T07:41:15Z</time>
      </trkpt>
      <trkpt lat="43.74986" lon="-1.42437">
        <ele>-4.8000001907349</ele>
        <time>2020-08-08T07:41:22Z</time>
      </trkpt>
      <trkpt lat="43.74987" lon="-1.42443">
        <ele>-4.8000001907349</ele>
        <time>2020-08-08T07:41:30Z</time>
      </trkpt>
      <trkpt lat="43.74988" lon="-1.42446">
        <ele>-4.8000001907349</ele>
        <time>2020-08-08T07:41:37Z</time>
      </trkpt>
      <trkpt lat="43.74988" lon="-1.42446">
        <ele>-4.8000001907349</ele>
        <time>2020-08-08T07:41:49Z</time>
      </trkpt>
      <trkpt lat="43.74988" lon="-1.42446">
        <ele>-4.8000001907349</ele>
        <time>2020-08-08T07:42:01Z</time>
      </trkpt>
      <trkpt lat="43.74988" lon="-1.42446">
        <ele>-4.8000001907349</ele>
        <time>2020-08-08T07:42:15Z</time>
      </trkpt>
      <trkpt lat="43.74988" lon="-1.42446">
        <ele>-4.8000001907349</ele>
        <time>2020-08-08T07:42:23Z</time>
      </trkpt>
      <trkpt lat="43.74988" lon="-1.42446">
        <ele>-4.8000001907349</ele>
        <time>2020-08-08T07:42:31Z</time>
      </trkpt>
      <trkpt lat="43.74988" lon="-1.42446">
        <ele>-4.8000001907349</ele>
        <time>2020-08-08T07:42:45Z</time>
      </trkpt>
      <trkpt lat="43.74988" lon="-1.42446">
        <ele>-4.8000001907349</ele>
        <time>2020-08-08T07:43:02Z</time>
      </trkpt>
      <trkpt lat="43.74988" lon="-1.42446">
        <ele>-4.8000001907349</ele>
        <time>2020-08-08T07:43:14Z</time>
      </trkpt>
      <trkpt lat="43.74988" lon="-1.42446">
        <ele>-4.8000001907349</ele>
        <time>2020-08-08T07:43:30Z</time>
      </trkpt>
      <trkpt lat="43.74988" lon="-1.42446">
        <ele>-4.8000001907349</ele>
        <time>2020-08-08T07:43:31Z</time>
      </trkpt>
      <trkpt lat="43.74987" lon="-1.42445">
        <ele>-4.8000001907349</ele>
        <time>2020-08-08T07:43:34Z</time>
      </trkpt>
      <trkpt lat="43.74986" lon="-1.42441">
        <ele>-4.8000001907349</ele>
        <time>2020-08-08T07:43:40Z</time>
      </trkpt>
      <trkpt lat="43.74985" lon="-1.42437">
        <ele>-4.8000001907349</ele>
        <time>2020-08-08T07:43:48Z</time>
      </trkpt>
      <trkpt lat="43.74985" lon="-1.42436">
        <ele>-4.8000001907349</ele>
        <time>2020-08-08T07:44:00Z</time>
      </trkpt>
      <trkpt lat="43.74983" lon="-1.42426">
        <ele>-4.8000001907349</ele>
        <time>2020-08-08T07:44:08Z</time>
      </trkpt>
      <trkpt lat="43.7498" lon="-1.42418">
        <ele>-4.8000001907349</ele>
        <time>2020-08-08T07:44:15Z</time>
      </trkpt>
      <trkpt lat="43.74979" lon="-1.42409">
        <ele>-4.8000001907349</ele>
        <time>2020-08-08T07:44:22Z</time>
      </trkpt>
      <trkpt lat="43.74977" lon="-1.42397">
        <ele>-4.8000001907349</ele>
        <time>2020-08-08T07:44:31Z</time>
      </trkpt>
      <trkpt lat="43.74976" lon="-1.42388">
        <ele>-4.8000001907349</ele>
        <time>2020-08-08T07:44:39Z</time>
      </trkpt>
      <trkpt lat="43.74976" lon="-1.4238">
        <ele>-4.8000001907349</ele>
        <time>2020-08-08T07:44:46Z</time>
      </trkpt>
      <trkpt lat="43.74974" lon="-1.42371">
        <ele>-4.8000001907349</ele>
        <time>2020-08-08T07:44:53Z</time>
      </trkpt>
      <trkpt lat="43.74973" lon="-1.42363">
        <ele>-4.8000001907349</ele>
        <time>2020-08-08T07:45:01Z</time>
      </trkpt>
      <trkpt lat="43.74973" lon="-1.42362">
        <ele>-4.8000001907349</ele>
        <time>2020-08-08T07:45:02Z</time>
      </trkpt>
      <trkpt lat="43.74972" lon="-1.42358">
        <ele>-4.8000001907349</ele>
        <time>2020-08-08T07:45:05Z</time>
      </trkpt>
      <trkpt lat="43.74971" lon="-1.42357">
        <ele>-4.8000001907349</ele>
        <time>2020-08-08T07:45:06Z</time>
      </trkpt>
      <trkpt lat="43.74971" lon="-1.42346">
        <ele>-4.8000001907349</ele>
        <time>2020-08-08T07:45:14Z</time>
      </trkpt>
      <trkpt lat="43.74971" lon="-1.42334">
        <ele>-4.8000001907349</ele>
        <time>2020-08-08T07:45:23Z</time>
      </trkpt>
      <trkpt lat="43.7497" lon="-1.42326">
        <ele>-5.5999999046326</ele>
        <time>2020-08-08T07:45:29Z</time>
      </trkpt>
      <trkpt lat="43.7497" lon="-1.42324">
        <ele>-6</ele>
        <time>2020-08-08T07:45:30Z</time>
      </trkpt>
      <trkpt lat="43.7497" lon="-1.42322">
        <ele>-6.4000000953674</ele>
        <time>2020-08-08T07:45:31Z</time>
      </trkpt>
      <trkpt lat="43.7497" lon="-1.42321">
        <ele>-6.8000001907349</ele>
        <time>2020-08-08T07:45:32Z</time>
      </trkpt>
      <trkpt lat="43.7497" lon="-1.42319">
        <ele>-6.8000001907349</ele>
        <time>2020-08-08T07:45:33Z</time>
      </trkpt>
      <trkpt lat="43.74968" lon="-1.42306">
        <ele>-6.8000001907349</ele>
        <time>2020-08-08T07:45:42Z</time>
      </trkpt>
      <trkpt lat="43.74968" lon="-1.42296">
        <ele>-6.8000001907349</ele>
        <time>2020-08-08T07:45:50Z</time>
      </trkpt>
      <trkpt lat="43.74967" lon="-1.42287">
        <ele>-7.1999998092651</ele>
        <time>2020-08-08T07:45:57Z</time>
      </trkpt>
      <trkpt lat="43.74967" lon="-1.42285">
        <ele>-7.5999999046326</ele>
        <time>2020-08-08T07:45:58Z</time>
      </trkpt>
      <trkpt lat="43.74967" lon="-1.42284">
        <ele>-8</ele>
        <time>2020-08-08T07:45:59Z</time>
      </trkpt>
      <trkpt lat="43.74967" lon="-1.42283">
        <ele>-8.3999996185303</ele>
        <time>2020-08-08T07:46:00Z</time>
      </trkpt>
      <trkpt lat="43.74967" lon="-1.42281">
        <ele>-8.8000001907349</ele>
        <time>2020-08-08T07:46:01Z</time>
      </trkpt>
      <trkpt lat="43.74967" lon="-1.42273">
        <ele>-8.8000001907349</ele>
        <time>2020-08-08T07:46:06Z</time>
      </trkpt>
      <trkpt lat="43.74964" lon="-1.42266">
        <ele>-8.8000001907349</ele>
        <time>2020-08-08T07:46:13Z</time>
      </trkpt>
      <trkpt lat="43.74961" lon="-1.42258">
        <ele>-8.8000001907349</ele>
        <time>2020-08-08T07:46:20Z</time>
      </trkpt>
      <trkpt lat="43.74959" lon="-1.42248">
        <ele>-8.8000001907349</ele>
        <time>2020-08-08T07:46:27Z</time>
      </trkpt>
      <trkpt lat="43.74958" lon="-1.42244">
        <ele>-9.1999998092651</ele>
        <time>2020-08-08T07:46:30Z</time>
      </trkpt>
      <trkpt lat="43.74958" lon="-1.42243">
        <ele>-9.6000003814697</ele>
        <time>2020-08-08T07:46:31Z</time>
      </trkpt>
      <trkpt lat="43.74957" lon="-1.42241">
        <ele>-10</ele>
        <time>2020-08-08T07:46:32Z</time>
      </trkpt>
      <trkpt lat="43.74957" lon="-1.4224">
        <ele>-10.60000038147</ele>
        <time>2020-08-08T07:46:33Z</time>
      </trkpt>
      <trkpt lat="43.74957" lon="-1.42239">
        <ele>-11</ele>
        <time>2020-08-08T07:46:34Z</time>
      </trkpt>
      <trkpt lat="43.74957" lon="-1.42238">
        <ele>-11</ele>
        <time>2020-08-08T07:46:35Z</time>
      </trkpt>
      <trkpt lat="43.74956" lon="-1.42226">
        <ele>-11</ele>
        <time>2020-08-08T07:46:44Z</time>
      </trkpt>
      <trkpt lat="43.74955" lon="-1.42218">
        <ele>-11.39999961853</ele>
        <time>2020-08-08T07:46:51Z</time>
      </trkpt>
      <trkpt lat="43.74955" lon="-1.42216">
        <ele>-11.800000190735</ele>
        <time>2020-08-08T07:46:52Z</time>
      </trkpt>
      <trkpt lat="43.74955" lon="-1.42215">
        <ele>-12.199999809265</ele>
        <time>2020-08-08T07:46:53Z</time>
      </trkpt>
      <trkpt lat="43.74955" lon="-1.42214">
        <ele>-12.60000038147</ele>
        <time>2020-08-08T07:46:54Z</time>
      </trkpt>
      <trkpt lat="43.74955" lon="-1.42212">
        <ele>-13</ele>
        <time>2020-08-08T07:46:55Z</time>
      </trkpt>
      <trkpt lat="43.74954" lon="-1.42206">
        <ele>-13.39999961853</ele>
        <time>2020-08-08T07:46:59Z</time>
      </trkpt>
      <trkpt lat="43.74954" lon="-1.42204">
        <ele>-13.800000190735</ele>
        <time>2020-08-08T07:47:00Z</time>
      </trkpt>
      <trkpt lat="43.74954" lon="-1.42202">
        <ele>-14.199999809265</ele>
        <time>2020-08-08T07:47:01Z</time>
      </trkpt>
      <trkpt lat="43.74954" lon="-1.422">
        <ele>-14.60000038147</ele>
        <time>2020-08-08T07:47:02Z</time>
      </trkpt>
      <trkpt lat="43.74954" lon="-1.42199">
        <ele>-15</ele>
        <time>2020-08-08T07:47:03Z</time>
      </trkpt>
      <trkpt lat="43.74953" lon="-1.42194">
        <ele>-15</ele>
        <time>2020-08-08T07:47:07Z</time>
      </trkpt>
      <trkpt lat="43.74953" lon="-1.42193">
        <ele>-15.800000190735</ele>
        <time>2020-08-08T07:47:08Z</time>
      </trkpt>
      <trkpt lat="43.74953" lon="-1.42191">
        <ele>-16.200000762939</ele>
        <time>2020-08-08T07:47:09Z</time>
      </trkpt>
      <trkpt lat="43.74953" lon="-1.4219">
        <ele>-16.60000038147</ele>
        <time>2020-08-08T07:47:10Z</time>
      </trkpt>
      <trkpt lat="43.74953" lon="-1.42189">
        <ele>-17.200000762939</ele>
        <time>2020-08-08T07:47:11Z</time>
      </trkpt>
      <trkpt lat="43.74951" lon="-1.42182">
        <ele>-17.200000762939</ele>
        <time>2020-08-08T07:47:16Z</time>
      </trkpt>
      <trkpt lat="43.74949" lon="-1.42172">
        <ele>-17.200000762939</ele>
        <time>2020-08-08T07:47:25Z</time>
      </trkpt>
      <trkpt lat="43.74948" lon="-1.42163">
        <ele>-17.200000762939</ele>
        <time>2020-08-08T07:47:32Z</time>
      </trkpt>
      <trkpt lat="43.74949" lon="-1.42153">
        <ele>-17.200000762939</ele>
        <time>2020-08-08T07:47:39Z</time>
      </trkpt>
      <trkpt lat="43.74951" lon="-1.42145">
        <ele>-17.200000762939</ele>
        <time>2020-08-08T07:47:47Z</time>
      </trkpt>
      <trkpt lat="43.74951" lon="-1.42145">
        <ele>-17.200000762939</ele>
        <time>2020-08-08T07:48:00Z</time>
      </trkpt>
      <trkpt lat="43.74951" lon="-1.42145">
        <ele>-17.200000762939</ele>
        <time>2020-08-08T07:48:13Z</time>
      </trkpt>
      <trkpt lat="43.74951" lon="-1.42145">
        <ele>-17.200000762939</ele>
        <time>2020-08-08T07:48:25Z</time>
      </trkpt>
      <trkpt lat="43.74953" lon="-1.42142">
        <ele>-17.200000762939</ele>
        <time>2020-08-08T07:48:33Z</time>
      </trkpt>
      <trkpt lat="43.74955" lon="-1.42134">
        <ele>-17.200000762939</ele>
        <time>2020-08-08T07:48:38Z</time>
      </trkpt>
      <trkpt lat="43.74956" lon="-1.42128">
        <ele>-17.200000762939</ele>
        <time>2020-08-08T07:48:43Z</time>
      </trkpt>
      <trkpt lat="43.74955" lon="-1.42126">
        <ele>-17.200000762939</ele>
        <time>2020-08-08T07:48:44Z</time>
      </trkpt>
      <trkpt lat="43.74954" lon="-1.42116">
        <ele>-17.200000762939</ele>
        <time>2020-08-08T07:48:51Z</time>
      </trkpt>
      <trkpt lat="43.74954" lon="-1.42108">
        <ele>-17.200000762939</ele>
        <time>2020-08-08T07:48:57Z</time>
      </trkpt>
      <trkpt lat="43.74952" lon="-1.42099">
        <ele>-17.200000762939</ele>
        <time>2020-08-08T07:49:02Z</time>
      </trkpt>
      <trkpt lat="43.74954" lon="-1.42096">
        <ele>-17.200000762939</ele>
        <time>2020-08-08T07:49:08Z</time>
      </trkpt>
      <trkpt lat="43.74954" lon="-1.42093">
        <ele>-17.200000762939</ele>
        <time>2020-08-08T07:49:14Z</time>
      </trkpt>
      <trkpt lat="43.74958" lon="-1.42083">
        <ele>-17.200000762939</ele>
        <time>2020-08-08T07:49:20Z</time>
      </trkpt>
      <trkpt lat="43.7496" lon="-1.42072">
        <ele>-17.200000762939</ele>
        <time>2020-08-08T07:49:25Z</time>
      </trkpt>
      <trkpt lat="43.74962" lon="-1.4207">
        <ele>-17.200000762939</ele>
        <time>2020-08-08T07:49:27Z</time>
      </trkpt>
      <trkpt lat="43.74964" lon="-1.42064">
        <ele>-17.200000762939</ele>
        <time>2020-08-08T07:49:31Z</time>
      </trkpt>
      <trkpt lat="43.74964" lon="-1.42061">
        <ele>-17.200000762939</ele>
        <time>2020-08-08T07:49:32Z</time>
      </trkpt>
      <trkpt lat="43.74963" lon="-1.42054">
        <ele>-17.200000762939</ele>
        <time>2020-08-08T07:49:35Z</time>
      </trkpt>
      <trkpt lat="43.74963" lon="-1.4205">
        <ele>-16.799999237061</ele>
        <time>2020-08-08T07:49:37Z</time>
      </trkpt>
      <trkpt lat="43.74963" lon="-1.42049">
        <ele>-16.200000762939</ele>
        <time>2020-08-08T07:49:38Z</time>
      </trkpt>
      <trkpt lat="43.74963" lon="-1.42048">
        <ele>-15.800000190735</ele>
        <time>2020-08-08T07:49:39Z</time>
      </trkpt>
      <trkpt lat="43.74962" lon="-1.42046">
        <ele>-15.39999961853</ele>
        <time>2020-08-08T07:49:40Z</time>
      </trkpt>
      <trkpt lat="43.74961" lon="-1.42044">
        <ele>-15</ele>
        <time>2020-08-08T07:49:41Z</time>
      </trkpt>
      <trkpt lat="43.74959" lon="-1.42041">
        <ele>-15</ele>
        <time>2020-08-08T07:49:43Z</time>
      </trkpt>
      <trkpt lat="43.74959" lon="-1.42039">
        <ele>-15</ele>
        <time>2020-08-08T07:49:44Z</time>
      </trkpt>
      <trkpt lat="43.74958" lon="-1.42033">
        <ele>-15</ele>
        <time>2020-08-08T07:49:46Z</time>
      </trkpt>
      <trkpt lat="43.74955" lon="-1.42025">
        <ele>-15</ele>
        <time>2020-08-08T07:49:50Z</time>
      </trkpt>
      <trkpt lat="43.74954" lon="-1.4202">
        <ele>-14.60000038147</ele>
        <time>2020-08-08T07:49:54Z</time>
      </trkpt>
      <trkpt lat="43.74954" lon="-1.42018">
        <ele>-14.199999809265</ele>
        <time>2020-08-08T07:49:55Z</time>
      </trkpt>
      <trkpt lat="43.74954" lon="-1.42017">
        <ele>-13.800000190735</ele>
        <time>2020-08-08T07:49:56Z</time>
      </trkpt>
      <trkpt lat="43.74953" lon="-1.42016">
        <ele>-13.39999961853</ele>
        <time>2020-08-08T07:49:57Z</time>
      </trkpt>
      <trkpt lat="43.74953" lon="-1.42015">
        <ele>-13</ele>
        <time>2020-08-08T07:49:58Z</time>
      </trkpt>
      <trkpt lat="43.74953" lon="-1.42013">
        <ele>-13</ele>
        <time>2020-08-08T07:50:01Z</time>
      </trkpt>
      <trkpt lat="43.7495" lon="-1.42007">
        <ele>-13</ele>
        <time>2020-08-08T07:50:08Z</time>
      </trkpt>
      <trkpt lat="43.74947" lon="-1.41988">
        <ele>-13</ele>
        <time>2020-08-08T07:50:15Z</time>
      </trkpt>
      <trkpt lat="43.74944" lon="-1.41981">
        <ele>-12.60000038147</ele>
        <time>2020-08-08T07:50:18Z</time>
      </trkpt>
      <trkpt lat="43.74943" lon="-1.41979">
        <ele>-12.199999809265</ele>
        <time>2020-08-08T07:50:19Z</time>
      </trkpt>
      <trkpt lat="43.74942" lon="-1.41977">
        <ele>-11.800000190735</ele>
        <time>2020-08-08T07:50:20Z</time>
      </trkpt>
      <trkpt lat="43.7494" lon="-1.41975">
        <ele>-11.39999961853</ele>
        <time>2020-08-08T07:50:21Z</time>
      </trkpt>
      <trkpt lat="43.74939" lon="-1.41974">
        <ele>-10.800000190735</ele>
        <time>2020-08-08T07:50:22Z</time>
      </trkpt>
      <trkpt lat="43.74937" lon="-1.4197">
        <ele>-10.800000190735</ele>
        <time>2020-08-08T07:50:24Z</time>
      </trkpt>
      <trkpt lat="43.74932" lon="-1.41963">
        <ele>-10.800000190735</ele>
        <time>2020-08-08T07:50:30Z</time>
      </trkpt>
      <trkpt lat="43.74931" lon="-1.41961">
        <ele>-10.800000190735</ele>
        <time>2020-08-08T07:50:31Z</time>
      </trkpt>
      <trkpt lat="43.74929" lon="-1.4195">
        <ele>-10.800000190735</ele>
        <time>2020-08-08T07:50:36Z</time>
      </trkpt>
      <trkpt lat="43.7493" lon="-1.41937">
        <ele>-10.800000190735</ele>
        <time>2020-08-08T07:50:42Z</time>
      </trkpt>
      <trkpt lat="43.74931" lon="-1.41925">
        <ele>-10.800000190735</ele>
        <time>2020-08-08T07:50:48Z</time>
      </trkpt>
      <trkpt lat="43.7493" lon="-1.4191">
        <ele>-10.800000190735</ele>
        <time>2020-08-08T07:50:54Z</time>
      </trkpt>
      <trkpt lat="43.74928" lon="-1.41884">
        <ele>-10.800000190735</ele>
        <time>2020-08-08T07:51:02Z</time>
      </trkpt>
      <trkpt lat="43.74925" lon="-1.41858">
        <ele>-10.800000190735</ele>
        <time>2020-08-08T07:51:09Z</time>
      </trkpt>
      <trkpt lat="43.74925" lon="-1.4185">
        <ele>-10.800000190735</ele>
        <time>2020-08-08T07:51:15Z</time>
      </trkpt>
      <trkpt lat="43.74923" lon="-1.41847">
        <ele>-10.800000190735</ele>
        <time>2020-08-08T07:51:21Z</time>
      </trkpt>
      <trkpt lat="43.74922" lon="-1.41845">
        <ele>-10.800000190735</ele>
        <time>2020-08-08T07:51:23Z</time>
      </trkpt>
      <trkpt lat="43.74921" lon="-1.41839">
        <ele>-10.800000190735</ele>
        <time>2020-08-08T07:51:27Z</time>
      </trkpt>
      <trkpt lat="43.74922" lon="-1.41828">
        <ele>-10.800000190735</ele>
        <time>2020-08-08T07:51:33Z</time>
      </trkpt>
      <trkpt lat="43.7492" lon="-1.41815">
        <ele>-10.800000190735</ele>
        <time>2020-08-08T07:51:41Z</time>
      </trkpt>
      <trkpt lat="43.74918" lon="-1.41803">
        <ele>-10.800000190735</ele>
        <time>2020-08-08T07:51:48Z</time>
      </trkpt>
      <trkpt lat="43.74917" lon="-1.41793">
        <ele>-10.800000190735</ele>
        <time>2020-08-08T07:51:54Z</time>
      </trkpt>
      <trkpt lat="43.74915" lon="-1.41781">
        <ele>-10.800000190735</ele>
        <time>2020-08-08T07:52:01Z</time>
      </trkpt>
      <trkpt lat="43.74913" lon="-1.41771">
        <ele>-10.800000190735</ele>
        <time>2020-08-08T07:52:08Z</time>
      </trkpt>
      <trkpt lat="43.74914" lon="-1.41764">
        <ele>-11.199999809265</ele>
        <time>2020-08-08T07:52:12Z</time>
      </trkpt>
      <trkpt lat="43.74914" lon="-1.41762">
        <ele>-11.60000038147</ele>
        <time>2020-08-08T07:52:13Z</time>
      </trkpt>
      <trkpt lat="43.74914" lon="-1.4176">
        <ele>-12</ele>
        <time>2020-08-08T07:52:14Z</time>
      </trkpt>
      <trkpt lat="43.74913" lon="-1.41758">
        <ele>-12.39999961853</ele>
        <time>2020-08-08T07:52:15Z</time>
      </trkpt>
      <trkpt lat="43.74913" lon="-1.41757">
        <ele>-12.800000190735</ele>
        <time>2020-08-08T07:52:16Z</time>
      </trkpt>
      <trkpt lat="43.74912" lon="-1.41744">
        <ele>-12.800000190735</ele>
        <time>2020-08-08T07:52:23Z</time>
      </trkpt>
      <trkpt lat="43.7491" lon="-1.41733">
        <ele>-12.800000190735</ele>
        <time>2020-08-08T07:52:30Z</time>
      </trkpt>
      <trkpt lat="43.74907" lon="-1.41725">
        <ele>-12.800000190735</ele>
        <time>2020-08-08T07:52:36Z</time>
      </trkpt>
      <trkpt lat="43.74907" lon="-1.41724">
        <ele>-12.800000190735</ele>
        <time>2020-08-08T07:52:37Z</time>
      </trkpt>
      <trkpt lat="43.74907" lon="-1.41713">
        <ele>-12.800000190735</ele>
        <time>2020-08-08T07:52:44Z</time>
      </trkpt>
      <trkpt lat="43.74904" lon="-1.41703">
        <ele>-12.800000190735</ele>
        <time>2020-08-08T07:52:51Z</time>
      </trkpt>
      <trkpt lat="43.74903" lon="-1.41696">
        <ele>-12.800000190735</ele>
        <time>2020-08-08T07:52:58Z</time>
      </trkpt>
      <trkpt lat="43.74901" lon="-1.41692">
        <ele>-12.800000190735</ele>
        <time>2020-08-08T07:53:03Z</time>
      </trkpt>
      <trkpt lat="43.74897" lon="-1.41674">
        <ele>-12.800000190735</ele>
        <time>2020-08-08T07:53:10Z</time>
      </trkpt>
      <trkpt lat="43.74897" lon="-1.41672">
        <ele>-12.800000190735</ele>
        <time>2020-08-08T07:53:11Z</time>
      </trkpt>
      <trkpt lat="43.74896" lon="-1.41665">
        <ele>-12.800000190735</ele>
        <time>2020-08-08T07:53:14Z</time>
      </trkpt>
      <trkpt lat="43.74895" lon="-1.41658">
        <ele>-12.800000190735</ele>
        <time>2020-08-08T07:53:17Z</time>
      </trkpt>
      <trkpt lat="43.74891" lon="-1.41643">
        <ele>-12.800000190735</ele>
        <time>2020-08-08T07:53:22Z</time>
      </trkpt>
      <trkpt lat="43.74892" lon="-1.41628">
        <ele>-13.199999809265</ele>
        <time>2020-08-08T07:53:27Z</time>
      </trkpt>
      <trkpt lat="43.74892" lon="-1.41626">
        <ele>-13.800000190735</ele>
        <time>2020-08-08T07:53:28Z</time>
      </trkpt>
      <trkpt lat="43.74892" lon="-1.41624">
        <ele>-14.199999809265</ele>
        <time>2020-08-08T07:53:29Z</time>
      </trkpt>
      <trkpt lat="43.74891" lon="-1.41622">
        <ele>-14.60000038147</ele>
        <time>2020-08-08T07:53:30Z</time>
      </trkpt>
      <trkpt lat="43.74891" lon="-1.41618">
        <ele>-15</ele>
        <time>2020-08-08T07:53:31Z</time>
      </trkpt>
      <trkpt lat="43.7489" lon="-1.41609">
        <ele>-15</ele>
        <time>2020-08-08T07:53:35Z</time>
      </trkpt>
      <trkpt lat="43.74888" lon="-1.41593">
        <ele>-15</ele>
        <time>2020-08-08T07:53:42Z</time>
      </trkpt>
      <trkpt lat="43.74887" lon="-1.41579">
        <ele>-15</ele>
        <time>2020-08-08T07:53:48Z</time>
      </trkpt>
      <trkpt lat="43.74885" lon="-1.41564">
        <ele>-15</ele>
        <time>2020-08-08T07:53:55Z</time>
      </trkpt>
      <trkpt lat="43.74885" lon="-1.41554">
        <ele>-15</ele>
        <time>2020-08-08T07:54:01Z</time>
      </trkpt>
      <trkpt lat="43.74884" lon="-1.41551">
        <ele>-15</ele>
        <time>2020-08-08T07:54:06Z</time>
      </trkpt>
      <trkpt lat="43.74884" lon="-1.41541">
        <ele>-15</ele>
        <time>2020-08-08T07:54:14Z</time>
      </trkpt>
      <trkpt lat="43.74884" lon="-1.41541">
        <ele>-15</ele>
        <time>2020-08-08T07:54:21Z</time>
      </trkpt>
      <trkpt lat="43.74882" lon="-1.41534">
        <ele>-15</ele>
        <time>2020-08-08T07:54:26Z</time>
      </trkpt>
      <trkpt lat="43.74881" lon="-1.41525">
        <ele>-15</ele>
        <time>2020-08-08T07:54:30Z</time>
      </trkpt>
      <trkpt lat="43.74881" lon="-1.41523">
        <ele>-15</ele>
        <time>2020-08-08T07:54:31Z</time>
      </trkpt>
      <trkpt lat="43.7488" lon="-1.41513">
        <ele>-15</ele>
        <time>2020-08-08T07:54:35Z</time>
      </trkpt>
      <trkpt lat="43.74878" lon="-1.41493">
        <ele>-15</ele>
        <time>2020-08-08T07:54:41Z</time>
      </trkpt>
      <trkpt lat="43.74872" lon="-1.41461">
        <ele>-15</ele>
        <time>2020-08-08T07:54:49Z</time>
      </trkpt>
      <trkpt lat="43.7487" lon="-1.4144">
        <ele>-15</ele>
        <time>2020-08-08T07:54:54Z</time>
      </trkpt>
      <trkpt lat="43.74867" lon="-1.41419">
        <ele>-15</ele>
        <time>2020-08-08T07:55:00Z</time>
      </trkpt>
      <trkpt lat="43.74862" lon="-1.41391">
        <ele>-15</ele>
        <time>2020-08-08T07:55:07Z</time>
      </trkpt>
      <trkpt lat="43.74859" lon="-1.41362">
        <ele>-15</ele>
        <time>2020-08-08T07:55:13Z</time>
      </trkpt>
      <trkpt lat="43.74862" lon="-1.41341">
        <ele>-15</ele>
        <time>2020-08-08T07:55:19Z</time>
      </trkpt>
      <trkpt lat="43.74862" lon="-1.41338">
        <ele>-15</ele>
        <time>2020-08-08T07:55:23Z</time>
      </trkpt>
      <trkpt lat="43.74863" lon="-1.41334">
        <ele>-15</ele>
        <time>2020-08-08T07:55:32Z</time>
      </trkpt>
      <trkpt lat="43.74867" lon="-1.41318">
        <ele>-15</ele>
        <time>2020-08-08T07:55:38Z</time>
      </trkpt>
      <trkpt lat="43.74869" lon="-1.41295">
        <ele>-15</ele>
        <time>2020-08-08T07:55:44Z</time>
      </trkpt>
      <trkpt lat="43.74868" lon="-1.41266">
        <ele>-15</ele>
        <time>2020-08-08T07:55:52Z</time>
      </trkpt>
      <trkpt lat="43.74866" lon="-1.41245">
        <ele>-15</ele>
        <time>2020-08-08T07:55:58Z</time>
      </trkpt>
      <trkpt lat="43.74865" lon="-1.41232">
        <ele>-15</ele>
        <time>2020-08-08T07:56:04Z</time>
      </trkpt>
      <trkpt lat="43.74866" lon="-1.4123">
        <ele>-15</ele>
        <time>2020-08-08T07:56:09Z</time>
      </trkpt>
      <trkpt lat="43.74866" lon="-1.41224">
        <ele>-15</ele>
        <time>2020-08-08T07:56:14Z</time>
      </trkpt>
      <trkpt lat="43.74866" lon="-1.41211">
        <ele>-15</ele>
        <time>2020-08-08T07:56:21Z</time>
      </trkpt>
      <trkpt lat="43.74867" lon="-1.41202">
        <ele>-15</ele>
        <time>2020-08-08T07:56:27Z</time>
      </trkpt>
      <trkpt lat="43.7487" lon="-1.41193">
        <ele>-15</ele>
        <time>2020-08-08T07:56:34Z</time>
      </trkpt>
      <trkpt lat="43.74872" lon="-1.4119">
        <ele>-15</ele>
        <time>2020-08-08T07:56:40Z</time>
      </trkpt>
      <trkpt lat="43.74875" lon="-1.41175">
        <ele>-15</ele>
        <time>2020-08-08T07:56:45Z</time>
      </trkpt>
      <trkpt lat="43.74875" lon="-1.41158">
        <ele>-15</ele>
        <time>2020-08-08T07:56:50Z</time>
      </trkpt>
      <trkpt lat="43.74868" lon="-1.41138">
        <ele>-15.39999961853</ele>
        <time>2020-08-08T07:56:57Z</time>
      </trkpt>
      <trkpt lat="43.74866" lon="-1.41135">
        <ele>-15.800000190735</ele>
        <time>2020-08-08T07:56:58Z</time>
      </trkpt>
      <trkpt lat="43.74865" lon="-1.41132">
        <ele>-16.200000762939</ele>
        <time>2020-08-08T07:56:59Z</time>
      </trkpt>
      <trkpt lat="43.74863" lon="-1.41128">
        <ele>-16.60000038147</ele>
        <time>2020-08-08T07:57:00Z</time>
      </trkpt>
      <trkpt lat="43.74862" lon="-1.41126">
        <ele>-17</ele>
        <time>2020-08-08T07:57:01Z</time>
      </trkpt>
      <trkpt lat="43.74857" lon="-1.41119">
        <ele>-17</ele>
        <time>2020-08-08T07:57:03Z</time>
      </trkpt>
      <trkpt lat="43.74849" lon="-1.41106">
        <ele>-17</ele>
        <time>2020-08-08T07:57:09Z</time>
      </trkpt>
      <trkpt lat="43.74845" lon="-1.41094">
        <ele>-17</ele>
        <time>2020-08-08T07:57:15Z</time>
      </trkpt>
      <trkpt lat="43.74846" lon="-1.41076">
        <ele>-17</ele>
        <time>2020-08-08T07:57:21Z</time>
      </trkpt>
      <trkpt lat="43.74847" lon="-1.41061">
        <ele>-17</ele>
        <time>2020-08-08T07:57:25Z</time>
      </trkpt>
      <trkpt lat="43.74848" lon="-1.41058">
        <ele>-17</ele>
        <time>2020-08-08T07:57:26Z</time>
      </trkpt>
      <trkpt lat="43.74846" lon="-1.41039">
        <ele>-17</ele>
        <time>2020-08-08T07:57:32Z</time>
      </trkpt>
      <trkpt lat="43.74844" lon="-1.41019">
        <ele>-17</ele>
        <time>2020-08-08T07:57:38Z</time>
      </trkpt>
      <trkpt lat="43.74842" lon="-1.40989">
        <ele>-17</ele>
        <time>2020-08-08T07:57:45Z</time>
      </trkpt>
      <trkpt lat="43.74836" lon="-1.40968">
        <ele>-17</ele>
        <time>2020-08-08T07:57:50Z</time>
      </trkpt>
      <trkpt lat="43.74828" lon="-1.40952">
        <ele>-17</ele>
        <time>2020-08-08T07:57:56Z</time>
      </trkpt>
      <trkpt lat="43.74818" lon="-1.40938">
        <ele>-17</ele>
        <time>2020-08-08T07:58:03Z</time>
      </trkpt>
      <trkpt lat="43.74802" lon="-1.40907">
        <ele>-17</ele>
        <time>2020-08-08T07:58:09Z</time>
      </trkpt>
      <trkpt lat="43.74791" lon="-1.40876">
        <ele>-17</ele>
        <time>2020-08-08T07:58:16Z</time>
      </trkpt>
      <trkpt lat="43.74788" lon="-1.40872">
        <ele>-17</ele>
        <time>2020-08-08T07:58:18Z</time>
      </trkpt>
      <trkpt lat="43.74783" lon="-1.4087">
        <ele>-17</ele>
        <time>2020-08-08T07:58:20Z</time>
      </trkpt>
      <trkpt lat="43.74775" lon="-1.40876">
        <ele>-17</ele>
        <time>2020-08-08T07:58:25Z</time>
      </trkpt>
      <trkpt lat="43.74773" lon="-1.40877">
        <ele>-17</ele>
        <time>2020-08-08T07:58:26Z</time>
      </trkpt>
      <trkpt lat="43.74765" lon="-1.40882">
        <ele>-17</ele>
        <time>2020-08-08T07:58:30Z</time>
      </trkpt>
      <trkpt lat="43.74756" lon="-1.40886">
        <ele>-17</ele>
        <time>2020-08-08T07:58:34Z</time>
      </trkpt>
      <trkpt lat="43.74754" lon="-1.40886">
        <ele>-17</ele>
        <time>2020-08-08T07:58:35Z</time>
      </trkpt>
      <trkpt lat="43.74748" lon="-1.40889">
        <ele>-17</ele>
        <time>2020-08-08T07:58:38Z</time>
      </trkpt>
      <trkpt lat="43.74735" lon="-1.40896">
        <ele>-17</ele>
        <time>2020-08-08T07:58:42Z</time>
      </trkpt>
      <trkpt lat="43.74718" lon="-1.40909">
        <ele>-17</ele>
        <time>2020-08-08T07:58:47Z</time>
      </trkpt>
      <trkpt lat="43.74697" lon="-1.40933">
        <ele>-17</ele>
        <time>2020-08-08T07:58:54Z</time>
      </trkpt>
      <trkpt lat="43.7468" lon="-1.40946">
        <ele>-17</ele>
        <time>2020-08-08T07:59:00Z</time>
      </trkpt>
      <trkpt lat="43.7466" lon="-1.40958">
        <ele>-17</ele>
        <time>2020-08-08T07:59:06Z</time>
      </trkpt>
      <trkpt lat="43.74644" lon="-1.40967">
        <ele>-17</ele>
        <time>2020-08-08T07:59:13Z</time>
      </trkpt>
      <trkpt lat="43.74634" lon="-1.40973">
        <ele>-17</ele>
        <time>2020-08-08T07:59:19Z</time>
      </trkpt>
      <trkpt lat="43.74625" lon="-1.4098">
        <ele>-17</ele>
        <time>2020-08-08T07:59:25Z</time>
      </trkpt>
      <trkpt lat="43.74621" lon="-1.40981">
        <ele>-17</ele>
        <time>2020-08-08T07:59:31Z</time>
      </trkpt>
      <trkpt lat="43.74621" lon="-1.40981">
        <ele>-17</ele>
        <time>2020-08-08T07:59:37Z</time>
      </trkpt>
      <trkpt lat="43.74621" lon="-1.40979">
        <ele>-17</ele>
        <time>2020-08-08T07:59:43Z</time>
      </trkpt>
      <trkpt lat="43.74623" lon="-1.40976">
        <ele>-17</ele>
        <time>2020-08-08T07:59:45Z</time>
      </trkpt>
      <trkpt lat="43.7463" lon="-1.4097">
        <ele>-17</ele>
        <time>2020-08-08T07:59:49Z</time>
      </trkpt>
      <trkpt lat="43.74632" lon="-1.40968">
        <ele>-17</ele>
        <time>2020-08-08T07:59:50Z</time>
      </trkpt>
      <trkpt lat="43.74648" lon="-1.40959">
        <ele>-17</ele>
        <time>2020-08-08T07:59:57Z</time>
      </trkpt>
      <trkpt lat="43.74656" lon="-1.40958">
        <ele>-17</ele>
        <time>2020-08-08T08:00:03Z</time>
      </trkpt>
      <trkpt lat="43.74656" lon="-1.40959">
        <ele>-17</ele>
        <time>2020-08-08T08:00:12Z</time>
      </trkpt>
      <trkpt lat="43.74653" lon="-1.4096">
        <ele>-17</ele>
        <time>2020-08-08T08:00:19Z</time>
      </trkpt>
      <trkpt lat="43.74653" lon="-1.4096">
        <ele>-17</ele>
        <time>2020-08-08T08:00:27Z</time>
      </trkpt>
      <trkpt lat="43.74653" lon="-1.4096">
        <ele>-17</ele>
        <time>2020-08-08T08:00:38Z</time>
      </trkpt>
      <trkpt lat="43.74654" lon="-1.40959">
        <ele>-17</ele>
        <time>2020-08-08T08:00:44Z</time>
      </trkpt>
      <trkpt lat="43.74656" lon="-1.40958">
        <ele>-17</ele>
        <time>2020-08-08T08:00:46Z</time>
      </trkpt>
      <trkpt lat="43.74662" lon="-1.40953">
        <ele>-17.39999961853</ele>
        <time>2020-08-08T08:00:51Z</time>
      </trkpt>
      <trkpt lat="43.74663" lon="-1.40952">
        <ele>-17.799999237061</ele>
        <time>2020-08-08T08:00:52Z</time>
      </trkpt>
      <trkpt lat="43.74665" lon="-1.40952">
        <ele>-18.200000762939</ele>
        <time>2020-08-08T08:00:53Z</time>
      </trkpt>
      <trkpt lat="43.74665" lon="-1.40951">
        <ele>-18.60000038147</ele>
        <time>2020-08-08T08:00:54Z</time>
      </trkpt>
      <trkpt lat="43.74666" lon="-1.4095">
        <ele>-19</ele>
        <time>2020-08-08T08:00:55Z</time>
      </trkpt>
      <trkpt lat="43.74669" lon="-1.40949">
        <ele>-19</ele>
        <time>2020-08-08T08:00:59Z</time>
      </trkpt>
      <trkpt lat="43.7467" lon="-1.40952">
        <ele>-19</ele>
        <time>2020-08-08T08:01:05Z</time>
      </trkpt>
      <trkpt lat="43.74667" lon="-1.40952">
        <ele>-19</ele>
        <time>2020-08-08T08:01:08Z</time>
      </trkpt>
      <trkpt lat="43.74663" lon="-1.40953">
        <ele>-19</ele>
        <time>2020-08-08T08:01:11Z</time>
      </trkpt>
      <trkpt lat="43.74656" lon="-1.40959">
        <ele>-19</ele>
        <time>2020-08-08T08:01:18Z</time>
      </trkpt>
      <trkpt lat="43.7465" lon="-1.40964">
        <ele>-19</ele>
        <time>2020-08-08T08:01:24Z</time>
      </trkpt>
      <trkpt lat="43.74645" lon="-1.40968">
        <ele>-19</ele>
        <time>2020-08-08T08:01:29Z</time>
      </trkpt>
      <trkpt lat="43.74643" lon="-1.40967">
        <ele>-19</ele>
        <time>2020-08-08T08:01:30Z</time>
      </trkpt>
      <trkpt lat="43.74638" lon="-1.40965">
        <ele>-19</ele>
        <time>2020-08-08T08:01:34Z</time>
      </trkpt>
      <trkpt lat="43.74636" lon="-1.40966">
        <ele>-19</ele>
        <time>2020-08-08T08:01:36Z</time>
      </trkpt>
      <trkpt lat="43.74633" lon="-1.40969">
        <ele>-19</ele>
        <time>2020-08-08T08:01:39Z</time>
      </trkpt>
      <trkpt lat="43.74626" lon="-1.40973">
        <ele>-19</ele>
        <time>2020-08-08T08:01:43Z</time>
      </trkpt>
      <trkpt lat="43.74618" lon="-1.40979">
        <ele>-19</ele>
        <time>2020-08-08T08:01:48Z</time>
      </trkpt>
      <trkpt lat="43.74612" lon="-1.40983">
        <ele>-19</ele>
        <time>2020-08-08T08:01:54Z</time>
      </trkpt>
      <trkpt lat="43.746" lon="-1.40988">
        <ele>-19</ele>
        <time>2020-08-08T08:02:03Z</time>
      </trkpt>
      <trkpt lat="43.74591" lon="-1.40992">
        <ele>-19</ele>
        <time>2020-08-08T08:02:10Z</time>
      </trkpt>
      <trkpt lat="43.74581" lon="-1.40995">
        <ele>-19</ele>
        <time>2020-08-08T08:02:16Z</time>
      </trkpt>
      <trkpt lat="43.74564" lon="-1.40998">
        <ele>-19</ele>
        <time>2020-08-08T08:02:23Z</time>
      </trkpt>
      <trkpt lat="43.74546" lon="-1.41">
        <ele>-19</ele>
        <time>2020-08-08T08:02:28Z</time>
      </trkpt>
      <trkpt lat="43.74526" lon="-1.41002">
        <ele>-19</ele>
        <time>2020-08-08T08:02:34Z</time>
      </trkpt>
      <trkpt lat="43.74511" lon="-1.41001">
        <ele>-19</ele>
        <time>2020-08-08T08:02:39Z</time>
      </trkpt>
      <trkpt lat="43.74496" lon="-1.40998">
        <ele>-19</ele>
        <time>2020-08-08T08:02:45Z</time>
      </trkpt>
      <trkpt lat="43.74481" lon="-1.40999">
        <ele>-19</ele>
        <time>2020-08-08T08:02:50Z</time>
      </trkpt>
      <trkpt lat="43.74466" lon="-1.41009">
        <ele>-19</ele>
        <time>2020-08-08T08:02:57Z</time>
      </trkpt>
      <trkpt lat="43.74452" lon="-1.41019">
        <ele>-19</ele>
        <time>2020-08-08T08:03:02Z</time>
      </trkpt>
      <trkpt lat="43.74436" lon="-1.41031">
        <ele>-19</ele>
        <time>2020-08-08T08:03:08Z</time>
      </trkpt>
      <trkpt lat="43.74425" lon="-1.4104">
        <ele>-19</ele>
        <time>2020-08-08T08:03:13Z</time>
      </trkpt>
      <trkpt lat="43.74406" lon="-1.41053">
        <ele>-19</ele>
        <time>2020-08-08T08:03:21Z</time>
      </trkpt>
      <trkpt lat="43.74392" lon="-1.41063">
        <ele>-19</ele>
        <time>2020-08-08T08:03:27Z</time>
      </trkpt>
      <trkpt lat="43.74376" lon="-1.41075">
        <ele>-19</ele>
        <time>2020-08-08T08:03:33Z</time>
      </trkpt>
      <trkpt lat="43.74363" lon="-1.41085">
        <ele>-19</ele>
        <time>2020-08-08T08:03:39Z</time>
      </trkpt>
      <trkpt lat="43.74346" lon="-1.41097">
        <ele>-19</ele>
        <time>2020-08-08T08:03:45Z</time>
      </trkpt>
      <trkpt lat="43.7433" lon="-1.41111">
        <ele>-19</ele>
        <time>2020-08-08T08:03:50Z</time>
      </trkpt>
      <trkpt lat="43.74314" lon="-1.41125">
        <ele>-18.60000038147</ele>
        <time>2020-08-08T08:03:55Z</time>
      </trkpt>
      <trkpt lat="43.74311" lon="-1.41127">
        <ele>-18.200000762939</ele>
        <time>2020-08-08T08:03:56Z</time>
      </trkpt>
      <trkpt lat="43.74309" lon="-1.41129">
        <ele>-17.799999237061</ele>
        <time>2020-08-08T08:03:57Z</time>
      </trkpt>
      <trkpt lat="43.74307" lon="-1.41131">
        <ele>-16.799999237061</ele>
        <time>2020-08-08T08:03:58Z</time>
      </trkpt>
      <trkpt lat="43.74297" lon="-1.41141">
        <ele>-16.799999237061</ele>
        <time>2020-08-08T08:04:03Z</time>
      </trkpt>
      <trkpt lat="43.74285" lon="-1.41155">
        <ele>-16.799999237061</ele>
        <time>2020-08-08T08:04:09Z</time>
      </trkpt>
      <trkpt lat="43.74269" lon="-1.41167">
        <ele>-16.799999237061</ele>
        <time>2020-08-08T08:04:14Z</time>
      </trkpt>
      <trkpt lat="43.74257" lon="-1.41182">
        <ele>-16.799999237061</ele>
        <time>2020-08-08T08:04:20Z</time>
      </trkpt>
      <trkpt lat="43.74245" lon="-1.41204">
        <ele>-16.799999237061</ele>
        <time>2020-08-08T08:04:26Z</time>
      </trkpt>
      <trkpt lat="43.74232" lon="-1.41223">
        <ele>-16.799999237061</ele>
        <time>2020-08-08T08:04:31Z</time>
      </trkpt>
      <trkpt lat="43.7422" lon="-1.41239">
        <ele>-16.799999237061</ele>
        <time>2020-08-08T08:04:36Z</time>
      </trkpt>
      <trkpt lat="43.7422" lon="-1.4124">
        <ele>-16.799999237061</ele>
        <time>2020-08-08T08:04:37Z</time>
      </trkpt>
      <trkpt lat="43.74214" lon="-1.41243">
        <ele>-16.799999237061</ele>
        <time>2020-08-08T08:04:41Z</time>
      </trkpt>
      <trkpt lat="43.74212" lon="-1.41244">
        <ele>-16.799999237061</ele>
        <time>2020-08-08T08:04:42Z</time>
      </trkpt>
      <trkpt lat="43.74201" lon="-1.41246">
        <ele>-16.799999237061</ele>
        <time>2020-08-08T08:04:47Z</time>
      </trkpt>
      <trkpt lat="43.742" lon="-1.41246">
        <ele>-16.799999237061</ele>
        <time>2020-08-08T08:04:48Z</time>
      </trkpt>
      <trkpt lat="43.74182" lon="-1.41247">
        <ele>-16.799999237061</ele>
        <time>2020-08-08T08:04:54Z</time>
      </trkpt>
      <trkpt lat="43.74158" lon="-1.41251">
        <ele>-16.799999237061</ele>
        <time>2020-08-08T08:05:00Z</time>
      </trkpt>
      <trkpt lat="43.74137" lon="-1.41248">
        <ele>-16.799999237061</ele>
        <time>2020-08-08T08:05:06Z</time>
      </trkpt>
      <trkpt lat="43.74117" lon="-1.41245">
        <ele>-16.799999237061</ele>
        <time>2020-08-08T08:05:11Z</time>
      </trkpt>
      <trkpt lat="43.74102" lon="-1.41246">
        <ele>-16.799999237061</ele>
        <time>2020-08-08T08:05:16Z</time>
      </trkpt>
      <trkpt lat="43.74085" lon="-1.4125">
        <ele>-16.799999237061</ele>
        <time>2020-08-08T08:05:22Z</time>
      </trkpt>
      <trkpt lat="43.74074" lon="-1.41254">
        <ele>-16.799999237061</ele>
        <time>2020-08-08T08:05:26Z</time>
      </trkpt>
      <trkpt lat="43.74067" lon="-1.41251">
        <ele>-16.799999237061</ele>
        <time>2020-08-08T08:05:29Z</time>
      </trkpt>
      <trkpt lat="43.74065" lon="-1.41247">
        <ele>-16.799999237061</ele>
        <time>2020-08-08T08:05:30Z</time>
      </trkpt>
      <trkpt lat="43.74059" lon="-1.41227">
        <ele>-16.799999237061</ele>
        <time>2020-08-08T08:05:36Z</time>
      </trkpt>
      <trkpt lat="43.74052" lon="-1.41204">
        <ele>-16.799999237061</ele>
        <time>2020-08-08T08:05:41Z</time>
      </trkpt>
      <trkpt lat="43.74048" lon="-1.41183">
        <ele>-16.799999237061</ele>
        <time>2020-08-08T08:05:46Z</time>
      </trkpt>
      <trkpt lat="43.74048" lon="-1.41178">
        <ele>-16.799999237061</ele>
        <time>2020-08-08T08:05:47Z</time>
      </trkpt>
      <trkpt lat="43.74047" lon="-1.41157">
        <ele>-16.799999237061</ele>
        <time>2020-08-08T08:05:51Z</time>
      </trkpt>
      <trkpt lat="43.7405" lon="-1.41137">
        <ele>-16.799999237061</ele>
        <time>2020-08-08T08:05:55Z</time>
      </trkpt>
      <trkpt lat="43.74053" lon="-1.41113">
        <ele>-16.799999237061</ele>
        <time>2020-08-08T08:06:00Z</time>
      </trkpt>
      <trkpt lat="43.74052" lon="-1.41089">
        <ele>-16.799999237061</ele>
        <time>2020-08-08T08:06:05Z</time>
      </trkpt>
      <trkpt lat="43.74047" lon="-1.41071">
        <ele>-16.799999237061</ele>
        <time>2020-08-08T08:06:09Z</time>
      </trkpt>
      <trkpt lat="43.74048" lon="-1.41047">
        <ele>-16.799999237061</ele>
        <time>2020-08-08T08:06:13Z</time>
      </trkpt>
      <trkpt lat="43.74057" lon="-1.41022">
        <ele>-16.799999237061</ele>
        <time>2020-08-08T08:06:19Z</time>
      </trkpt>
      <trkpt lat="43.74062" lon="-1.41">
        <ele>-16.799999237061</ele>
        <time>2020-08-08T08:06:25Z</time>
      </trkpt>
      <trkpt lat="43.74055" lon="-1.40974">
        <ele>-16.799999237061</ele>
        <time>2020-08-08T08:06:31Z</time>
      </trkpt>
      <trkpt lat="43.74045" lon="-1.4095">
        <ele>-16.799999237061</ele>
        <time>2020-08-08T08:06:38Z</time>
      </trkpt>
      <trkpt lat="43.74046" lon="-1.40945">
        <ele>-16.799999237061</ele>
        <time>2020-08-08T08:06:41Z</time>
      </trkpt>
      <trkpt lat="43.74049" lon="-1.4094">
        <ele>-16.799999237061</ele>
        <time>2020-08-08T08:06:44Z</time>
      </trkpt>
      <trkpt lat="43.7405" lon="-1.40937">
        <ele>-16.799999237061</ele>
        <time>2020-08-08T08:06:50Z</time>
      </trkpt>
      <trkpt lat="43.7405" lon="-1.40937">
        <ele>-16.799999237061</ele>
        <time>2020-08-08T08:07:02Z</time>
      </trkpt>
      <trkpt lat="43.7405" lon="-1.40936">
        <ele>-16.799999237061</ele>
        <time>2020-08-08T08:07:14Z</time>
      </trkpt>
      <trkpt lat="43.7405" lon="-1.40934">
        <ele>-16.799999237061</ele>
        <time>2020-08-08T08:07:15Z</time>
      </trkpt>
      <trkpt lat="43.74056" lon="-1.40923">
        <ele>-16.799999237061</ele>
        <time>2020-08-08T08:07:19Z</time>
      </trkpt>
      <trkpt lat="43.7406" lon="-1.40916">
        <ele>-16.799999237061</ele>
        <time>2020-08-08T08:07:21Z</time>
      </trkpt>
      <trkpt lat="43.74065" lon="-1.40907">
        <ele>-16.799999237061</ele>
        <time>2020-08-08T08:07:24Z</time>
      </trkpt>
      <trkpt lat="43.74064" lon="-1.40897">
        <ele>-16.799999237061</ele>
        <time>2020-08-08T08:07:26Z</time>
      </trkpt>
      <trkpt lat="43.74062" lon="-1.40886">
        <ele>-16.799999237061</ele>
        <time>2020-08-08T08:07:28Z</time>
      </trkpt>
      <trkpt lat="43.74057" lon="-1.40858">
        <ele>-16.799999237061</ele>
        <time>2020-08-08T08:07:34Z</time>
      </trkpt>
      <trkpt lat="43.74053" lon="-1.40827">
        <ele>-16.799999237061</ele>
        <time>2020-08-08T08:07:40Z</time>
      </trkpt>
      <trkpt lat="43.7405" lon="-1.40796">
        <ele>-16.799999237061</ele>
        <time>2020-08-08T08:07:46Z</time>
      </trkpt>
      <trkpt lat="43.74046" lon="-1.40779">
        <ele>-16.799999237061</ele>
        <time>2020-08-08T08:07:49Z</time>
      </trkpt>
      <trkpt lat="43.74043" lon="-1.40765">
        <ele>-16.799999237061</ele>
        <time>2020-08-08T08:07:51Z</time>
      </trkpt>
      <trkpt lat="43.74038" lon="-1.40728">
        <ele>-16.799999237061</ele>
        <time>2020-08-08T08:07:57Z</time>
      </trkpt>
      <trkpt lat="43.74031" lon="-1.40684">
        <ele>-16.799999237061</ele>
        <time>2020-08-08T08:08:05Z</time>
      </trkpt>
      <trkpt lat="43.74028" lon="-1.40652">
        <ele>-16.799999237061</ele>
        <time>2020-08-08T08:08:10Z</time>
      </trkpt>
      <trkpt lat="43.74027" lon="-1.4063">
        <ele>-16.799999237061</ele>
        <time>2020-08-08T08:08:14Z</time>
      </trkpt>
      <trkpt lat="43.74028" lon="-1.40597">
        <ele>-16.799999237061</ele>
        <time>2020-08-08T08:08:20Z</time>
      </trkpt>
      <trkpt lat="43.74031" lon="-1.40562">
        <ele>-16.799999237061</ele>
        <time>2020-08-08T08:08:27Z</time>
      </trkpt>
      <trkpt lat="43.74028" lon="-1.40517">
        <ele>-16.799999237061</ele>
        <time>2020-08-08T08:08:34Z</time>
      </trkpt>
      <trkpt lat="43.74026" lon="-1.40477">
        <ele>-16.799999237061</ele>
        <time>2020-08-08T08:08:40Z</time>
      </trkpt>
      <trkpt lat="43.74029" lon="-1.40464">
        <ele>-16.799999237061</ele>
        <time>2020-08-08T08:08:42Z</time>
      </trkpt>
      <trkpt lat="43.74032" lon="-1.40445">
        <ele>-16.799999237061</ele>
        <time>2020-08-08T08:08:45Z</time>
      </trkpt>
      <trkpt lat="43.74047" lon="-1.40396">
        <ele>-16.799999237061</ele>
        <time>2020-08-08T08:08:53Z</time>
      </trkpt>
      <trkpt lat="43.74057" lon="-1.40354">
        <ele>-16.799999237061</ele>
        <time>2020-08-08T08:08:59Z</time>
      </trkpt>
      <trkpt lat="43.74062" lon="-1.40328">
        <ele>-16.799999237061</ele>
        <time>2020-08-08T08:09:03Z</time>
      </trkpt>
      <trkpt lat="43.74064" lon="-1.40314">
        <ele>-16.799999237061</ele>
        <time>2020-08-08T08:09:05Z</time>
      </trkpt>
      <trkpt lat="43.74063" lon="-1.40307">
        <ele>-16.799999237061</ele>
        <time>2020-08-08T08:09:06Z</time>
      </trkpt>
      <trkpt lat="43.7406" lon="-1.40283">
        <ele>-16.799999237061</ele>
        <time>2020-08-08T08:09:09Z</time>
      </trkpt>
      <trkpt lat="43.74059" lon="-1.40276">
        <ele>-16.799999237061</ele>
        <time>2020-08-08T08:09:10Z</time>
      </trkpt>
      <trkpt lat="43.74054" lon="-1.40254">
        <ele>-16.799999237061</ele>
        <time>2020-08-08T08:09:12Z</time>
      </trkpt>
      <trkpt lat="43.74052" lon="-1.40245">
        <ele>-16.799999237061</ele>
        <time>2020-08-08T08:09:13Z</time>
      </trkpt>
      <trkpt lat="43.74046" lon="-1.40202">
        <ele>-16.799999237061</ele>
        <time>2020-08-08T08:09:18Z</time>
      </trkpt>
      <trkpt lat="43.74037" lon="-1.40147">
        <ele>-16.799999237061</ele>
        <time>2020-08-08T08:09:24Z</time>
      </trkpt>
      <trkpt lat="43.74028" lon="-1.4008">
        <ele>-16.799999237061</ele>
        <time>2020-08-08T08:09:32Z</time>
      </trkpt>
      <trkpt lat="43.7402" lon="-1.40016">
        <ele>-16.799999237061</ele>
        <time>2020-08-08T08:09:40Z</time>
      </trkpt>
      <trkpt lat="43.74008" lon="-1.39963">
        <ele>-16.799999237061</ele>
        <time>2020-08-08T08:09:47Z</time>
      </trkpt>
      <trkpt lat="43.74001" lon="-1.39934">
        <ele>-16.799999237061</ele>
        <time>2020-08-08T08:09:51Z</time>
      </trkpt>
      <trkpt lat="43.73997" lon="-1.3992">
        <ele>-16.799999237061</ele>
        <time>2020-08-08T08:09:53Z</time>
      </trkpt>
      <trkpt lat="43.73985" lon="-1.39873">
        <ele>-16.799999237061</ele>
        <time>2020-08-08T08:10:00Z</time>
      </trkpt>
      <trkpt lat="43.73975" lon="-1.39824">
        <ele>-16.799999237061</ele>
        <time>2020-08-08T08:10:07Z</time>
      </trkpt>
      <trkpt lat="43.73966" lon="-1.3978">
        <ele>-16.799999237061</ele>
        <time>2020-08-08T08:10:13Z</time>
      </trkpt>
      <trkpt lat="43.73957" lon="-1.39727">
        <ele>-16.799999237061</ele>
        <time>2020-08-08T08:10:20Z</time>
      </trkpt>
      <trkpt lat="43.73949" lon="-1.39692">
        <ele>-16.799999237061</ele>
        <time>2020-08-08T08:10:25Z</time>
      </trkpt>
      <trkpt lat="43.73939" lon="-1.39646">
        <ele>-16.799999237061</ele>
        <time>2020-08-08T08:10:31Z</time>
      </trkpt>
      <trkpt lat="43.73936" lon="-1.39632">
        <ele>-16.799999237061</ele>
        <time>2020-08-08T08:10:33Z</time>
      </trkpt>
      <trkpt lat="43.73928" lon="-1.39601">
        <ele>-16.799999237061</ele>
        <time>2020-08-08T08:10:37Z</time>
      </trkpt>
      <trkpt lat="43.73926" lon="-1.39594">
        <ele>-16.799999237061</ele>
        <time>2020-08-08T08:10:38Z</time>
      </trkpt>
      <trkpt lat="43.73913" lon="-1.39556">
        <ele>-16.799999237061</ele>
        <time>2020-08-08T08:10:43Z</time>
      </trkpt>
      <trkpt lat="43.73905" lon="-1.39536">
        <ele>-16.799999237061</ele>
        <time>2020-08-08T08:10:46Z</time>
      </trkpt>
      <trkpt lat="43.73899" lon="-1.39522">
        <ele>-16.799999237061</ele>
        <time>2020-08-08T08:10:48Z</time>
      </trkpt>
      <trkpt lat="43.73891" lon="-1.39501">
        <ele>-16.799999237061</ele>
        <time>2020-08-08T08:10:51Z</time>
      </trkpt>
      <trkpt lat="43.73884" lon="-1.39489">
        <ele>-16.799999237061</ele>
        <time>2020-08-08T08:10:53Z</time>
      </trkpt>
      <trkpt lat="43.73876" lon="-1.3947">
        <ele>-16.799999237061</ele>
        <time>2020-08-08T08:10:56Z</time>
      </trkpt>
      <trkpt lat="43.73871" lon="-1.39459">
        <ele>-16.799999237061</ele>
        <time>2020-08-08T08:10:58Z</time>
      </trkpt>
      <trkpt lat="43.73855" lon="-1.39422">
        <ele>-16.799999237061</ele>
        <time>2020-08-08T08:11:04Z</time>
      </trkpt>
      <trkpt lat="43.73847" lon="-1.39402">
        <ele>-16.799999237061</ele>
        <time>2020-08-08T08:11:07Z</time>
      </trkpt>
      <trkpt lat="43.7384" lon="-1.39391">
        <ele>-16.799999237061</ele>
        <time>2020-08-08T08:11:09Z</time>
      </trkpt>
      <trkpt lat="43.73837" lon="-1.39385">
        <ele>-16.799999237061</ele>
        <time>2020-08-08T08:11:10Z</time>
      </trkpt>
      <trkpt lat="43.73823" lon="-1.39352">
        <ele>-16.799999237061</ele>
        <time>2020-08-08T08:11:15Z</time>
      </trkpt>
      <trkpt lat="43.73805" lon="-1.39311">
        <ele>-16.799999237061</ele>
        <time>2020-08-08T08:11:21Z</time>
      </trkpt>
      <trkpt lat="43.73803" lon="-1.39305">
        <ele>-16.799999237061</ele>
        <time>2020-08-08T08:11:22Z</time>
      </trkpt>
      <trkpt lat="43.73785" lon="-1.39257">
        <ele>-16.799999237061</ele>
        <time>2020-08-08T08:11:29Z</time>
      </trkpt>
      <trkpt lat="43.73777" lon="-1.39223">
        <ele>-16.799999237061</ele>
        <time>2020-08-08T08:11:34Z</time>
      </trkpt>
      <trkpt lat="43.73776" lon="-1.39217">
        <ele>-16.799999237061</ele>
        <time>2020-08-08T08:11:35Z</time>
      </trkpt>
      <trkpt lat="43.73775" lon="-1.3921">
        <ele>-16.799999237061</ele>
        <time>2020-08-08T08:11:36Z</time>
      </trkpt>
      <trkpt lat="43.73768" lon="-1.39182">
        <ele>-16.799999237061</ele>
        <time>2020-08-08T08:11:40Z</time>
      </trkpt>
      <trkpt lat="43.73759" lon="-1.39141">
        <ele>-16.799999237061</ele>
        <time>2020-08-08T08:11:45Z</time>
      </trkpt>
      <trkpt lat="43.73757" lon="-1.39133">
        <ele>-16.799999237061</ele>
        <time>2020-08-08T08:11:46Z</time>
      </trkpt>
      <trkpt lat="43.73752" lon="-1.39111">
        <ele>-16.799999237061</ele>
        <time>2020-08-08T08:11:49Z</time>
      </trkpt>
      <trkpt lat="43.73749" lon="-1.39105">
        <ele>-16.799999237061</ele>
        <time>2020-08-08T08:11:50Z</time>
      </trkpt>
      <trkpt lat="43.73741" lon="-1.39082">
        <ele>-16.799999237061</ele>
        <time>2020-08-08T08:11:53Z</time>
      </trkpt>
      <trkpt lat="43.73737" lon="-1.39066">
        <ele>-16.799999237061</ele>
        <time>2020-08-08T08:11:55Z</time>
      </trkpt>
      <trkpt lat="43.73732" lon="-1.39041">
        <ele>-16.799999237061</ele>
        <time>2020-08-08T08:11:58Z</time>
      </trkpt>
      <trkpt lat="43.73727" lon="-1.39027">
        <ele>-16.799999237061</ele>
        <time>2020-08-08T08:12:00Z</time>
      </trkpt>
      <trkpt lat="43.73716" lon="-1.38991">
        <ele>-16.799999237061</ele>
        <time>2020-08-08T08:12:05Z</time>
      </trkpt>
      <trkpt lat="43.73713" lon="-1.38984">
        <ele>-16.799999237061</ele>
        <time>2020-08-08T08:12:06Z</time>
      </trkpt>
      <trkpt lat="43.73702" lon="-1.38961">
        <ele>-16.799999237061</ele>
        <time>2020-08-08T08:12:09Z</time>
      </trkpt>
      <trkpt lat="43.73694" lon="-1.38947">
        <ele>-16.799999237061</ele>
        <time>2020-08-08T08:12:11Z</time>
      </trkpt>
      <trkpt lat="43.7368" lon="-1.38917">
        <ele>-16.799999237061</ele>
        <time>2020-08-08T08:12:15Z</time>
      </trkpt>
      <trkpt lat="43.73673" lon="-1.38903">
        <ele>-16.799999237061</ele>
        <time>2020-08-08T08:12:17Z</time>
      </trkpt>
      <trkpt lat="43.73654" lon="-1.38864">
        <ele>-16.799999237061</ele>
        <time>2020-08-08T08:12:23Z</time>
      </trkpt>
      <trkpt lat="43.73652" lon="-1.38857">
        <ele>-16.799999237061</ele>
        <time>2020-08-08T08:12:24Z</time>
      </trkpt>
      <trkpt lat="43.73641" lon="-1.38831">
        <ele>-16.799999237061</ele>
        <time>2020-08-08T08:12:28Z</time>
      </trkpt>
      <trkpt lat="43.73635" lon="-1.38818">
        <ele>-16.799999237061</ele>
        <time>2020-08-08T08:12:30Z</time>
      </trkpt>
      <trkpt lat="43.73618" lon="-1.38774">
        <ele>-16.799999237061</ele>
        <time>2020-08-08T08:12:37Z</time>
      </trkpt>
      <trkpt lat="43.73602" lon="-1.38736">
        <ele>-16.799999237061</ele>
        <time>2020-08-08T08:12:43Z</time>
      </trkpt>
      <trkpt lat="43.73599" lon="-1.3873">
        <ele>-16.799999237061</ele>
        <time>2020-08-08T08:12:44Z</time>
      </trkpt>
      <trkpt lat="43.73586" lon="-1.38696">
        <ele>-16.799999237061</ele>
        <time>2020-08-08T08:12:49Z</time>
      </trkpt>
      <trkpt lat="43.73561" lon="-1.38639">
        <ele>-16.799999237061</ele>
        <time>2020-08-08T08:12:57Z</time>
      </trkpt>
      <trkpt lat="43.7355" lon="-1.3861">
        <ele>-16.39999961853</ele>
        <time>2020-08-08T08:13:01Z</time>
      </trkpt>
      <trkpt lat="43.73548" lon="-1.38603">
        <ele>-15.60000038147</ele>
        <time>2020-08-08T08:13:02Z</time>
      </trkpt>
      <trkpt lat="43.73545" lon="-1.38597">
        <ele>-15.199999809265</ele>
        <time>2020-08-08T08:13:03Z</time>
      </trkpt>
      <trkpt lat="43.73542" lon="-1.3859">
        <ele>-14.800000190735</ele>
        <time>2020-08-08T08:13:04Z</time>
      </trkpt>
      <trkpt lat="43.7353" lon="-1.38553">
        <ele>-14.800000190735</ele>
        <time>2020-08-08T08:13:10Z</time>
      </trkpt>
      <trkpt lat="43.73529" lon="-1.38547">
        <ele>-14.800000190735</ele>
        <time>2020-08-08T08:13:11Z</time>
      </trkpt>
      <trkpt lat="43.73525" lon="-1.38536">
        <ele>-14.800000190735</ele>
        <time>2020-08-08T08:13:13Z</time>
      </trkpt>
      <trkpt lat="43.73519" lon="-1.38518">
        <ele>-14.800000190735</ele>
        <time>2020-08-08T08:13:16Z</time>
      </trkpt>
      <trkpt lat="43.73514" lon="-1.38506">
        <ele>-14.39999961853</ele>
        <time>2020-08-08T08:13:18Z</time>
      </trkpt>
      <trkpt lat="43.73512" lon="-1.385">
        <ele>-14</ele>
        <time>2020-08-08T08:13:19Z</time>
      </trkpt>
      <trkpt lat="43.73511" lon="-1.38495">
        <ele>-13.60000038147</ele>
        <time>2020-08-08T08:13:20Z</time>
      </trkpt>
      <trkpt lat="43.73508" lon="-1.38488">
        <ele>-13.199999809265</ele>
        <time>2020-08-08T08:13:21Z</time>
      </trkpt>
      <trkpt lat="43.73506" lon="-1.38482">
        <ele>-12.800000190735</ele>
        <time>2020-08-08T08:13:22Z</time>
      </trkpt>
      <trkpt lat="43.735" lon="-1.3846">
        <ele>-12.39999961853</ele>
        <time>2020-08-08T08:13:26Z</time>
      </trkpt>
      <trkpt lat="43.73499" lon="-1.38454">
        <ele>-11.60000038147</ele>
        <time>2020-08-08T08:13:27Z</time>
      </trkpt>
      <trkpt lat="43.73498" lon="-1.38449">
        <ele>-11.199999809265</ele>
        <time>2020-08-08T08:13:28Z</time>
      </trkpt>
      <trkpt lat="43.73497" lon="-1.38444">
        <ele>-10.800000190735</ele>
        <time>2020-08-08T08:13:29Z</time>
      </trkpt>
      <trkpt lat="43.73493" lon="-1.3841">
        <ele>-10.800000190735</ele>
        <time>2020-08-08T08:13:34Z</time>
      </trkpt>
      <trkpt lat="43.73488" lon="-1.3838">
        <ele>-10.800000190735</ele>
        <time>2020-08-08T08:13:38Z</time>
      </trkpt>
      <trkpt lat="43.73487" lon="-1.38372">
        <ele>-10.800000190735</ele>
        <time>2020-08-08T08:13:39Z</time>
      </trkpt>
      <trkpt lat="43.7348" lon="-1.38325">
        <ele>-10.800000190735</ele>
        <time>2020-08-08T08:13:45Z</time>
      </trkpt>
      <trkpt lat="43.73479" lon="-1.38289">
        <ele>-10.800000190735</ele>
        <time>2020-08-08T08:13:50Z</time>
      </trkpt>
      <trkpt lat="43.73479" lon="-1.38281">
        <ele>-10.800000190735</ele>
        <time>2020-08-08T08:13:51Z</time>
      </trkpt>
      <trkpt lat="43.73481" lon="-1.38273">
        <ele>-10.800000190735</ele>
        <time>2020-08-08T08:13:52Z</time>
      </trkpt>
      <trkpt lat="43.73482" lon="-1.38254">
        <ele>-10.800000190735</ele>
        <time>2020-08-08T08:13:55Z</time>
      </trkpt>
      <trkpt lat="43.73482" lon="-1.38249">
        <ele>-10.800000190735</ele>
        <time>2020-08-08T08:13:56Z</time>
      </trkpt>
      <trkpt lat="43.73483" lon="-1.38225">
        <ele>-10.800000190735</ele>
        <time>2020-08-08T08:14:00Z</time>
      </trkpt>
      <trkpt lat="43.73484" lon="-1.38196">
        <ele>-10.800000190735</ele>
        <time>2020-08-08T08:14:05Z</time>
      </trkpt>
      <trkpt lat="43.73487" lon="-1.38156">
        <ele>-10.800000190735</ele>
        <time>2020-08-08T08:14:11Z</time>
      </trkpt>
      <trkpt lat="43.7349" lon="-1.38149">
        <ele>-10.800000190735</ele>
        <time>2020-08-08T08:14:12Z</time>
      </trkpt>
      <trkpt lat="43.73495" lon="-1.38119">
        <ele>-10.800000190735</ele>
        <time>2020-08-08T08:14:17Z</time>
      </trkpt>
      <trkpt lat="43.73496" lon="-1.38106">
        <ele>-10.800000190735</ele>
        <time>2020-08-08T08:14:19Z</time>
      </trkpt>
      <trkpt lat="43.735" lon="-1.38081">
        <ele>-10.800000190735</ele>
        <time>2020-08-08T08:14:23Z</time>
      </trkpt>
      <trkpt lat="43.73502" lon="-1.38042">
        <ele>-10.800000190735</ele>
        <time>2020-08-08T08:14:29Z</time>
      </trkpt>
      <trkpt lat="43.73502" lon="-1.38007">
        <ele>-10.800000190735</ele>
        <time>2020-08-08T08:14:34Z</time>
      </trkpt>
      <trkpt lat="43.73503" lon="-1.37954">
        <ele>-10.800000190735</ele>
        <time>2020-08-08T08:14:41Z</time>
      </trkpt>
      <trkpt lat="43.73502" lon="-1.37945">
        <ele>-10.800000190735</ele>
        <time>2020-08-08T08:14:42Z</time>
      </trkpt>
      <trkpt lat="43.73502" lon="-1.37918">
        <ele>-10.800000190735</ele>
        <time>2020-08-08T08:14:46Z</time>
      </trkpt>
      <trkpt lat="43.73501" lon="-1.37881">
        <ele>-10.800000190735</ele>
        <time>2020-08-08T08:14:51Z</time>
      </trkpt>
      <trkpt lat="43.73498" lon="-1.37856">
        <ele>-10.800000190735</ele>
        <time>2020-08-08T08:14:54Z</time>
      </trkpt>
      <trkpt lat="43.73499" lon="-1.3784">
        <ele>-10.800000190735</ele>
        <time>2020-08-08T08:14:56Z</time>
      </trkpt>
      <trkpt lat="43.73498" lon="-1.37825">
        <ele>-10.800000190735</ele>
        <time>2020-08-08T08:14:58Z</time>
      </trkpt>
      <trkpt lat="43.73495" lon="-1.37802">
        <ele>-10.800000190735</ele>
        <time>2020-08-08T08:15:01Z</time>
      </trkpt>
      <trkpt lat="43.73492" lon="-1.37768">
        <ele>-10.800000190735</ele>
        <time>2020-08-08T08:15:06Z</time>
      </trkpt>
      <trkpt lat="43.73492" lon="-1.3776">
        <ele>-10.800000190735</ele>
        <time>2020-08-08T08:15:07Z</time>
      </trkpt>
      <trkpt lat="43.73491" lon="-1.37719">
        <ele>-10.800000190735</ele>
        <time>2020-08-08T08:15:13Z</time>
      </trkpt>
      <trkpt lat="43.7349" lon="-1.37709">
        <ele>-10.800000190735</ele>
        <time>2020-08-08T08:15:14Z</time>
      </trkpt>
      <trkpt lat="43.73489" lon="-1.37676">
        <ele>-10.800000190735</ele>
        <time>2020-08-08T08:15:18Z</time>
      </trkpt>
      <trkpt lat="43.73489" lon="-1.37668">
        <ele>-10.800000190735</ele>
        <time>2020-08-08T08:15:19Z</time>
      </trkpt>
      <trkpt lat="43.73488" lon="-1.3766">
        <ele>-10.800000190735</ele>
        <time>2020-08-08T08:15:20Z</time>
      </trkpt>
      <trkpt lat="43.73488" lon="-1.37635">
        <ele>-10.800000190735</ele>
        <time>2020-08-08T08:15:23Z</time>
      </trkpt>
      <trkpt lat="43.73487" lon="-1.37579">
        <ele>-10.800000190735</ele>
        <time>2020-08-08T08:15:30Z</time>
      </trkpt>
      <trkpt lat="43.73488" lon="-1.37536">
        <ele>-10.800000190735</ele>
        <time>2020-08-08T08:15:36Z</time>
      </trkpt>
      <trkpt lat="43.73492" lon="-1.37496">
        <ele>-10.800000190735</ele>
        <time>2020-08-08T08:15:42Z</time>
      </trkpt>
      <trkpt lat="43.73494" lon="-1.3749">
        <ele>-10.800000190735</ele>
        <time>2020-08-08T08:15:43Z</time>
      </trkpt>
      <trkpt lat="43.73498" lon="-1.37468">
        <ele>-10.800000190735</ele>
        <time>2020-08-08T08:15:47Z</time>
      </trkpt>
      <trkpt lat="43.73499" lon="-1.37441">
        <ele>-10.800000190735</ele>
        <time>2020-08-08T08:15:52Z</time>
      </trkpt>
      <trkpt lat="43.73502" lon="-1.37407">
        <ele>-10.800000190735</ele>
        <time>2020-08-08T08:15:57Z</time>
      </trkpt>
      <trkpt lat="43.73504" lon="-1.37394">
        <ele>-10.800000190735</ele>
        <time>2020-08-08T08:15:59Z</time>
      </trkpt>
      <trkpt lat="43.73504" lon="-1.3738">
        <ele>-10.800000190735</ele>
        <time>2020-08-08T08:16:01Z</time>
      </trkpt>
      <trkpt lat="43.73504" lon="-1.37373">
        <ele>-10.800000190735</ele>
        <time>2020-08-08T08:16:02Z</time>
      </trkpt>
      <trkpt lat="43.73509" lon="-1.37328">
        <ele>-10.800000190735</ele>
        <time>2020-08-08T08:16:08Z</time>
      </trkpt>
      <trkpt lat="43.73511" lon="-1.37282">
        <ele>-10.800000190735</ele>
        <time>2020-08-08T08:16:14Z</time>
      </trkpt>
      <trkpt lat="43.73514" lon="-1.37227">
        <ele>-10.800000190735</ele>
        <time>2020-08-08T08:16:21Z</time>
      </trkpt>
      <trkpt lat="43.73518" lon="-1.37173">
        <ele>-10.800000190735</ele>
        <time>2020-08-08T08:16:28Z</time>
      </trkpt>
      <trkpt lat="43.73527" lon="-1.37114">
        <ele>-10.800000190735</ele>
        <time>2020-08-08T08:16:35Z</time>
      </trkpt>
      <trkpt lat="43.73537" lon="-1.37068">
        <ele>-10.800000190735</ele>
        <time>2020-08-08T08:16:40Z</time>
      </trkpt>
      <trkpt lat="43.73554" lon="-1.37021">
        <ele>-10.800000190735</ele>
        <time>2020-08-08T08:16:46Z</time>
      </trkpt>
      <trkpt lat="43.73569" lon="-1.36981">
        <ele>-10.800000190735</ele>
        <time>2020-08-08T08:16:51Z</time>
      </trkpt>
      <trkpt lat="43.73573" lon="-1.36973">
        <ele>-10.800000190735</ele>
        <time>2020-08-08T08:16:52Z</time>
      </trkpt>
      <trkpt lat="43.7359" lon="-1.36931">
        <ele>-10.800000190735</ele>
        <time>2020-08-08T08:16:58Z</time>
      </trkpt>
      <trkpt lat="43.73607" lon="-1.36897">
        <ele>-10.800000190735</ele>
        <time>2020-08-08T08:17:03Z</time>
      </trkpt>
      <trkpt lat="43.73636" lon="-1.3685">
        <ele>-10.800000190735</ele>
        <time>2020-08-08T08:17:10Z</time>
      </trkpt>
      <trkpt lat="43.7366" lon="-1.3681">
        <ele>-10.800000190735</ele>
        <time>2020-08-08T08:17:16Z</time>
      </trkpt>
      <trkpt lat="43.73681" lon="-1.36765">
        <ele>-10.800000190735</ele>
        <time>2020-08-08T08:17:22Z</time>
      </trkpt>
      <trkpt lat="43.73699" lon="-1.36716">
        <ele>-10.800000190735</ele>
        <time>2020-08-08T08:17:28Z</time>
      </trkpt>
      <trkpt lat="43.73708" lon="-1.36697">
        <ele>-10.800000190735</ele>
        <time>2020-08-08T08:17:31Z</time>
      </trkpt>
      <trkpt lat="43.73713" lon="-1.36682">
        <ele>-10.800000190735</ele>
        <time>2020-08-08T08:17:33Z</time>
      </trkpt>
      <trkpt lat="43.73724" lon="-1.36637">
        <ele>-10.800000190735</ele>
        <time>2020-08-08T08:17:39Z</time>
      </trkpt>
      <trkpt lat="43.7373" lon="-1.366">
        <ele>-10.800000190735</ele>
        <time>2020-08-08T08:17:44Z</time>
      </trkpt>
      <trkpt lat="43.73736" lon="-1.36566">
        <ele>-10.800000190735</ele>
        <time>2020-08-08T08:17:48Z</time>
      </trkpt>
      <trkpt lat="43.73739" lon="-1.36558">
        <ele>-10.800000190735</ele>
        <time>2020-08-08T08:17:49Z</time>
      </trkpt>
      <trkpt lat="43.73748" lon="-1.36539">
        <ele>-10.800000190735</ele>
        <time>2020-08-08T08:17:52Z</time>
      </trkpt>
      <trkpt lat="43.73767" lon="-1.36507">
        <ele>-10.800000190735</ele>
        <time>2020-08-08T08:17:57Z</time>
      </trkpt>
      <trkpt lat="43.73791" lon="-1.3647">
        <ele>-10.800000190735</ele>
        <time>2020-08-08T08:18:03Z</time>
      </trkpt>
      <trkpt lat="43.7381" lon="-1.36445">
        <ele>-10.800000190735</ele>
        <time>2020-08-08T08:18:07Z</time>
      </trkpt>
      <trkpt lat="43.73816" lon="-1.36437">
        <ele>-10.800000190735</ele>
        <time>2020-08-08T08:18:08Z</time>
      </trkpt>
      <trkpt lat="43.73824" lon="-1.36421">
        <ele>-11.199999809265</ele>
        <time>2020-08-08T08:18:10Z</time>
      </trkpt>
      <trkpt lat="43.73828" lon="-1.36411">
        <ele>-11.60000038147</ele>
        <time>2020-08-08T08:18:11Z</time>
      </trkpt>
      <trkpt lat="43.73832" lon="-1.36403">
        <ele>-12</ele>
        <time>2020-08-08T08:18:12Z</time>
      </trkpt>
      <trkpt lat="43.73836" lon="-1.36395">
        <ele>-12.39999961853</ele>
        <time>2020-08-08T08:18:13Z</time>
      </trkpt>
      <trkpt lat="43.7384" lon="-1.36387">
        <ele>-12.800000190735</ele>
        <time>2020-08-08T08:18:14Z</time>
      </trkpt>
      <trkpt lat="43.73863" lon="-1.36338">
        <ele>-12.800000190735</ele>
        <time>2020-08-08T08:18:20Z</time>
      </trkpt>
      <trkpt lat="43.73884" lon="-1.36292">
        <ele>-12.800000190735</ele>
        <time>2020-08-08T08:18:27Z</time>
      </trkpt>
      <trkpt lat="43.73896" lon="-1.36256">
        <ele>-12.800000190735</ele>
        <time>2020-08-08T08:18:33Z</time>
      </trkpt>
      <trkpt lat="43.73904" lon="-1.36229">
        <ele>-12.800000190735</ele>
        <time>2020-08-08T08:18:37Z</time>
      </trkpt>
      <trkpt lat="43.73906" lon="-1.3622">
        <ele>-12.800000190735</ele>
        <time>2020-08-08T08:18:38Z</time>
      </trkpt>
      <trkpt lat="43.73914" lon="-1.36174">
        <ele>-12.800000190735</ele>
        <time>2020-08-08T08:18:43Z</time>
      </trkpt>
      <trkpt lat="43.73923" lon="-1.36114">
        <ele>-12.800000190735</ele>
        <time>2020-08-08T08:18:49Z</time>
      </trkpt>
      <trkpt lat="43.73935" lon="-1.36047">
        <ele>-12.800000190735</ele>
        <time>2020-08-08T08:18:56Z</time>
      </trkpt>
      <trkpt lat="43.73941" lon="-1.3601">
        <ele>-12.800000190735</ele>
        <time>2020-08-08T08:19:00Z</time>
      </trkpt>
      <trkpt lat="43.73941" lon="-1.35991">
        <ele>-12.800000190735</ele>
        <time>2020-08-08T08:19:02Z</time>
      </trkpt>
      <trkpt lat="43.73941" lon="-1.35981">
        <ele>-12.800000190735</ele>
        <time>2020-08-08T08:19:03Z</time>
      </trkpt>
      <trkpt lat="43.7394" lon="-1.35971">
        <ele>-13.199999809265</ele>
        <time>2020-08-08T08:19:04Z</time>
      </trkpt>
      <trkpt lat="43.73939" lon="-1.35961">
        <ele>-13.60000038147</ele>
        <time>2020-08-08T08:19:05Z</time>
      </trkpt>
      <trkpt lat="43.73939" lon="-1.35952">
        <ele>-14</ele>
        <time>2020-08-08T08:19:06Z</time>
      </trkpt>
      <trkpt lat="43.73938" lon="-1.35942">
        <ele>-14.39999961853</ele>
        <time>2020-08-08T08:19:07Z</time>
      </trkpt>
      <trkpt lat="43.73937" lon="-1.35933">
        <ele>-14.800000190735</ele>
        <time>2020-08-08T08:19:08Z</time>
      </trkpt>
      <trkpt lat="43.73935" lon="-1.35871">
        <ele>-14.800000190735</ele>
        <time>2020-08-08T08:19:15Z</time>
      </trkpt>
      <trkpt lat="43.73932" lon="-1.35839">
        <ele>-14.800000190735</ele>
        <time>2020-08-08T08:19:20Z</time>
      </trkpt>
      <trkpt lat="43.7393" lon="-1.35829">
        <ele>-14.800000190735</ele>
        <time>2020-08-08T08:19:24Z</time>
      </trkpt>
      <trkpt lat="43.7393" lon="-1.3583">
        <ele>-14.800000190735</ele>
        <time>2020-08-08T08:19:27Z</time>
      </trkpt>
      <trkpt lat="43.73929" lon="-1.35831">
        <ele>-14.800000190735</ele>
        <time>2020-08-08T08:19:28Z</time>
      </trkpt>
      <trkpt lat="43.73931" lon="-1.35837">
        <ele>-14.800000190735</ele>
        <time>2020-08-08T08:19:31Z</time>
      </trkpt>
      <trkpt lat="43.7393" lon="-1.35839">
        <ele>-14.800000190735</ele>
        <time>2020-08-08T08:19:32Z</time>
      </trkpt>
      <trkpt lat="43.73931" lon="-1.35844">
        <ele>-14.800000190735</ele>
        <time>2020-08-08T08:19:34Z</time>
      </trkpt>
      <trkpt lat="43.73934" lon="-1.35846">
        <ele>-14.800000190735</ele>
        <time>2020-08-08T08:19:37Z</time>
      </trkpt>
      <trkpt lat="43.73936" lon="-1.35845">
        <ele>-14.800000190735</ele>
        <time>2020-08-08T08:19:38Z</time>
      </trkpt>
      <trkpt lat="43.73945" lon="-1.35842">
        <ele>-14.800000190735</ele>
        <time>2020-08-08T08:19:41Z</time>
      </trkpt>
      <trkpt lat="43.73951" lon="-1.35842">
        <ele>-15.199999809265</ele>
        <time>2020-08-08T08:19:44Z</time>
      </trkpt>
      <trkpt lat="43.73952" lon="-1.35842">
        <ele>-15.60000038147</ele>
        <time>2020-08-08T08:19:45Z</time>
      </trkpt>
      <trkpt lat="43.73954" lon="-1.35842">
        <ele>-16</ele>
        <time>2020-08-08T08:19:46Z</time>
      </trkpt>
      <trkpt lat="43.73955" lon="-1.35841">
        <ele>-16.39999961853</ele>
        <time>2020-08-08T08:19:47Z</time>
      </trkpt>
      <trkpt lat="43.73956" lon="-1.35842">
        <ele>-16.799999237061</ele>
        <time>2020-08-08T08:19:48Z</time>
      </trkpt>
      <trkpt lat="43.7396" lon="-1.35841">
        <ele>-16.799999237061</ele>
        <time>2020-08-08T08:19:50Z</time>
      </trkpt>
      <trkpt lat="43.73971" lon="-1.35838">
        <ele>-16.799999237061</ele>
        <time>2020-08-08T08:19:55Z</time>
      </trkpt>
      <trkpt lat="43.73983" lon="-1.35835">
        <ele>-16.799999237061</ele>
        <time>2020-08-08T08:20:01Z</time>
      </trkpt>
      <trkpt lat="43.73985" lon="-1.35835">
        <ele>-16.799999237061</ele>
        <time>2020-08-08T08:20:02Z</time>
      </trkpt>
      <trkpt lat="43.73996" lon="-1.35833">
        <ele>-16.799999237061</ele>
        <time>2020-08-08T08:20:06Z</time>
      </trkpt>
      <trkpt lat="43.74015" lon="-1.35826">
        <ele>-16.799999237061</ele>
        <time>2020-08-08T08:20:13Z</time>
      </trkpt>
      <trkpt lat="43.74038" lon="-1.35819">
        <ele>-16.799999237061</ele>
        <time>2020-08-08T08:20:20Z</time>
      </trkpt>
      <trkpt lat="43.74063" lon="-1.35809">
        <ele>-16.799999237061</ele>
        <time>2020-08-08T08:20:27Z</time>
      </trkpt>
      <trkpt lat="43.74088" lon="-1.35804">
        <ele>-16.799999237061</ele>
        <time>2020-08-08T08:20:33Z</time>
      </trkpt>
      <trkpt lat="43.74112" lon="-1.35798">
        <ele>-16.799999237061</ele>
        <time>2020-08-08T08:20:39Z</time>
      </trkpt>
      <trkpt lat="43.74129" lon="-1.35792">
        <ele>-16.799999237061</ele>
        <time>2020-08-08T08:20:44Z</time>
      </trkpt>
      <trkpt lat="43.74136" lon="-1.35791">
        <ele>-17.200000762939</ele>
        <time>2020-08-08T08:20:46Z</time>
      </trkpt>
      <trkpt lat="43.74139" lon="-1.35789">
        <ele>-17.799999237061</ele>
        <time>2020-08-08T08:20:47Z</time>
      </trkpt>
      <trkpt lat="43.74143" lon="-1.35788">
        <ele>-18.200000762939</ele>
        <time>2020-08-08T08:20:48Z</time>
      </trkpt>
      <trkpt lat="43.74146" lon="-1.35787">
        <ele>-18.60000038147</ele>
        <time>2020-08-08T08:20:49Z</time>
      </trkpt>
      <trkpt lat="43.74149" lon="-1.35786">
        <ele>-19</ele>
        <time>2020-08-08T08:20:50Z</time>
      </trkpt>
      <trkpt lat="43.74159" lon="-1.35783">
        <ele>-19</ele>
        <time>2020-08-08T08:20:55Z</time>
      </trkpt>
      <trkpt lat="43.74172" lon="-1.35779">
        <ele>-19</ele>
        <time>2020-08-08T08:21:02Z</time>
      </trkpt>
      <trkpt lat="43.74182" lon="-1.35778">
        <ele>-19</ele>
        <time>2020-08-08T08:21:09Z</time>
      </trkpt>
      <trkpt lat="43.74192" lon="-1.35775">
        <ele>-19</ele>
        <time>2020-08-08T08:21:17Z</time>
      </trkpt>
      <trkpt lat="43.74201" lon="-1.35772">
        <ele>-19</ele>
        <time>2020-08-08T08:21:22Z</time>
      </trkpt>
      <trkpt lat="43.74216" lon="-1.35765">
        <ele>-19</ele>
        <time>2020-08-08T08:21:29Z</time>
      </trkpt>
      <trkpt lat="43.74231" lon="-1.35759">
        <ele>-19</ele>
        <time>2020-08-08T08:21:36Z</time>
      </trkpt>
      <trkpt lat="43.74233" lon="-1.35758">
        <ele>-19</ele>
        <time>2020-08-08T08:21:42Z</time>
      </trkpt>
      <trkpt lat="43.74235" lon="-1.35758">
        <ele>-19</ele>
        <time>2020-08-08T08:21:49Z</time>
      </trkpt>
      <trkpt lat="43.74237" lon="-1.35761">
        <ele>-19</ele>
        <time>2020-08-08T08:21:55Z</time>
      </trkpt>
      <trkpt lat="43.74237" lon="-1.35761">
        <ele>-19</ele>
        <time>2020-08-08T08:22:04Z</time>
      </trkpt>
      <trkpt lat="43.74237" lon="-1.35762">
        <ele>-19</ele>
        <time>2020-08-08T08:22:09Z</time>
      </trkpt>
      <trkpt lat="43.74238" lon="-1.35764">
        <ele>-19</ele>
        <time>2020-08-08T08:22:10Z</time>
      </trkpt>
      <trkpt lat="43.7424" lon="-1.35772">
        <ele>-19</ele>
        <time>2020-08-08T08:22:15Z</time>
      </trkpt>
      <trkpt lat="43.74246" lon="-1.35782">
        <ele>-19</ele>
        <time>2020-08-08T08:22:21Z</time>
      </trkpt>
      <trkpt lat="43.74251" lon="-1.35793">
        <ele>-19</ele>
        <time>2020-08-08T08:22:27Z</time>
      </trkpt>
      <trkpt lat="43.74256" lon="-1.35802">
        <ele>-19</ele>
        <time>2020-08-08T08:22:34Z</time>
      </trkpt>
      <trkpt lat="43.74258" lon="-1.35811">
        <ele>-19</ele>
        <time>2020-08-08T08:22:40Z</time>
      </trkpt>
      <trkpt lat="43.74266" lon="-1.3582">
        <ele>-19</ele>
        <time>2020-08-08T08:22:46Z</time>
      </trkpt>
      <trkpt lat="43.74266" lon="-1.35824">
        <ele>-19</ele>
        <time>2020-08-08T08:22:51Z</time>
      </trkpt>
      <trkpt lat="43.74265" lon="-1.35824">
        <ele>-19</ele>
        <time>2020-08-08T08:22:59Z</time>
      </trkpt>
      <trkpt lat="43.74266" lon="-1.35824">
        <ele>-19</ele>
        <time>2020-08-08T08:23:06Z</time>
      </trkpt>
      <trkpt lat="43.74266" lon="-1.35825">
        <ele>-19</ele>
        <time>2020-08-08T08:23:17Z</time>
      </trkpt>
      <trkpt lat="43.74266" lon="-1.35824">
        <ele>-19</ele>
        <time>2020-08-08T08:23:24Z</time>
      </trkpt>
      <trkpt lat="43.74265" lon="-1.3582">
        <ele>-19</ele>
        <time>2020-08-08T08:23:30Z</time>
      </trkpt>
      <trkpt lat="43.74264" lon="-1.35818">
        <ele>-19</ele>
        <time>2020-08-08T08:23:31Z</time>
      </trkpt>
      <trkpt lat="43.74257" lon="-1.35802">
        <ele>-19</ele>
        <time>2020-08-08T08:23:37Z</time>
      </trkpt>
      <trkpt lat="43.74248" lon="-1.35782">
        <ele>-19</ele>
        <time>2020-08-08T08:23:43Z</time>
      </trkpt>
      <trkpt lat="43.74244" lon="-1.35767">
        <ele>-19</ele>
        <time>2020-08-08T08:23:49Z</time>
      </trkpt>
      <trkpt lat="43.74245" lon="-1.35763">
        <ele>-19</ele>
        <time>2020-08-08T08:23:51Z</time>
      </trkpt>
      <trkpt lat="43.74249" lon="-1.35757">
        <ele>-19</ele>
        <time>2020-08-08T08:23:55Z</time>
      </trkpt>
      <trkpt lat="43.74257" lon="-1.35753">
        <ele>-19</ele>
        <time>2020-08-08T08:24:01Z</time>
      </trkpt>
      <trkpt lat="43.7427" lon="-1.35748">
        <ele>-19</ele>
        <time>2020-08-08T08:24:07Z</time>
      </trkpt>
      <trkpt lat="43.74283" lon="-1.35744">
        <ele>-19</ele>
        <time>2020-08-08T08:24:13Z</time>
      </trkpt>
      <trkpt lat="43.74297" lon="-1.35738">
        <ele>-19</ele>
        <time>2020-08-08T08:24:19Z</time>
      </trkpt>
      <trkpt lat="43.74309" lon="-1.35736">
        <ele>-19</ele>
        <time>2020-08-08T08:24:24Z</time>
      </trkpt>
      <trkpt lat="43.74323" lon="-1.35731">
        <ele>-19</ele>
        <time>2020-08-08T08:24:32Z</time>
      </trkpt>
      <trkpt lat="43.74334" lon="-1.35728">
        <ele>-19</ele>
        <time>2020-08-08T08:24:37Z</time>
      </trkpt>
      <trkpt lat="43.74346" lon="-1.35723">
        <ele>-19</ele>
        <time>2020-08-08T08:24:44Z</time>
      </trkpt>
      <trkpt lat="43.7436" lon="-1.35718">
        <ele>-19</ele>
        <time>2020-08-08T08:24:51Z</time>
      </trkpt>
      <trkpt lat="43.74374" lon="-1.35715">
        <ele>-19</ele>
        <time>2020-08-08T08:24:57Z</time>
      </trkpt>
      <trkpt lat="43.74385" lon="-1.3571">
        <ele>-19</ele>
        <time>2020-08-08T08:25:03Z</time>
      </trkpt>
      <trkpt lat="43.74387" lon="-1.35708">
        <ele>-19</ele>
        <time>2020-08-08T08:25:10Z</time>
      </trkpt>
      <trkpt lat="43.74392" lon="-1.35706">
        <ele>-19</ele>
        <time>2020-08-08T08:25:16Z</time>
      </trkpt>
      <trkpt lat="43.74395" lon="-1.35705">
        <ele>-19</ele>
        <time>2020-08-08T08:25:22Z</time>
      </trkpt>
      <trkpt lat="43.74396" lon="-1.35705">
        <ele>-19</ele>
        <time>2020-08-08T08:25:28Z</time>
      </trkpt>
      <trkpt lat="43.74401" lon="-1.35709">
        <ele>-19</ele>
        <time>2020-08-08T08:25:35Z</time>
      </trkpt>
      <trkpt lat="43.7441" lon="-1.35719">
        <ele>-19</ele>
        <time>2020-08-08T08:25:41Z</time>
      </trkpt>
      <trkpt lat="43.7442" lon="-1.35731">
        <ele>-19</ele>
        <time>2020-08-08T08:25:48Z</time>
      </trkpt>
      <trkpt lat="43.74421" lon="-1.35733">
        <ele>-19</ele>
        <time>2020-08-08T08:25:49Z</time>
      </trkpt>
      <trkpt lat="43.74425" lon="-1.35739">
        <ele>-19</ele>
        <time>2020-08-08T08:25:52Z</time>
      </trkpt>
      <trkpt lat="43.74432" lon="-1.35748">
        <ele>-19</ele>
        <time>2020-08-08T08:25:57Z</time>
      </trkpt>
      <trkpt lat="43.74434" lon="-1.35749">
        <ele>-19</ele>
        <time>2020-08-08T08:25:58Z</time>
      </trkpt>
      <trkpt lat="43.74443" lon="-1.35758">
        <ele>-19</ele>
        <time>2020-08-08T08:26:03Z</time>
      </trkpt>
      <trkpt lat="43.74452" lon="-1.35769">
        <ele>-19</ele>
        <time>2020-08-08T08:26:09Z</time>
      </trkpt>
      <trkpt lat="43.74465" lon="-1.3578">
        <ele>-19</ele>
        <time>2020-08-08T08:26:15Z</time>
      </trkpt>
      <trkpt lat="43.74481" lon="-1.35785">
        <ele>-19</ele>
        <time>2020-08-08T08:26:22Z</time>
      </trkpt>
      <trkpt lat="43.74484" lon="-1.35785">
        <ele>-19</ele>
        <time>2020-08-08T08:26:23Z</time>
      </trkpt>
      <trkpt lat="43.74495" lon="-1.35785">
        <ele>-19</ele>
        <time>2020-08-08T08:26:28Z</time>
      </trkpt>
      <trkpt lat="43.74507" lon="-1.35786">
        <ele>-19</ele>
        <time>2020-08-08T08:26:35Z</time>
      </trkpt>
      <trkpt lat="43.74517" lon="-1.35787">
        <ele>-18.60000038147</ele>
        <time>2020-08-08T08:26:41Z</time>
      </trkpt>
      <trkpt lat="43.74518" lon="-1.35787">
        <ele>-18.200000762939</ele>
        <time>2020-08-08T08:26:42Z</time>
      </trkpt>
      <trkpt lat="43.7452" lon="-1.35788">
        <ele>-17.799999237061</ele>
        <time>2020-08-08T08:26:43Z</time>
      </trkpt>
      <trkpt lat="43.74521" lon="-1.35789">
        <ele>-17.39999961853</ele>
        <time>2020-08-08T08:26:44Z</time>
      </trkpt>
      <trkpt lat="43.74523" lon="-1.35789">
        <ele>-17</ele>
        <time>2020-08-08T08:26:45Z</time>
      </trkpt>
      <trkpt lat="43.74528" lon="-1.3579">
        <ele>-17</ele>
        <time>2020-08-08T08:26:47Z</time>
      </trkpt>
      <trkpt lat="43.74535" lon="-1.35791">
        <ele>-17</ele>
        <time>2020-08-08T08:26:52Z</time>
      </trkpt>
      <trkpt lat="43.74537" lon="-1.35791">
        <ele>-17</ele>
        <time>2020-08-08T08:26:53Z</time>
      </trkpt>
      <trkpt lat="43.74543" lon="-1.35793">
        <ele>-17</ele>
        <time>2020-08-08T08:26:57Z</time>
      </trkpt>
      <trkpt lat="43.74555" lon="-1.35795">
        <ele>-17</ele>
        <time>2020-08-08T08:27:03Z</time>
      </trkpt>
      <trkpt lat="43.74565" lon="-1.35795">
        <ele>-17</ele>
        <time>2020-08-08T08:27:09Z</time>
      </trkpt>
      <trkpt lat="43.74574" lon="-1.35797">
        <ele>-17</ele>
        <time>2020-08-08T08:27:16Z</time>
      </trkpt>
      <trkpt lat="43.74585" lon="-1.358">
        <ele>-17</ele>
        <time>2020-08-08T08:27:24Z</time>
      </trkpt>
      <trkpt lat="43.74595" lon="-1.35797">
        <ele>-17</ele>
        <time>2020-08-08T08:27:29Z</time>
      </trkpt>
      <trkpt lat="43.74596" lon="-1.35797">
        <ele>-16.60000038147</ele>
        <time>2020-08-08T08:27:30Z</time>
      </trkpt>
      <trkpt lat="43.74598" lon="-1.35797">
        <ele>-16.200000762939</ele>
        <time>2020-08-08T08:27:31Z</time>
      </trkpt>
      <trkpt lat="43.74599" lon="-1.35797">
        <ele>-15.800000190735</ele>
        <time>2020-08-08T08:27:32Z</time>
      </trkpt>
      <trkpt lat="43.746" lon="-1.35797">
        <ele>-15.39999961853</ele>
        <time>2020-08-08T08:27:33Z</time>
      </trkpt>
      <trkpt lat="43.74601" lon="-1.35796">
        <ele>-15</ele>
        <time>2020-08-08T08:27:34Z</time>
      </trkpt>
      <trkpt lat="43.74604" lon="-1.35797">
        <ele>-15</ele>
        <time>2020-08-08T08:27:36Z</time>
      </trkpt>
      <trkpt lat="43.74605" lon="-1.35797">
        <ele>-15</ele>
        <time>2020-08-08T08:27:37Z</time>
      </trkpt>
      <trkpt lat="43.74614" lon="-1.358">
        <ele>-15</ele>
        <time>2020-08-08T08:27:43Z</time>
      </trkpt>
      <trkpt lat="43.74617" lon="-1.35801">
        <ele>-15</ele>
        <time>2020-08-08T08:27:50Z</time>
      </trkpt>
      <trkpt lat="43.74623" lon="-1.35801">
        <ele>-15</ele>
        <time>2020-08-08T08:27:57Z</time>
      </trkpt>
      <trkpt lat="43.7463" lon="-1.358">
        <ele>-15</ele>
        <time>2020-08-08T08:28:03Z</time>
      </trkpt>
      <trkpt lat="43.74636" lon="-1.35797">
        <ele>-15</ele>
        <time>2020-08-08T08:28:11Z</time>
      </trkpt>
      <trkpt lat="43.74642" lon="-1.35792">
        <ele>-15</ele>
        <time>2020-08-08T08:28:19Z</time>
      </trkpt>
      <trkpt lat="43.74643" lon="-1.35791">
        <ele>-15</ele>
        <time>2020-08-08T08:28:27Z</time>
      </trkpt>
      <trkpt lat="43.74644" lon="-1.35789">
        <ele>-15</ele>
        <time>2020-08-08T08:28:31Z</time>
      </trkpt>
      <trkpt lat="43.7465" lon="-1.35782">
        <ele>-15</ele>
        <time>2020-08-08T08:28:36Z</time>
      </trkpt>
      <trkpt lat="43.74657" lon="-1.35773">
        <ele>-15</ele>
        <time>2020-08-08T08:28:40Z</time>
      </trkpt>
      <trkpt lat="43.7466" lon="-1.3577">
        <ele>-15</ele>
        <time>2020-08-08T08:28:42Z</time>
      </trkpt>
      <trkpt lat="43.74666" lon="-1.35763">
        <ele>-15</ele>
        <time>2020-08-08T08:28:46Z</time>
      </trkpt>
      <trkpt lat="43.74672" lon="-1.35756">
        <ele>-15</ele>
        <time>2020-08-08T08:28:52Z</time>
      </trkpt>
      <trkpt lat="43.74675" lon="-1.35752">
        <ele>-15</ele>
        <time>2020-08-08T08:28:58Z</time>
      </trkpt>
      <trkpt lat="43.74676" lon="-1.35751">
        <ele>-15</ele>
        <time>2020-08-08T08:28:59Z</time>
      </trkpt>
      <trkpt lat="43.74678" lon="-1.35748">
        <ele>-15</ele>
        <time>2020-08-08T08:29:03Z</time>
      </trkpt>
      <trkpt lat="43.74683" lon="-1.35741">
        <ele>-15</ele>
        <time>2020-08-08T08:29:08Z</time>
      </trkpt>
      <trkpt lat="43.74685" lon="-1.35738">
        <ele>-15</ele>
        <time>2020-08-08T08:29:10Z</time>
      </trkpt>
      <trkpt lat="43.74689" lon="-1.35729">
        <ele>-15</ele>
        <time>2020-08-08T08:29:16Z</time>
      </trkpt>
      <trkpt lat="43.74695" lon="-1.35722">
        <ele>-15</ele>
        <time>2020-08-08T08:29:23Z</time>
      </trkpt>
      <trkpt lat="43.74696" lon="-1.35721">
        <ele>-15</ele>
        <time>2020-08-08T08:29:24Z</time>
      </trkpt>
      <trkpt lat="43.74701" lon="-1.35715">
        <ele>-15</ele>
        <time>2020-08-08T08:29:29Z</time>
      </trkpt>
      <trkpt lat="43.74704" lon="-1.3571">
        <ele>-15</ele>
        <time>2020-08-08T08:29:35Z</time>
      </trkpt>
      <trkpt lat="43.74707" lon="-1.35706">
        <ele>-15</ele>
        <time>2020-08-08T08:29:40Z</time>
      </trkpt>
      <trkpt lat="43.74711" lon="-1.35699">
        <ele>-15</ele>
        <time>2020-08-08T08:29:46Z</time>
      </trkpt>
      <trkpt lat="43.74714" lon="-1.35695">
        <ele>-15</ele>
        <time>2020-08-08T08:29:53Z</time>
      </trkpt>
      <trkpt lat="43.74716" lon="-1.35693">
        <ele>-15</ele>
        <time>2020-08-08T08:29:58Z</time>
      </trkpt>
      <trkpt lat="43.7472" lon="-1.3569">
        <ele>-15</ele>
        <time>2020-08-08T08:30:02Z</time>
      </trkpt>
      <trkpt lat="43.74723" lon="-1.35686">
        <ele>-15</ele>
        <time>2020-08-08T08:30:04Z</time>
      </trkpt>
      <trkpt lat="43.74731" lon="-1.35673">
        <ele>-15</ele>
        <time>2020-08-08T08:30:10Z</time>
      </trkpt>
      <trkpt lat="43.74739" lon="-1.35662">
        <ele>-15</ele>
        <time>2020-08-08T08:30:16Z</time>
      </trkpt>
      <trkpt lat="43.74747" lon="-1.3565">
        <ele>-15</ele>
        <time>2020-08-08T08:30:22Z</time>
      </trkpt>
      <trkpt lat="43.74758" lon="-1.35653">
        <ele>-15</ele>
        <time>2020-08-08T08:30:28Z</time>
      </trkpt>
      <trkpt lat="43.74763" lon="-1.35656">
        <ele>-15</ele>
        <time>2020-08-08T08:30:31Z</time>
      </trkpt>
      <trkpt lat="43.74767" lon="-1.35661">
        <ele>-15</ele>
        <time>2020-08-08T08:30:34Z</time>
      </trkpt>
      <trkpt lat="43.74771" lon="-1.35665">
        <ele>-15</ele>
        <time>2020-08-08T08:30:37Z</time>
      </trkpt>
      <trkpt lat="43.74774" lon="-1.35669">
        <ele>-15</ele>
        <time>2020-08-08T08:30:40Z</time>
      </trkpt>
      <trkpt lat="43.74775" lon="-1.35671">
        <ele>-15</ele>
        <time>2020-08-08T08:30:41Z</time>
      </trkpt>
      <trkpt lat="43.74781" lon="-1.35674">
        <ele>-15</ele>
        <time>2020-08-08T08:30:45Z</time>
      </trkpt>
      <trkpt lat="43.74792" lon="-1.35685">
        <ele>-15</ele>
        <time>2020-08-08T08:30:52Z</time>
      </trkpt>
      <trkpt lat="43.74804" lon="-1.35696">
        <ele>-15</ele>
        <time>2020-08-08T08:30:59Z</time>
      </trkpt>
      <trkpt lat="43.74815" lon="-1.35708">
        <ele>-15</ele>
        <time>2020-08-08T08:31:06Z</time>
      </trkpt>
      <trkpt lat="43.74823" lon="-1.35711">
        <ele>-15</ele>
        <time>2020-08-08T08:31:12Z</time>
      </trkpt>
      <trkpt lat="43.74828" lon="-1.35712">
        <ele>-15</ele>
        <time>2020-08-08T08:31:15Z</time>
      </trkpt>
      <trkpt lat="43.74832" lon="-1.35711">
        <ele>-15</ele>
        <time>2020-08-08T08:31:18Z</time>
      </trkpt>
      <trkpt lat="43.74832" lon="-1.35711">
        <ele>-15</ele>
        <time>2020-08-08T08:31:28Z</time>
      </trkpt>
      <trkpt lat="43.74833" lon="-1.3571">
        <ele>-15</ele>
        <time>2020-08-08T08:31:36Z</time>
      </trkpt>
      <trkpt lat="43.74837" lon="-1.3571">
        <ele>-15</ele>
        <time>2020-08-08T08:31:42Z</time>
      </trkpt>
      <trkpt lat="43.7484" lon="-1.35711">
        <ele>-15</ele>
        <time>2020-08-08T08:31:49Z</time>
      </trkpt>
      <trkpt lat="43.74841" lon="-1.3571">
        <ele>-15</ele>
        <time>2020-08-08T08:31:53Z</time>
      </trkpt>
      <trkpt lat="43.74843" lon="-1.35709">
        <ele>-15</ele>
        <time>2020-08-08T08:31:54Z</time>
      </trkpt>
      <trkpt lat="43.74856" lon="-1.357">
        <ele>-15</ele>
        <time>2020-08-08T08:32:00Z</time>
      </trkpt>
      <trkpt lat="43.74868" lon="-1.35693">
        <ele>-15</ele>
        <time>2020-08-08T08:32:06Z</time>
      </trkpt>
      <trkpt lat="43.74878" lon="-1.35685">
        <ele>-15</ele>
        <time>2020-08-08T08:32:12Z</time>
      </trkpt>
      <trkpt lat="43.74891" lon="-1.35674">
        <ele>-15</ele>
        <time>2020-08-08T08:32:19Z</time>
      </trkpt>
      <trkpt lat="43.749" lon="-1.35666">
        <ele>-15</ele>
        <time>2020-08-08T08:32:25Z</time>
      </trkpt>
      <trkpt lat="43.74905" lon="-1.35663">
        <ele>-14.60000038147</ele>
        <time>2020-08-08T08:32:28Z</time>
      </trkpt>
      <trkpt lat="43.74907" lon="-1.35662">
        <ele>-14.199999809265</ele>
        <time>2020-08-08T08:32:29Z</time>
      </trkpt>
      <trkpt lat="43.74908" lon="-1.35661">
        <ele>-13.800000190735</ele>
        <time>2020-08-08T08:32:30Z</time>
      </trkpt>
      <trkpt lat="43.74909" lon="-1.3566">
        <ele>-13.39999961853</ele>
        <time>2020-08-08T08:32:31Z</time>
      </trkpt>
      <trkpt lat="43.74911" lon="-1.35659">
        <ele>-13</ele>
        <time>2020-08-08T08:32:32Z</time>
      </trkpt>
      <trkpt lat="43.74913" lon="-1.35659">
        <ele>-13</ele>
        <time>2020-08-08T08:32:34Z</time>
      </trkpt>
      <trkpt lat="43.74916" lon="-1.35656">
        <ele>-13</ele>
        <time>2020-08-08T08:32:37Z</time>
      </trkpt>
      <trkpt lat="43.74924" lon="-1.35646">
        <ele>-13</ele>
        <time>2020-08-08T08:32:43Z</time>
      </trkpt>
      <trkpt lat="43.74932" lon="-1.35634">
        <ele>-13</ele>
        <time>2020-08-08T08:32:50Z</time>
      </trkpt>
      <trkpt lat="43.7494" lon="-1.35621">
        <ele>-13</ele>
        <time>2020-08-08T08:32:56Z</time>
      </trkpt>
      <trkpt lat="43.74946" lon="-1.35604">
        <ele>-13</ele>
        <time>2020-08-08T08:33:01Z</time>
      </trkpt>
      <trkpt lat="43.74955" lon="-1.35589">
        <ele>-13</ele>
        <time>2020-08-08T08:33:06Z</time>
      </trkpt>
      <trkpt lat="43.74959" lon="-1.35582">
        <ele>-13.39999961853</ele>
        <time>2020-08-08T08:33:09Z</time>
      </trkpt>
      <trkpt lat="43.7496" lon="-1.35579">
        <ele>-13.800000190735</ele>
        <time>2020-08-08T08:33:10Z</time>
      </trkpt>
      <trkpt lat="43.74962" lon="-1.35577">
        <ele>-14.199999809265</ele>
        <time>2020-08-08T08:33:11Z</time>
      </trkpt>
      <trkpt lat="43.74963" lon="-1.35575">
        <ele>-14.60000038147</ele>
        <time>2020-08-08T08:33:12Z</time>
      </trkpt>
      <trkpt lat="43.74965" lon="-1.35573">
        <ele>-15</ele>
        <time>2020-08-08T08:33:13Z</time>
      </trkpt>
      <trkpt lat="43.74971" lon="-1.35563">
        <ele>-15</ele>
        <time>2020-08-08T08:33:19Z</time>
      </trkpt>
      <trkpt lat="43.7498" lon="-1.35547">
        <ele>-15</ele>
        <time>2020-08-08T08:33:26Z</time>
      </trkpt>
      <trkpt lat="43.74982" lon="-1.35544">
        <ele>-15.39999961853</ele>
        <time>2020-08-08T08:33:27Z</time>
      </trkpt>
      <trkpt lat="43.74984" lon="-1.35543">
        <ele>-15.800000190735</ele>
        <time>2020-08-08T08:33:28Z</time>
      </trkpt>
      <trkpt lat="43.74986" lon="-1.35541">
        <ele>-16.200000762939</ele>
        <time>2020-08-08T08:33:29Z</time>
      </trkpt>
      <trkpt lat="43.74989" lon="-1.35539">
        <ele>-16.60000038147</ele>
        <time>2020-08-08T08:33:30Z</time>
      </trkpt>
      <trkpt lat="43.74991" lon="-1.35538">
        <ele>-17</ele>
        <time>2020-08-08T08:33:31Z</time>
      </trkpt>
      <trkpt lat="43.74993" lon="-1.35537">
        <ele>-17</ele>
        <time>2020-08-08T08:33:32Z</time>
      </trkpt>
      <trkpt lat="43.75004" lon="-1.35536">
        <ele>-17</ele>
        <time>2020-08-08T08:33:37Z</time>
      </trkpt>
      <trkpt lat="43.75011" lon="-1.3554">
        <ele>-17</ele>
        <time>2020-08-08T08:33:42Z</time>
      </trkpt>
      <trkpt lat="43.75013" lon="-1.35539">
        <ele>-17</ele>
        <time>2020-08-08T08:33:45Z</time>
      </trkpt>
      <trkpt lat="43.75016" lon="-1.35538">
        <ele>-17</ele>
        <time>2020-08-08T08:33:47Z</time>
      </trkpt>
      <trkpt lat="43.75024" lon="-1.35536">
        <ele>-17</ele>
        <time>2020-08-08T08:33:53Z</time>
      </trkpt>
      <trkpt lat="43.7503" lon="-1.35534">
        <ele>-17</ele>
        <time>2020-08-08T08:33:58Z</time>
      </trkpt>
      <trkpt lat="43.7504" lon="-1.35532">
        <ele>-17</ele>
        <time>2020-08-08T08:34:04Z</time>
      </trkpt>
      <trkpt lat="43.75044" lon="-1.35531">
        <ele>-17</ele>
        <time>2020-08-08T08:34:08Z</time>
      </trkpt>
      <trkpt lat="43.75045" lon="-1.35532">
        <ele>-17</ele>
        <time>2020-08-08T08:34:11Z</time>
      </trkpt>
      <trkpt lat="43.75047" lon="-1.35533">
        <ele>-17</ele>
        <time>2020-08-08T08:34:12Z</time>
      </trkpt>
      <trkpt lat="43.7505" lon="-1.35534">
        <ele>-17</ele>
        <time>2020-08-08T08:34:13Z</time>
      </trkpt>
      <trkpt lat="43.75059" lon="-1.35543">
        <ele>-17</ele>
        <time>2020-08-08T08:34:18Z</time>
      </trkpt>
      <trkpt lat="43.75062" lon="-1.35545">
        <ele>-17</ele>
        <time>2020-08-08T08:34:19Z</time>
      </trkpt>
      <trkpt lat="43.75077" lon="-1.35554">
        <ele>-17</ele>
        <time>2020-08-08T08:34:24Z</time>
      </trkpt>
      <trkpt lat="43.75097" lon="-1.35564">
        <ele>-17</ele>
        <time>2020-08-08T08:34:30Z</time>
      </trkpt>
      <trkpt lat="43.75119" lon="-1.35581">
        <ele>-17</ele>
        <time>2020-08-08T08:34:37Z</time>
      </trkpt>
      <trkpt lat="43.75129" lon="-1.35595">
        <ele>-17</ele>
        <time>2020-08-08T08:34:42Z</time>
      </trkpt>
      <trkpt lat="43.75137" lon="-1.35608">
        <ele>-17</ele>
        <time>2020-08-08T08:34:46Z</time>
      </trkpt>
      <trkpt lat="43.75146" lon="-1.35621">
        <ele>-17</ele>
        <time>2020-08-08T08:34:50Z</time>
      </trkpt>
      <trkpt lat="43.75151" lon="-1.35616">
        <ele>-17</ele>
        <time>2020-08-08T08:34:54Z</time>
      </trkpt>
      <trkpt lat="43.75151" lon="-1.35611">
        <ele>-17</ele>
        <time>2020-08-08T08:34:56Z</time>
      </trkpt>
      <trkpt lat="43.7515" lon="-1.35601">
        <ele>-17</ele>
        <time>2020-08-08T08:34:59Z</time>
      </trkpt>
      <trkpt lat="43.75149" lon="-1.35579">
        <ele>-17</ele>
        <time>2020-08-08T08:35:04Z</time>
      </trkpt>
      <trkpt lat="43.75146" lon="-1.35542">
        <ele>-17</ele>
        <time>2020-08-08T08:35:11Z</time>
      </trkpt>
      <trkpt lat="43.75141" lon="-1.35502">
        <ele>-17</ele>
        <time>2020-08-08T08:35:19Z</time>
      </trkpt>
      <trkpt lat="43.75141" lon="-1.35497">
        <ele>-17.39999961853</ele>
        <time>2020-08-08T08:35:20Z</time>
      </trkpt>
      <trkpt lat="43.75141" lon="-1.35494">
        <ele>-17.799999237061</ele>
        <time>2020-08-08T08:35:21Z</time>
      </trkpt>
      <trkpt lat="43.75143" lon="-1.35491">
        <ele>-18.200000762939</ele>
        <time>2020-08-08T08:35:22Z</time>
      </trkpt>
      <trkpt lat="43.75143" lon="-1.35491">
        <ele>-18.60000038147</ele>
        <time>2020-08-08T08:35:23Z</time>
      </trkpt>
      <trkpt lat="43.75143" lon="-1.35491">
        <ele>-19</ele>
        <time>2020-08-08T08:35:24Z</time>
      </trkpt>
      <trkpt lat="43.75143" lon="-1.35491">
        <ele>-19</ele>
        <time>2020-08-08T08:35:29Z</time>
      </trkpt>
      <trkpt lat="43.75143" lon="-1.35491">
        <ele>-19</ele>
        <time>2020-08-08T08:35:35Z</time>
      </trkpt>
      <trkpt lat="43.75146" lon="-1.35491">
        <ele>-19</ele>
        <time>2020-08-08T08:35:44Z</time>
      </trkpt>
      <trkpt lat="43.75156" lon="-1.35488">
        <ele>-19</ele>
        <time>2020-08-08T08:35:49Z</time>
      </trkpt>
      <trkpt lat="43.75168" lon="-1.35486">
        <ele>-19</ele>
        <time>2020-08-08T08:35:54Z</time>
      </trkpt>
      <trkpt lat="43.75185" lon="-1.35481">
        <ele>-19</ele>
        <time>2020-08-08T08:36:01Z</time>
      </trkpt>
      <trkpt lat="43.75187" lon="-1.35479">
        <ele>-19</ele>
        <time>2020-08-08T08:36:02Z</time>
      </trkpt>
      <trkpt lat="43.75194" lon="-1.35475">
        <ele>-19</ele>
        <time>2020-08-08T08:36:05Z</time>
      </trkpt>
      <trkpt lat="43.75203" lon="-1.35473">
        <ele>-19</ele>
        <time>2020-08-08T08:36:08Z</time>
      </trkpt>
      <trkpt lat="43.7521" lon="-1.35471">
        <ele>-19</ele>
        <time>2020-08-08T08:36:10Z</time>
      </trkpt>
      <trkpt lat="43.75212" lon="-1.35468">
        <ele>-19</ele>
        <time>2020-08-08T08:36:11Z</time>
      </trkpt>
      <trkpt lat="43.75214" lon="-1.3546">
        <ele>-19</ele>
        <time>2020-08-08T08:36:13Z</time>
      </trkpt>
      <trkpt lat="43.75224" lon="-1.35437">
        <ele>-19</ele>
        <time>2020-08-08T08:36:19Z</time>
      </trkpt>
      <trkpt lat="43.75235" lon="-1.35412">
        <ele>-19</ele>
        <time>2020-08-08T08:36:25Z</time>
      </trkpt>
      <trkpt lat="43.75236" lon="-1.35406">
        <ele>-19</ele>
        <time>2020-08-08T08:36:26Z</time>
      </trkpt>
      <trkpt lat="43.75234" lon="-1.35378">
        <ele>-19</ele>
        <time>2020-08-08T08:36:32Z</time>
      </trkpt>
      <trkpt lat="43.75234" lon="-1.35373">
        <ele>-19</ele>
        <time>2020-08-08T08:36:33Z</time>
      </trkpt>
      <trkpt lat="43.75226" lon="-1.35343">
        <ele>-19</ele>
        <time>2020-08-08T08:36:38Z</time>
      </trkpt>
      <trkpt lat="43.75215" lon="-1.35317">
        <ele>-19</ele>
        <time>2020-08-08T08:36:44Z</time>
      </trkpt>
      <trkpt lat="43.75207" lon="-1.35316">
        <ele>-19</ele>
        <time>2020-08-08T08:36:48Z</time>
      </trkpt>
      <trkpt lat="43.75204" lon="-1.35317">
        <ele>-19</ele>
        <time>2020-08-08T08:36:49Z</time>
      </trkpt>
      <trkpt lat="43.75202" lon="-1.35319">
        <ele>-19</ele>
        <time>2020-08-08T08:36:50Z</time>
      </trkpt>
      <trkpt lat="43.75201" lon="-1.35324">
        <ele>-19</ele>
        <time>2020-08-08T08:36:52Z</time>
      </trkpt>
      <trkpt lat="43.75201" lon="-1.35327">
        <ele>-19</ele>
        <time>2020-08-08T08:36:56Z</time>
      </trkpt>
      <trkpt lat="43.75201" lon="-1.35327">
        <ele>-19</ele>
        <time>2020-08-08T08:37:07Z</time>
      </trkpt>
      <trkpt lat="43.75201" lon="-1.35327">
        <ele>-19</ele>
        <time>2020-08-08T08:37:15Z</time>
      </trkpt>
      <trkpt lat="43.75201" lon="-1.35327">
        <ele>-19</ele>
        <time>2020-08-08T08:37:25Z</time>
      </trkpt>
      <trkpt lat="43.75201" lon="-1.35327">
        <ele>-19</ele>
        <time>2020-08-08T08:37:36Z</time>
      </trkpt>
      <trkpt lat="43.75201" lon="-1.35327">
        <ele>-19</ele>
        <time>2020-08-08T08:37:47Z</time>
      </trkpt>
      <trkpt lat="43.75201" lon="-1.35327">
        <ele>-19</ele>
        <time>2020-08-08T08:38:02Z</time>
      </trkpt>
      <trkpt lat="43.75201" lon="-1.35327">
        <ele>-19</ele>
        <time>2020-08-08T08:38:07Z</time>
      </trkpt>
      <trkpt lat="43.75202" lon="-1.35326">
        <ele>-19</ele>
        <time>2020-08-08T08:38:12Z</time>
      </trkpt>
      <trkpt lat="43.75202" lon="-1.35326">
        <ele>-19</ele>
        <time>2020-08-08T08:38:20Z</time>
      </trkpt>
      <trkpt lat="43.752" lon="-1.35328">
        <ele>-19</ele>
        <time>2020-08-08T08:38:24Z</time>
      </trkpt>
      <trkpt lat="43.752" lon="-1.35331">
        <ele>-19</ele>
        <time>2020-08-08T08:38:28Z</time>
      </trkpt>
      <trkpt lat="43.752" lon="-1.35332">
        <ele>-19</ele>
        <time>2020-08-08T08:38:34Z</time>
      </trkpt>
      <trkpt lat="43.75201" lon="-1.35334">
        <ele>-19</ele>
        <time>2020-08-08T08:38:39Z</time>
      </trkpt>
    </trkseg>
  </trk>
</gpx>